GFSSW_700_spd_000.txt.gz
Wind_Speed
24 22 21 19 18 16 15 13 12 11 11 11 11 11 10 8 6 7 5 5 6 17 16 14 15 15 19 19 7 7 20 15 10 9 10 7 7 7 8 2 4 7 4 12 7
21 19 18 17 17 17 15 14 13 12 11 11 12 11 8 8 9 4 3 8 20 16 13 14 10 11 13 3 7 8 11 12 9 7 6 7 7 3 5 4 6 8 9 12 11
18 17 16 16 17 16 15 14 13 12 11 12 13 11 12 16 9 5 7 17 17 12 12 9 7 12 9 7 5 3 1 8 11 5 4 7 6 4 6 4 6 9 12 14 7
15 15 15 16 16 15 15 13 12 13 14 15 14 14 21 13 5 5 9 20 15 12 11 6 8 7 11 10 8 4 7 5 7 10 6 7 6 4 6 4 10 7 6 13 7
12 13 13 15 14 13 13 13 14 15 15 15 15 18 17 11 6 12 11 14 13 11 10 6 8 8 10 9 8 4 3 5 6 9 8 8 6 2 6 6 10 9 9 11 7
10 12 13 13 14 14 15 15 16 16 15 14 15 19 10 4 8 13 15 13 7 4 3 8 4 5 6 7 8 7 6 8 7 5 3 6 5 6 5 7 5 11 9 9 8
10 13 13 13 15 16 18 18 17 15 14 13 16 18 4 0 7 9 15 7 10 6 5 10 7 8 6 6 4 9 9 7 5 4 1 4 7 8 11 7 9 10 10 10 9
11 12 16 17 18 21 21 19 16 14 12 12 13 11 4 6 9 16 7 2 2 3 3 6 13 3 1 7 7 8 8 8 8 7 6 7 10 13 10 5 7 9 10 10 12
13 16 18 21 23 23 21 18 16 14 13 12 13 6 1 4 11 14 14 6 5 7 10 12 11 4 4 8 8 8 11 8 7 7 5 6 1 7 5 8 10 11 12 11 12
17 21 24 26 26 24 20 17 15 14 13 10 11 3 4 5 11 11 10 14 6 7 7 4 5 8 8 8 4 10 9 6 6 7 3 6 8 3 6 9 11 13 11 12 10
21 24 27 28 26 23 20 18 16 17 12 6 6 3 2 8 12 9 14 10 7 4 5 3 5 4 3 4 6 7 5 3 10 2 7 7 8 3 4 2 3 5 9 10 8
22 26 28 26 23 24 21 11 13 12 8 11 6 10 12 11 6 6 10 5 4 6 3 3 2 3 2 6 5 4 3 6 3 5 4 7 10 6 4 5 7 4 9 11 14
21 26 26 23 22 25 13 11 16 16 9 8 9 5 13 8 6 6 10 3 5 4 3 5 4 2 3 3 3 3 3 3 4 4 8 8 9 12 8 7 9 16 14 9 9
19 23 23 19 19 19 16 21 16 18 7 3 3 2 3 6 3 4 10 8 4 5 5 3 1 3 2 2 3 3 2 5 7 8 10 15 4 14 13 10 9 11 10 6 6
18 21 23 19 17 13 16 22 18 8 3 6 5 7 7 3 5 3 6 8 2 4 3 4 3 3 1 3 2 4 10 6 6 9 10 11 10 21 15 12 10 7 6 4 8
18 21 23 19 21 19 19 23 10 3 2 4 4 7 6 4 3 4 5 9 10 5 6 4 1 0 2 4 4 5 7 7 6 8 5 12 2 8 6 8 6 4 3 3 2
19 21 24 22 18 19 19 17 1 1 6 4 10 8 5 6 8 5 5 5 2 4 3 6 3 4 4 4 4 7 6 8 3 4 4 2 2 12 10 11 9 5 1 3 3
21 23 25 21 19 19 18 7 6 1 5 8 10 11 7 6 5 8 7 6 5 2 6 8 6 3 6 5 5 5 5 4 3 4 3 4 4 12 11 8 7 2 1 5 7
20 21 22 22 19 20 17 8 4 2 7 10 12 8 5 4 7 8 9 4 5 6 6 2 5 3 7 4 5 5 5 2 2 4 3 7 13 13 6 5 4 3 5 4 8
19 19 20 20 20 21 9 6 3 3 6 11 8 5 6 6 7 6 3 4 4 5 6 2 4 1 5 8 9 7 4 4 5 2 3 10 6 7 5 1 3 2 5 7 12
20 14 14 20 21 21 8 6 5 8 10 12 5 6 5 7 5 5 3 4 5 4 7 6 4 1 5 5 5 3 3 3 3 0 2 3 3 2 1 3 6 8 8 9 7
18 7 9 21 21 14 7 7 7 8 14 11 7 7 7 7 6 4 6 5 3 6 2 4 5 5 3 5 1 3 2 2 1 1 2 1 11 1 0 3 12 8 7 7 8
11 8 12 23 13 16 9 8 7 8 8 5 5 8 8 7 5 8 6 4 2 4 6 5 1 1 6 2 3 1 2 3 4 5 7 4 6 8 13 8 6 8 7 11 16
10 8 21 26 8 16 9 8 12 12 12 7 6 6 9 6 4 8 4 4 4 2 3 4 2 1 2 5 8 10 10 10 12 11 12 14 18 16 14 10 5 9 11 18 21
6 9 19 26 12 11 12 9 10 12 7 7 6 6 8 6 7 6 5 1 2 1 3 3 5 3 5 8 9 11 14 13 15 16 17 20 17 16 11 9 9 12 19 21 36
8 8 17 7 17 10 14 11 12 9 8 10 7 8 8 6 4 7 6 3 1 2 2 2 2 8 9 3 7 13 16 16 16 17 14 15 17 12 10 13 20 28 29 33 37
15 12 13 16 12 13 16 10 12 15 13 9 10 13 14 13 16 16 13 11 7 3 4 3 4 8 3 12 14 3 4 2 5 7 11 13 14 16 15 19 22 34 36 37 34

GFSSW_700_spd_003.txt.gz
Wind_Speed
31 28 24 22 21 19 17 16 14 12 11 11 11 10 10 7 6 7 7 7 5 10 14 15 18 22 19 23 14 2 9 13 15 16 13 9 13 11 7 10 12 11 3 4 8
30 25 22 20 20 18 17 16 13 11 11 10 9 9 8 8 9 7 5 10 13 16 13 14 15 11 19 14 2 5 8 8 16 16 7 7 5 3 11 6 7 12 8 5 5
26 23 20 19 19 17 17 15 13 12 10 10 10 10 10 13 4 2 6 14 18 13 12 11 9 4 9 3 1 3 8 8 14 16 7 10 8 4 7 5 6 6 13 11 7
22 20 18 17 16 16 14 14 13 11 11 12 12 15 17 9 3 4 5 19 13 11 13 15 15 10 6 4 2 9 6 1 4 2 9 7 6 7 5 4 10 5 5 5 2
18 17 15 15 14 12 12 12 12 12 13 13 15 21 14 9 7 9 9 13 10 12 14 16 11 7 5 1 6 6 4 3 3 8 14 12 7 8 7 5 8 6 5 3 6
15 13 13 13 12 11 13 13 14 15 15 16 20 19 10 8 5 11 18 11 9 5 5 7 7 10 9 16 8 7 3 4 7 10 13 9 8 9 8 9 7 8 5 6 7
11 11 12 12 13 14 15 17 17 17 16 16 22 15 3 6 6 13 16 8 9 9 2 10 7 10 5 14 7 7 7 5 7 3 6 10 12 8 12 11 4 10 9 9 8
9 9 11 15 17 18 20 20 19 17 15 17 19 9 4 3 10 15 11 7 14 8 6 15 9 9 2 7 6 8 13 13 8 7 6 2 6 13 14 9 9 7 5 8 14
10 13 16 20 22 24 23 21 20 18 18 19 15 5 4 3 13 17 15 10 7 7 6 15 11 3 7 8 13 12 13 18 14 8 6 1 12 20 7 3 4 9 9 6 8
15 18 21 25 26 25 23 20 19 19 18 18 12 3 6 5 16 16 14 14 12 11 13 16 11 7 9 9 6 6 12 21 19 15 11 8 2 13 4 3 3 3 10 17 16
19 24 27 28 27 25 22 19 17 18 14 5 3 10 5 4 11 13 15 17 14 9 7 2 8 10 8 6 2 1 10 19 18 13 8 5 12 10 11 9 11 15 11 18 22
24 28 29 27 25 26 20 15 10 11 7 10 11 10 11 11 9 12 13 10 8 4 2 5 7 7 3 2 2 2 6 13 9 4 2 5 11 10 9 10 11 9 10 14 20
27 29 27 24 27 16 9 14 17 13 10 9 8 13 16 9 9 13 16 9 6 3 9 5 5 4 8 2 7 5 4 2 1 2 3 4 18 17 14 16 15 15 13 14 17
26 27 24 22 22 9 16 20 20 15 6 7 6 12 13 10 3 8 11 10 4 12 6 3 4 7 5 1 2 1 3 5 7 3 5 5 6 16 18 18 17 16 11 11 19
24 25 21 19 20 14 15 19 19 5 3 8 8 7 13 5 4 6 10 9 3 4 4 6 6 6 5 3 3 1 6 5 5 7 7 3 3 19 17 14 14 15 8 11 11
22 24 20 18 18 15 13 19 10 1 2 5 5 7 7 6 4 3 12 8 9 6 6 3 1 1 3 6 9 7 6 5 5 5 3 7 5 19 16 17 12 9 8 7 9
21 23 23 19 18 17 21 14 3 1 8 4 11 10 5 8 7 8 9 9 6 8 10 11 4 8 5 4 3 4 7 2 1 1 3 4 8 7 11 17 13 9 7 8 9
21 22 22 21 18 18 22 8 1 5 3 7 12 11 5 7 14 7 8 6 9 6 8 8 3 1 6 7 3 10 7 5 1 1 5 6 9 13 17 20 14 5 6 4 10
22 21 22 23 17 20 19 6 3 5 10 8 13 11 8 7 7 7 3 4 5 3 6 10 5 4 4 7 4 5 8 7 4 4 3 8 15 8 2 3 5 8 6 6 9
21 20 21 22 19 22 13 8 1 5 4 12 12 11 9 8 10 5 1 2 5 4 6 9 6 3 10 10 11 9 8 4 3 2 2 4 5 4 13 10 5 6 3 6 4
21 20 19 20 21 22 14 8 2 13 13 13 6 8 9 9 8 8 4 6 6 5 7 12 6 7 6 5 6 5 1 2 1 1 4 1 5 5 9 9 4 6 7 8 8
20 16 12 20 24 21 10 4 8 8 13 13 8 11 8 13 8 8 11 7 7 9 7 8 10 10 4 6 3 3 1 0 0 2 2 1 5 5 7 6 3 8 12 9 13
23 11 10 22 24 21 5 9 6 10 9 11 13 13 7 13 6 7 10 9 6 7 7 10 7 7 3 1 2 4 2 4 5 4 2 3 4 2 15 20 21 10 12 16 20
17 13 14 23 19 18 10 10 13 11 12 10 9 14 11 10 9 11 9 8 6 7 8 8 8 5 5 2 4 6 7 8 10 10 11 14 16 13 13 5 8 10 15 21 26
10 12 14 28 17 20 10 4 12 14 12 10 7 12 13 10 8 8 6 7 7 7 7 7 8 5 4 6 7 9 10 10 12 14 15 18 16 15 13 10 12 15 19 21 23
14 13 19 26 17 17 15 11 11 5 7 9 8 10 12 15 11 9 7 3 5 7 8 5 5 2 2 5 6 12 11 12 15 15 16 15 9 6 13 17 22 22 25 26 34
8 15 20 13 22 15 11 16 12 14 8 12 13 18 16 15 14 16 13 11 7 8 5 4 1 1 2 5 4 5 3 1 4 8 10 12 12 14 17 23 24 22 28 36 44

GFSSW_700_spd_006.txt.gz
Wind_Speed
33 32 30 27 22 19 18 17 17 16 15 13 11 10 10 10 10 10 8 9 8 11 13 14 16 18 20 23 19 6 1 8 12 10 14 13 10 15 11 8 6 5 5 3 8
32 31 28 23 20 18 17 17 16 15 13 10 9 8 8 9 8 7 9 9 9 15 15 17 19 19 23 24 9 5 4 7 14 14 18 14 8 5 10 12 9 9 6 2 6
31 29 24 20 18 16 17 16 15 13 12 9 8 9 9 9 6 4 3 10 19 17 15 18 12 12 20 18 7 6 7 11 10 27 14 11 9 5 6 10 4 1 10 8 3
28 24 20 18 15 14 15 14 14 13 11 10 12 13 14 10 5 8 10 20 14 17 14 14 13 17 17 9 6 4 12 7 17 14 12 9 9 7 5 3 6 2 3 4 3
23 18 17 14 13 13 12 12 13 13 13 15 17 19 13 8 8 14 21 16 8 12 12 7 4 6 9 7 6 17 7 5 11 17 13 11 8 11 4 3 5 3 3 3 4
19 14 13 13 11 11 12 13 14 15 17 19 20 18 11 12 13 13 15 7 4 6 3 2 6 5 10 16 16 11 7 6 9 18 15 10 9 12 5 4 4 6 6 5 2
14 11 11 11 10 12 13 15 17 18 19 19 23 13 8 11 8 15 9 7 8 5 7 7 2 2 12 13 16 8 4 6 11 10 11 12 12 9 10 9 7 6 9 7 5
10 7 9 11 14 16 18 19 19 19 18 22 17 9 7 9 15 16 10 10 10 5 9 9 5 8 7 15 10 1 6 6 5 7 6 4 4 10 12 14 6 2 6 5 10
7 9 12 16 19 21 22 21 20 18 19 21 14 7 6 12 20 15 12 11 9 4 13 11 5 12 8 6 9 9 11 14 8 8 4 7 2 17 13 11 4 4 12 14 15
10 13 17 20 24 25 25 23 20 19 21 21 10 5 6 8 19 21 13 10 12 5 13 12 6 8 6 5 7 11 14 21 19 16 13 7 6 17 14 10 12 15 19 22 20
14 19 23 27 28 27 25 21 18 17 18 10 9 6 3 3 12 18 16 18 18 16 13 11 2 3 6 7 9 4 7 8 20 14 13 5 21 17 14 15 17 17 14 20 20
19 26 29 29 27 23 22 21 21 16 8 9 8 11 13 10 13 16 17 20 17 13 4 4 8 8 10 10 7 6 12 20 18 12 7 17 20 20 17 15 13 16 15 17 19
24 29 30 28 28 15 20 19 18 13 10 10 6 9 8 10 10 19 16 15 8 3 2 9 9 9 6 6 9 7 16 16 12 8 7 18 20 17 17 20 18 16 15 16 13
29 30 29 30 20 19 21 20 18 11 5 10 7 15 12 11 7 17 16 9 4 4 8 7 8 9 5 5 5 7 6 4 3 6 12 9 10 23 21 18 16 17 16 14 12
31 29 29 27 19 21 21 24 19 6 3 11 7 14 11 9 8 18 13 7 7 7 6 7 7 5 4 3 1 4 2 0 1 5 6 6 13 20 18 16 14 15 14 13 10
29 26 26 27 21 18 20 21 14 3 3 7 8 10 11 8 9 9 12 12 8 6 7 6 2 4 3 8 7 4 4 3 1 1 1 5 9 23 22 20 15 14 13 12 11
29 26 25 26 21 17 18 17 5 2 13 10 15 13 12 9 12 13 14 15 9 11 10 8 5 7 7 8 8 2 2 2 3 2 4 3 4 7 16 15 13 16 12 9 11
28 27 24 21 21 17 21 11 3 7 6 12 17 13 13 12 11 15 10 9 9 8 16 5 4 2 5 7 5 7 6 4 4 2 3 5 5 6 16 15 11 6 3 4 18
26 26 25 22 20 20 19 7 6 7 15 16 13 16 13 12 10 10 7 6 8 8 12 7 4 6 9 8 5 4 9 7 4 2 2 5 13 12 11 10 12 11 14 4 9
25 25 26 23 19 23 18 6 5 6 14 7 19 14 11 14 11 8 4 4 10 8 9 9 9 10 10 11 10 10 6 2 3 2 1 3 9 8 16 13 13 9 8 12 15
24 24 24 23 21 23 18 8 6 9 12 13 15 10 9 12 14 10 6 6 8 10 9 11 7 9 7 5 6 5 3 3 2 1 4 2 3 7 18 13 13 14 9 6 12
25 22 22 22 23 25 18 6 6 12 15 13 11 9 16 16 16 14 8 7 7 8 14 10 11 9 7 6 6 3 3 1 1 2 2 4 4 11 18 17 12 14 14 14 22
24 21 19 24 26 27 10 7 10 7 16 15 12 13 14 14 10 7 7 8 8 9 13 14 9 8 4 4 4 3 3 3 3 4 6 3 3 16 13 14 16 18 21 23 22
28 20 20 24 25 26 11 10 10 12 11 16 13 12 15 13 11 8 10 9 9 11 11 10 13 7 7 5 5 7 6 4 8 10 11 16 12 20 21 21 21 20 17 19 22
25 17 20 26 28 27 13 9 13 15 13 13 15 13 15 15 13 13 11 12 10 11 12 9 9 8 8 9 9 11 10 12 12 10 12 13 15 22 20 19 18 19 20 22 23
20 18 15 12 23 25 17 13 7 17 14 12 10 15 15 14 14 14 11 12 10 13 13 11 9 9 9 9 8 9 10 10 13 17 18 17 15 18 20 21 19 20 23 23 27
23 17 18 26 22 23 20 14 13 9 9 11 12 14 12 12 10 9 8 7 6 9 10 10 9 8 5 9 8 5 10 6 8 11 13 14 18 19 20 21 20 21 23 27 32

GFSSW_700_spd_009.txt.gz
Wind_Speed
30 31 31 31 29 26 22 18 17 16 15 16 15 12 12 12 13 15 9 11 11 11 12 13 15 17 19 21 21 16 7 10 18 17 20 11 13 14 13 7 5 2 1 8 11
30 30 31 28 26 22 20 18 16 15 15 14 11 10 10 10 9 8 10 11 8 13 15 14 15 18 21 23 21 10 3 5 17 11 15 15 16 16 12 6 4 5 4 4 4
29 30 28 25 21 18 18 17 16 14 12 10 11 9 8 6 5 5 5 7 13 19 18 17 17 19 20 24 13 2 1 1 17 17 9 15 15 8 9 8 1 6 4 1 2
29 27 24 19 17 15 15 14 14 12 10 11 11 10 9 9 5 5 9 17 17 17 19 15 11 14 19 22 13 8 8 11 23 15 22 20 13 10 5 5 2 2 7 7 5
26 24 20 15 13 13 13 12 12 12 12 13 12 12 12 10 12 13 17 17 12 10 12 10 8 7 11 11 8 9 13 12 14 21 16 17 11 7 6 4 6 2 3 7 10
21 19 15 12 11 12 11 11 12 12 15 15 15 17 15 14 14 14 17 10 8 12 5 5 9 4 6 7 8 18 16 10 8 12 15 13 10 10 6 2 2 3 2 3 6
17 15 12 10 9 11 11 12 13 15 16 17 21 15 13 13 13 16 13 14 13 10 6 11 6 0 1 14 15 11 7 6 15 18 16 13 10 9 6 2 2 2 2 1 3
14 11 9 8 10 13 13 14 16 18 19 19 20 12 12 13 17 15 14 12 10 8 8 9 3 7 9 20 21 9 6 9 13 13 14 12 7 12 8 8 5 4 4 7 7
10 9 8 10 12 14 16 17 18 18 18 22 15 8 11 14 20 12 11 11 9 5 3 9 8 19 17 17 16 11 10 6 6 9 7 10 1 13 13 12 9 7 8 10 11
8 8 10 13 15 19 20 19 18 16 21 19 10 7 5 12 20 14 9 9 10 6 8 7 7 10 8 5 7 6 10 10 12 7 11 7 8 10 14 14 12 13 14 15 15
9 10 15 19 23 22 21 17 15 17 23 14 7 5 8 8 22 16 12 10 9 13 13 11 5 4 5 5 4 5 11 18 20 17 16 16 15 20 20 19 19 20 22 22 22
12 16 23 26 24 23 18 15 15 17 15 11 7 7 10 9 14 18 14 14 15 13 11 6 4 2 3 6 4 6 1 12 12 12 12 15 17 20 20 19 18 22 18 16 19
18 24 27 27 25 22 18 17 17 13 10 12 8 8 5 9 15 14 16 14 13 8 7 5 6 6 7 8 4 12 14 16 15 7 9 16 12 12 14 17 16 14 13 12 10
24 29 29 27 24 21 20 19 15 11 8 10 10 8 5 9 12 16 13 9 5 8 8 7 9 11 11 5 3 14 13 13 10 10 16 12 7 15 18 17 14 13 10 8 2
30 30 29 29 22 22 18 19 16 8 3 10 10 14 13 11 13 17 10 7 7 12 7 7 6 7 6 6 6 9 9 8 10 12 13 10 7 20 19 18 17 14 10 8 5
32 31 29 27 25 23 21 21 13 0 2 8 11 15 14 11 8 19 10 10 10 7 6 9 8 7 6 6 9 9 8 8 4 5 3 11 6 22 29 26 21 16 12 9 11
32 29 30 26 25 23 24 21 6 4 13 11 13 16 14 10 9 18 14 15 11 13 11 7 5 5 12 8 5 8 10 2 1 1 4 2 7 6 27 21 17 14 11 9 6
32 29 31 27 24 25 24 16 5 6 10 13 17 16 12 15 12 15 14 13 11 9 13 5 4 5 12 10 5 7 7 4 5 3 2 1 1 2 26 14 14 12 12 10 9
32 30 29 29 25 24 21 12 2 10 9 21 18 18 13 12 12 13 12 12 10 11 7 7 4 4 8 9 7 4 5 4 6 4 2 2 4 8 17 19 20 21 14 18 22
32 31 28 31 25 25 20 6 4 10 19 21 20 13 18 12 15 14 10 9 14 13 18 8 7 10 9 8 6 5 5 1 2 3 1 4 7 9 21 22 22 22 22 22 19
31 31 29 28 27 27 20 7 7 11 17 19 19 16 10 17 13 12 8 8 13 13 14 12 7 12 9 5 8 5 2 2 3 2 5 2 6 16 21 23 22 21 17 16 18
31 29 29 27 27 29 23 8 9 7 16 13 17 10 12 19 16 12 10 7 10 12 13 12 9 11 7 8 6 4 3 3 1 4 4 2 5 9 17 22 19 17 16 17 21
31 28 29 28 31 32 22 8 12 9 12 15 11 12 14 19 17 14 11 8 8 9 13 13 10 10 5 6 7 6 6 5 3 5 7 3 4 11 19 21 19 19 21 24 25
31 28 29 31 31 33 20 11 13 10 10 13 14 11 15 15 10 10 10 9 10 11 14 15 14 10 11 6 9 8 10 9 9 8 9 15 13 13 20 24 24 24 23 23 23
34 26 33 35 34 30 22 13 13 11 13 15 13 14 15 15 12 11 10 11 11 11 13 15 11 13 9 8 8 10 13 15 17 16 15 17 18 18 22 26 27 28 24 23 23
32 22 30 14 31 32 23 15 14 12 11 11 13 16 15 14 14 10 14 13 12 13 15 15 8 12 11 11 12 13 14 16 18 19 21 22 24 22 23 24 26 25 24 24 25
30 24 27 19 31 34 26 18 10 13 16 12 9 11 13 13 11 8 10 8 10 11 14 13 11 12 6 11 11 13 18 16 14 17 17 21 19 19 18 20 25 25 26 28 31

GFSSW_700_spd_012.txt.gz
Wind_Speed
30 31 32 33 33 32 29 25 20 16 14 14 15 16 15 12 12 13 8 10 14 11 10 10 13 15 17 18 17 15 9 7 14 12 11 11 10 13 16 9 9 5 4 7 13
30 31 32 33 33 30 26 21 17 14 13 14 14 13 9 9 9 5 10 13 12 10 11 13 14 15 18 19 15 17 6 6 9 11 15 0 10 18 15 10 5 5 4 10 12
29 30 32 33 31 26 21 18 14 12 11 12 12 9 7 3 2 4 6 7 8 12 16 15 15 18 19 20 17 9 2 3 13 6 9 8 18 20 12 8 2 6 3 9 8
29 30 31 31 26 20 17 15 11 10 11 12 9 8 5 6 4 4 6 9 15 17 14 11 13 16 17 21 18 2 4 10 9 10 12 10 20 13 5 1 6 7 12 10 9
28 29 30 27 20 16 13 11 9 10 13 11 9 8 9 9 8 8 11 17 13 11 10 8 7 7 10 16 9 5 10 11 19 14 13 16 16 6 5 5 4 5 10 15 19
27 28 27 21 16 12 10 10 9 12 13 12 11 13 14 15 12 11 16 12 8 10 8 6 6 5 8 11 10 7 9 10 17 18 12 16 13 7 6 5 5 4 8 13 13
26 26 22 15 13 10 9 10 11 13 13 13 15 16 15 13 13 17 13 12 13 11 8 9 9 8 4 7 7 14 13 12 14 19 17 11 9 8 6 4 7 12 6 9 6
24 20 16 12 9 9 10 11 12 14 14 16 19 16 13 13 14 16 13 13 13 10 9 10 4 5 7 14 17 12 6 11 15 18 15 11 8 10 7 4 4 8 7 6 6
18 14 11 9 8 8 9 11 12 13 15 19 18 10 10 13 18 14 14 12 10 8 8 7 6 7 11 19 16 10 6 6 10 10 8 12 3 14 9 7 6 7 7 9 9
13 9 9 9 9 11 12 14 14 15 16 18 14 9 6 11 19 13 13 10 6 6 7 9 6 18 18 19 13 11 11 10 8 9 8 8 12 1 14 11 12 12 12 11 12
10 8 10 11 13 15 16 14 13 13 18 14 9 4 8 11 21 14 13 14 12 5 10 9 9 12 11 10 7 4 7 12 13 14 13 15 12 9 13 14 16 15 15 16 17
11 11 13 16 19 18 16 14 12 12 18 9 7 8 9 11 22 14 14 14 13 9 13 10 7 7 5 2 1 5 8 7 9 16 16 14 12 14 16 18 17 17 19 20 20
13 16 19 22 20 17 15 13 12 14 11 9 7 8 6 6 26 15 14 11 12 10 9 10 6 4 2 3 2 5 8 8 15 14 8 9 7 10 16 18 17 16 12 11 6
17 21 25 24 20 15 15 15 11 10 7 11 8 7 5 12 16 16 13 9 10 9 9 6 5 4 5 5 4 9 5 6 12 12 8 11 5 10 14 15 13 9 7 6 8
23 27 27 23 18 15 17 16 12 11 3 12 12 8 9 11 13 14 10 7 10 12 11 7 6 5 5 5 5 8 6 6 6 6 8 11 4 14 16 16 15 13 12 12 8
28 30 27 25 19 18 19 17 12 3 3 10 13 13 12 7 13 15 10 10 12 9 7 6 7 7 7 7 9 10 8 4 2 5 2 11 9 14 26 26 23 19 16 12 7
33 30 29 24 19 21 22 17 7 4 10 10 14 14 11 9 10 16 12 15 11 10 9 8 6 9 8 8 8 9 9 1 2 0 4 6 10 15 16 26 24 18 15 11 8
34 30 30 25 20 23 21 17 6 4 12 12 14 16 12 11 10 18 15 14 11 9 11 7 4 7 10 11 5 9 11 5 5 3 4 6 6 7 13 23 19 15 13 14 12
34 31 31 28 22 23 22 18 2 6 6 13 18 17 12 13 10 15 15 15 12 10 7 8 5 7 9 12 7 5 5 8 2 2 1 4 6 6 10 23 22 22 22 20 18
34 31 30 30 24 23 23 16 4 6 10 19 17 15 15 14 11 13 13 12 12 12 13 6 5 7 8 8 9 6 7 2 2 2 2 3 6 9 13 26 25 27 24 21 21
35 33 30 31 27 25 26 18 6 6 17 21 17 13 13 15 12 13 8 7 11 14 15 12 8 8 9 5 9 8 4 3 2 1 5 1 5 7 13 16 17 20 21 22 24
37 35 32 33 28 28 29 17 8 7 19 18 17 13 12 17 16 15 11 7 10 13 13 14 8 11 12 8 9 7 6 5 3 3 3 2 7 8 12 19 21 22 22 23 21
36 36 33 31 31 29 32 15 9 9 14 15 16 17 10 13 16 15 12 9 7 12 12 13 7 8 5 8 12 10 9 8 6 7 7 2 5 7 7 12 22 25 24 22 24
35 32 33 33 32 33 33 16 10 10 10 11 12 12 12 15 18 9 13 10 8 9 12 14 9 11 11 4 9 12 12 11 9 6 7 17 18 16 15 14 17 22 27 27 25
37 33 36 35 35 33 34 14 13 12 12 11 12 11 12 13 13 9 9 10 10 10 12 13 10 17 11 9 10 11 12 14 16 16 16 19 21 16 19 18 20 23 26 29 28
39 30 34 21 33 34 36 19 17 14 10 11 12 13 13 11 10 9 10 12 10 10 12 13 9 11 14 13 13 14 16 18 20 21 23 23 25 20 19 19 22 24 26 29 28
37 33 27 32 25 35 38 23 17 15 11 9 8 14 15 13 11 9 9 9 9 10 10 13 13 9 8 14 15 15 20 21 23 23 22 23 19 17 17 18 19 20 23 26 27

GFSSW_700_spd_015.txt.gz
Wind_Speed
27 27 30 30 32 32 31 31 28 22 16 14 14 13 13 14 12 10 5 13 15 12 10 12 14 13 14 16 19 14 10 9 14 16 17 14 11 11 8 7 9 7 3 6 12
28 27 30 31 32 32 31 29 22 18 13 14 13 13 11 8 7 7 13 11 11 10 9 12 14 13 14 17 18 16 7 7 8 12 8 12 14 9 9 8 7 4 6 10 15
27 27 30 31 32 32 28 23 17 13 13 13 11 10 7 4 3 2 6 8 8 9 12 14 14 15 18 19 16 16 4 7 10 7 6 8 9 12 11 8 3 1 8 15 16
26 26 29 30 32 30 22 17 14 11 13 12 9 7 5 5 5 4 4 7 8 9 12 11 12 16 20 19 16 10 4 12 15 12 12 11 6 9 12 4 8 10 8 11 13
24 24 28 28 29 24 18 14 12 12 12 10 8 7 8 9 6 4 5 8 11 11 9 8 8 12 13 16 11 7 1 13 11 18 16 9 7 8 7 5 8 13 17 19 21
24 23 27 27 24 18 14 13 11 10 10 10 9 11 13 11 11 11 13 14 12 10 9 8 9 7 10 12 13 4 6 6 17 18 15 11 9 7 6 7 8 13 20 20 20
23 23 26 23 18 14 11 12 11 10 10 11 11 13 14 11 13 14 13 8 7 10 8 8 9 18 10 7 11 8 10 5 10 22 18 11 14 9 7 10 9 12 16 15 16
22 23 23 18 13 11 9 11 10 10 11 11 13 15 13 12 16 16 10 9 10 9 9 12 17 14 10 7 13 12 10 7 10 18 16 17 15 11 10 13 13 11 11 10 10
21 21 18 13 9 8 8 10 9 10 11 14 18 16 14 11 18 12 10 10 11 6 9 11 11 10 12 16 17 11 9 9 14 16 17 12 6 12 12 13 10 11 9 9 9
20 18 13 9 8 8 9 10 10 12 14 20 16 9 8 11 19 15 9 9 9 10 12 6 6 6 16 20 12 12 10 13 13 12 9 11 6 7 11 10 10 11 11 10 10
18 15 11 9 9 10 11 11 11 11 16 14 13 6 8 11 20 15 11 9 5 9 6 11 10 8 10 15 11 8 7 11 12 11 11 8 8 5 3 13 13 12 14 14 15
16 12 11 10 12 12 13 13 11 10 16 10 9 8 8 13 22 16 15 12 13 8 13 13 15 12 8 9 8 7 5 8 13 14 12 12 10 10 9 12 17 16 16 15 17
16 13 13 13 15 15 14 11 10 13 14 6 6 7 8 10 22 15 13 11 11 6 12 11 9 11 8 5 4 3 1 3 6 16 16 11 9 10 12 16 19 17 16 14 12
17 16 17 20 19 16 13 13 10 14 8 9 8 7 6 12 24 17 17 10 15 9 11 10 10 6 4 4 3 3 2 3 6 13 5 11 5 12 15 18 19 18 14 10 10
19 20 23 24 20 17 15 14 12 13 3 9 11 6 9 12 23 17 12 10 12 15 12 8 8 5 3 2 2 5 5 6 10 7 6 11 5 12 18 20 20 17 14 14 16
23 26 29 27 21 18 16 14 12 6 4 11 16 10 11 7 17 17 15 12 14 13 10 9 7 6 4 2 2 4 6 7 7 6 3 10 14 13 20 22 23 20 19 19 18
28 31 30 27 22 19 17 15 8 4 8 11 18 14 12 11 16 17 13 15 11 10 8 7 6 5 5 5 5 7 9 2 1 2 4 8 10 20 8 16 23 23 20 21 19
33 35 32 26 24 21 18 16 6 5 13 11 17 16 12 11 15 17 14 15 11 9 11 8 3 6 9 10 5 8 11 5 5 3 2 6 7 9 11 17 20 20 21 21 18
38 37 35 28 25 22 19 18 7 6 13 15 16 18 13 11 9 16 15 14 12 10 6 8 6 8 6 11 9 7 9 12 4 1 1 5 8 12 12 15 23 27 25 22 20
39 37 34 31 26 23 20 19 11 6 10 13 15 16 14 13 8 13 14 14 12 11 10 7 5 8 8 10 11 8 7 4 5 3 3 4 8 13 6 10 22 28 28 26 22
41 38 34 33 28 25 25 25 9 7 12 15 17 15 13 15 9 12 9 7 12 12 12 11 8 7 9 9 10 10 9 5 4 3 3 2 5 2 3 7 12 14 20 22 21
44 39 36 34 30 30 27 25 9 8 17 19 17 10 12 13 14 12 11 6 6 12 14 14 8 7 12 8 10 11 9 8 4 4 5 3 7 3 2 6 13 17 18 22 23
45 36 37 35 34 30 29 26 14 10 15 18 17 14 10 12 16 15 13 11 9 9 11 14 9 6 4 10 14 14 14 12 10 8 7 4 4 2 8 6 11 20 24 25 26
43 32 38 35 35 32 29 27 15 11 11 13 15 16 15 10 14 12 17 12 10 10 14 14 15 11 14 6 9 18 18 16 13 7 9 17 20 17 16 12 9 16 19 24 28
43 33 42 40 37 34 29 27 17 12 10 13 12 12 13 11 16 15 12 13 12 11 13 15 15 16 15 12 9 12 14 16 18 18 16 20 21 16 17 15 11 13 19 23 26
38 34 35 18 35 32 31 26 22 13 11 11 11 12 12 10 11 10 7 9 11 11 13 14 11 14 15 16 14 15 16 18 20 23 26 25 25 17 15 15 15 14 14 18 23
36 30 31 38 22 34 34 33 20 16 12 11 11 13 13 11 10 9 9 10 10 11 11 13 14 11 8 14 16 15 23 24 25 24 24 26 21 20 19 16 16 15 14 16 21

GFSSW_700_spd_018.txt.gz
Wind_Speed
26 27 27 26 26 27 29 31 32 30 21 17 16 13 12 11 13 11 6 14 15 13 11 11 13 12 10 13 15 15 10 12 12 11 10 12 9 10 10 6 3 7 7 5 10
27 27 27 26 25 27 28 30 30 23 17 13 14 13 11 10 10 9 11 11 11 11 10 11 12 12 13 15 17 13 10 9 9 11 10 9 10 10 5 6 5 8 5 11 13
27 26 26 26 24 27 28 28 25 19 14 11 12 11 9 8 7 5 7 7 6 10 12 13 13 14 12 17 19 12 8 7 9 11 6 10 17 12 5 8 6 4 4 16 17
27 25 25 24 24 27 28 25 21 16 13 11 11 8 7 6 5 4 3 7 9 7 8 10 12 14 12 14 15 13 8 6 12 11 9 13 10 5 8 4 4 6 6 15 18
27 23 24 23 25 27 25 21 18 14 11 10 9 8 8 8 6 4 3 4 5 8 8 7 8 11 12 13 15 11 3 8 16 16 15 7 5 5 8 5 7 13 15 15 17
25 22 23 23 25 26 22 18 16 12 10 9 10 11 11 10 7 5 8 12 12 10 9 9 10 10 12 11 11 7 1 8 23 19 12 8 5 6 10 11 14 19 20 21 19
23 21 22 23 24 23 17 15 13 10 9 8 10 11 13 11 10 9 10 9 6 5 5 6 8 9 9 6 10 8 5 10 18 19 18 10 6 8 10 16 18 22 23 23 21
21 21 22 23 23 18 14 12 11 8 8 9 11 13 14 12 13 12 9 5 4 7 10 13 13 13 10 13 10 8 9 8 8 17 15 13 12 12 10 18 19 20 19 20 21
20 20 21 21 19 13 11 10 8 6 8 10 13 15 14 11 16 12 6 4 6 7 9 14 19 15 10 8 10 13 9 9 12 17 14 11 9 13 15 17 20 20 19 17 16
19 19 19 19 15 10 8 9 7 7 10 14 14 12 11 12 18 10 3 6 10 5 8 12 13 12 14 15 14 10 8 13 12 14 13 11 8 15 15 17 17 18 18 17 14
19 19 16 15 13 10 11 10 9 9 12 14 14 5 10 12 18 10 5 8 4 6 5 7 8 6 13 14 5 7 7 12 13 16 13 15 14 9 15 16 17 17 17 16 16
19 17 15 13 12 11 12 11 10 9 16 10 13 8 7 11 20 12 7 14 5 10 9 7 7 8 9 13 9 4 10 11 15 16 14 13 13 12 11 12 18 17 17 16 16
20 16 15 14 12 13 13 11 9 11 15 8 9 9 8 11 23 12 7 8 8 7 7 11 12 9 4 8 7 8 7 7 8 22 19 13 11 14 15 13 17 20 20 18 17
21 16 16 16 17 17 14 12 10 12 8 7 7 7 9 9 23 17 11 9 20 5 10 5 8 11 10 5 6 5 5 1 1 15 13 19 11 15 17 15 16 21 22 19 17
22 18 19 21 22 19 17 13 12 16 5 9 10 8 9 13 19 20 15 9 13 17 11 10 12 9 6 6 6 6 5 5 7 7 7 11 11 6 14 16 19 23 23 20 17
24 23 25 26 23 20 20 15 15 9 5 10 16 9 13 9 21 18 13 11 12 18 14 12 12 9 7 6 5 6 7 8 7 5 8 9 11 10 11 15 20 24 22 20 19
27 27 29 30 26 22 23 17 9 9 5 10 16 13 12 10 18 18 15 14 10 12 11 10 10 8 6 5 6 6 8 5 6 6 8 7 9 19 13 16 18 21 24 22 22
30 32 36 33 29 24 24 19 9 10 9 11 18 15 12 12 16 21 16 14 16 13 13 13 7 7 9 10 6 9 9 7 5 5 4 4 8 7 14 20 18 18 20 22 23
35 37 41 34 29 27 25 19 11 9 13 13 19 17 12 15 13 20 15 14 16 13 9 8 4 7 7 9 9 8 9 11 5 5 4 10 11 14 16 15 16 22 26 26 25
38 41 41 37 30 28 27 18 12 9 15 15 18 17 16 15 11 18 17 16 15 13 9 7 4 8 8 8 11 10 6 3 6 3 4 4 9 7 6 11 15 24 27 27 27
42 45 44 39 33 30 26 22 20 9 16 16 16 14 15 15 12 14 12 11 17 13 11 10 8 6 9 9 9 12 9 8 5 3 3 3 2 3 3 6 6 13 22 27 28
49 45 46 41 37 33 26 27 19 12 16 18 16 13 14 14 14 10 12 13 12 15 14 14 9 7 9 11 14 15 11 11 8 5 5 2 7 5 2 3 8 13 18 25 28
53 37 46 43 35 34 26 30 24 12 16 19 20 13 14 15 11 15 14 13 10 8 11 16 9 6 3 6 13 13 16 16 14 11 8 4 5 7 9 10 8 14 21 24 26
52 34 46 45 34 34 30 28 24 14 17 21 19 18 13 13 14 10 16 13 12 11 10 12 16 11 13 5 6 12 21 20 14 8 9 16 13 13 16 13 12 13 20 24 28
54 34 42 51 44 32 29 29 22 18 16 18 18 19 17 15 13 17 15 16 14 12 12 15 13 19 19 16 14 13 12 18 22 19 14 14 15 12 13 16 16 17 16 21 26
46 31 37 28 44 30 31 25 24 20 18 18 13 15 15 14 11 12 16 14 13 12 15 16 13 16 18 19 18 18 17 18 19 21 24 23 24 19 18 17 19 19 17 18 22
45 26 38 26 43 38 35 29 25 21 17 15 13 13 14 13 11 9 11 10 10 12 13 16 15 10 7 15 17 16 24 25 25 25 25 22 20 23 20 19 19 19 18 18 19

GFSSW_700_spd_021.txt.gz
Wind_Speed
23 23 23 25 27 27 28 28 29 30 29 26 20 14 14 12 11 13 13 16 16 12 11 11 11 10 10 11 14 12 13 19 14 17 13 8 9 8 6 11 1 5 2 6 6
23 23 24 25 26 26 27 28 29 30 25 22 16 12 12 11 11 11 12 12 12 11 9 9 9 9 11 11 12 14 13 14 12 6 11 11 6 10 5 6 10 4 6 4 7
23 24 23 24 25 25 28 28 29 27 20 18 13 11 11 9 7 6 8 8 7 8 9 8 10 11 11 11 13 14 12 8 7 5 5 5 10 10 11 13 12 9 7 8 12
23 23 23 24 24 25 28 29 28 23 17 15 12 10 9 6 5 10 6 5 7 7 8 10 11 10 11 13 14 11 11 4 7 7 4 8 11 5 12 6 10 10 8 14 16
23 23 23 23 22 25 28 29 25 19 14 13 11 10 8 7 3 6 5 3 5 4 9 10 9 9 9 11 13 10 5 7 9 9 11 9 7 5 6 8 7 10 14 16 18
23 22 22 23 21 24 28 26 20 15 12 11 10 10 9 6 7 4 2 7 10 10 9 10 6 8 9 11 12 8 7 6 11 12 8 8 6 4 7 7 10 14 15 15 15
24 22 21 22 20 23 26 22 16 11 9 9 10 10 10 11 7 3 7 7 7 7 5 8 8 7 6 6 10 6 4 10 12 13 10 7 7 1 6 7 12 15 15 15 14
24 23 21 21 19 22 23 17 12 8 7 8 10 9 11 9 8 6 4 2 3 5 10 13 12 10 8 9 7 5 10 14 12 14 11 11 11 7 10 11 12 13 14 15 14
24 22 21 20 17 20 18 13 8 6 7 9 10 11 7 9 9 7 4 2 4 7 10 10 9 12 6 7 8 11 17 15 12 15 11 12 14 11 9 14 14 14 16 16 15
24 22 21 19 16 17 14 9 7 7 9 11 12 9 7 7 10 7 2 3 2 4 5 5 6 7 10 12 13 17 16 12 12 14 14 11 6 10 11 16 16 15 15 16 17
24 22 20 18 14 13 12 8 5 5 12 15 9 5 8 11 15 7 4 6 1 3 3 7 9 6 10 15 5 9 7 11 10 12 13 13 7 10 15 16 18 17 17 16 17
25 22 20 17 14 11 12 9 11 11 10 11 16 9 8 11 12 10 7 7 6 6 6 9 14 11 9 12 7 3 6 11 9 12 11 12 13 11 15 16 17 18 19 19 18
27 23 19 16 14 11 12 11 10 9 10 8 13 13 7 9 14 12 10 10 9 11 9 11 1 4 7 8 10 5 7 9 9 14 12 12 17 17 17 18 19 19 19 19 20
28 24 19 16 14 13 13 13 11 11 7 11 10 10 9 10 16 13 11 7 13 5 4 4 10 3 4 4 6 9 7 8 5 15 22 20 18 20 19 21 20 20 22 20 19
29 26 21 19 15 20 19 16 14 15 6 12 12 9 10 11 18 18 13 8 12 5 10 2 8 10 9 6 9 5 7 6 7 14 11 16 14 18 22 19 16 17 20 22 22
31 27 24 21 22 22 21 17 17 11 7 11 13 12 10 13 16 16 14 11 6 11 11 8 10 6 3 6 6 5 4 6 9 15 10 19 17 16 15 15 14 15 19 21 22
34 29 24 26 30 27 24 18 12 17 8 12 17 13 13 12 18 15 19 16 14 15 16 11 9 11 7 4 5 6 8 12 11 9 9 8 10 19 14 6 12 19 16 20 22
37 33 29 33 33 30 27 23 14 18 13 9 17 14 15 12 14 20 17 20 19 16 17 17 12 13 11 10 6 9 13 12 6 7 12 5 9 6 10 11 8 18 19 18 20
40 36 35 38 35 33 30 21 22 13 15 13 16 17 15 14 11 17 20 20 17 19 18 14 8 9 9 7 7 9 12 10 7 6 10 17 20 12 9 10 9 18 20 20 20
42 36 35 42 39 35 30 27 21 13 14 14 20 19 17 16 14 18 18 16 12 16 14 5 5 4 8 7 9 10 4 6 10 5 9 10 9 3 3 6 10 18 21 22 21
43 38 40 46 40 38 32 29 22 15 12 16 20 16 16 16 16 18 16 11 16 16 15 11 11 5 6 10 12 8 13 11 7 6 4 4 3 3 4 5 10 15 20 22 22
47 38 48 49 45 37 34 29 17 15 13 14 17 14 16 16 17 15 19 13 14 14 14 14 10 13 12 11 12 10 11 12 10 8 5 3 13 10 4 0 6 11 18 21 23
51 34 43 49 44 36 28 27 22 16 14 16 18 14 13 15 15 16 14 16 11 14 13 13 11 12 11 11 11 12 13 13 11 11 10 5 6 3 8 11 8 9 15 20 23
41 36 47 57 40 32 33 32 24 19 15 16 16 15 13 14 14 11 13 14 15 15 12 13 15 16 16 9 2 10 13 15 17 13 14 18 15 10 10 9 9 11 13 18 23
43 41 47 56 49 35 33 27 28 22 15 17 17 19 16 13 13 11 12 14 16 15 14 13 11 15 18 13 12 11 12 14 20 22 20 19 15 13 14 15 14 15 15 16 23
43 42 35 31 46 31 35 30 32 23 19 20 17 19 16 14 15 11 13 14 13 16 15 15 9 15 16 14 16 15 16 17 18 20 21 23 23 19 18 16 16 14 19 18 21
42 37 38 34 48 37 36 29 32 24 21 18 18 17 15 15 15 12 15 13 10 11 13 12 15 10 8 9 9 14 21 22 21 20 20 22 22 17 15 15 14 14 18 19 20

GFSSW_700_spd_024.txt.gz
Wind_Speed
22 23 22 23 25 25 26 26 27 28 30 32 28 23 16 11 11 12 12 16 14 12 10 12 11 8 7 10 11 11 17 20 22 24 12 21 14 8 3 11 6 9 10 8 6
23 22 22 23 24 25 26 25 26 28 30 28 24 18 13 10 10 13 14 13 12 9 8 9 8 7 8 9 12 15 16 19 12 10 6 16 11 2 2 5 3 9 15 8 7
22 23 22 22 24 25 25 25 26 28 28 25 20 13 10 8 7 6 11 9 6 5 8 4 4 6 10 11 13 15 22 12 12 6 15 8 2 8 11 15 14 15 6 6 10
22 23 23 22 24 24 24 24 26 28 26 21 17 11 9 4 6 7 9 7 4 6 7 10 9 10 9 13 13 16 15 12 7 7 11 6 11 10 2 18 8 10 9 7 13
22 23 23 23 23 24 23 24 26 27 22 18 14 10 7 5 7 9 9 6 2 6 8 5 7 7 9 10 11 14 9 9 6 10 10 9 2 4 4 14 14 10 8 13 11
23 22 23 22 23 23 23 22 25 23 17 15 11 8 6 5 1 7 4 3 5 8 9 7 4 6 12 10 12 11 9 6 6 9 7 6 6 12 17 12 11 13 12 13 13
23 22 22 22 22 22 22 21 21 17 12 11 8 7 6 7 8 3 5 7 8 9 3 5 6 5 3 6 6 6 6 7 7 8 8 5 7 12 12 15 13 10 12 12 11
23 23 22 22 21 21 20 19 17 12 9 8 6 5 4 7 6 5 4 3 3 3 10 7 13 12 9 4 4 6 4 9 11 9 8 3 4 7 11 12 13 12 9 10 13
24 23 21 21 20 20 19 16 13 10 7 6 4 4 5 7 7 3 2 3 9 7 7 8 7 8 5 6 8 7 11 11 10 16 8 10 10 8 12 11 15 14 12 11 13
25 22 21 20 20 19 17 12 9 8 7 4 5 4 6 3 4 6 6 5 3 5 3 4 4 5 6 10 8 11 14 15 13 13 14 13 9 11 14 15 15 16 14 14 13
26 22 21 20 19 17 14 7 4 6 8 7 6 5 4 6 10 8 7 4 1 3 1 2 6 6 10 10 10 13 15 17 13 13 12 13 14 12 15 17 16 11 13 15 14
28 24 21 20 18 17 12 8 6 12 9 14 12 16 12 8 11 10 8 6 2 3 5 6 7 9 9 11 13 14 9 10 7 8 12 13 13 15 18 19 19 18 18 18 12
29 25 22 19 18 15 12 11 13 8 8 8 13 17 7 10 13 13 12 12 10 9 7 4 11 11 13 10 13 12 2 12 6 8 11 6 16 17 17 18 18 19 20 19 19
30 27 23 21 17 13 8 13 10 7 5 9 16 18 13 13 16 8 13 11 11 11 13 15 13 10 6 8 11 8 7 7 7 14 11 13 12 4 10 18 23 23 23 23 22
33 29 25 23 16 15 18 15 11 9 4 8 13 10 13 17 15 17 11 9 8 8 12 6 10 10 7 5 2 2 7 9 14 11 6 12 10 24 30 25 25 24 27 27 24
35 31 29 24 18 23 16 17 13 6 7 9 15 14 14 17 16 15 15 12 7 14 11 8 10 3 10 7 5 3 5 8 11 15 3 22 22 10 25 19 13 19 21 25 30
38 34 31 26 22 26 21 20 10 11 8 11 16 14 16 16 17 20 17 16 14 12 10 9 11 8 6 7 5 8 9 11 6 8 4 17 10 12 12 17 19 15 25 24 26
41 38 35 29 30 28 26 23 14 11 19 3 15 16 17 14 19 20 16 19 19 16 12 13 12 15 10 11 5 10 13 4 4 3 11 6 6 1 8 10 5 19 21 21 20
44 42 41 32 32 35 32 29 19 14 20 12 15 19 19 17 14 18 20 21 18 21 15 8 9 5 5 8 5 7 6 7 11 17 5 7 21 11 4 1 4 13 17 17 17
46 45 40 35 37 38 36 33 25 20 7 15 19 19 18 19 14 16 20 18 16 10 17 9 9 20 9 9 9 10 8 5 5 2 4 11 17 4 2 2 2 12 15 18 18
45 45 39 38 42 44 43 35 23 17 15 11 21 18 19 16 16 15 16 12 12 11 13 9 19 6 4 7 10 7 9 12 11 7 1 3 4 6 3 1 3 9 17 20 22
49 47 45 44 47 50 40 34 27 19 18 15 17 20 19 16 17 15 15 18 14 13 9 11 8 10 13 9 7 9 8 11 10 8 4 3 14 11 9 4 6 7 14 20 23
54 43 33 44 55 46 41 32 31 22 18 20 18 17 17 15 14 16 11 12 13 9 10 8 7 12 13 12 10 15 14 14 9 11 10 5 6 8 10 13 12 7 9 17 22
50 40 33 49 53 43 42 31 31 26 19 19 19 16 15 16 16 14 14 14 11 12 16 14 11 14 13 15 5 12 13 13 15 13 14 20 19 12 15 10 8 11 10 13 19
47 46 43 56 62 44 36 29 32 28 24 20 21 22 17 15 16 13 14 12 15 16 15 15 12 13 17 18 9 12 10 10 16 18 20 20 17 15 13 10 9 10 11 15 14
63 44 44 19 55 45 41 41 35 30 24 20 20 21 19 14 15 14 14 15 13 16 16 16 10 11 17 14 16 16 17 16 18 17 19 20 20 16 15 18 19 13 12 17 16
60 47 30 33 47 49 48 39 34 30 27 22 23 18 20 15 16 15 9 14 8 13 16 11 12 13 8 8 10 14 19 19 20 18 18 20 19 16 16 17 11 14 12 16 20

GFSSW_700_spd_027.txt.gz
Wind_Speed
21 21 21 21 23 24 23 24 25 26 27 28 28 23 19 12 9 10 10 15 11 11 9 10 8 7 7 10 12 6 17 21 15 24 10 16 13 7 2 4 7 10 11 14 6
21 21 20 20 22 23 23 23 25 26 26 28 26 20 16 9 7 9 10 11 10 6 5 6 7 6 8 7 8 9 16 22 16 17 14 14 7 13 15 10 13 11 7 7 9
22 21 20 20 22 23 23 23 24 25 26 26 22 18 12 8 6 7 11 11 7 3 7 7 10 5 5 1 5 8 16 13 21 15 22 9 5 1 8 12 14 13 14 12 12
23 22 21 20 20 22 23 22 23 24 26 23 18 14 9 5 3 6 11 8 4 2 6 9 10 3 10 6 4 14 16 17 9 10 10 6 8 8 6 11 12 6 13 12 12
24 22 21 20 20 21 22 22 22 23 23 18 13 10 7 3 6 10 9 6 2 4 8 11 7 3 7 6 10 12 14 10 4 2 3 11 12 4 9 9 9 10 12 12 11
25 23 21 20 19 20 21 21 21 22 20 14 10 8 4 2 6 4 6 4 3 5 10 13 7 6 17 15 11 12 11 8 3 3 1 8 7 5 11 13 11 8 13 9 11
25 23 21 21 19 19 20 20 20 19 15 11 8 6 2 6 7 3 9 7 4 15 15 8 7 11 9 12 1 1 7 3 5 6 5 5 8 9 14 12 17 11 17 12 11
27 24 21 21 18 18 19 19 19 16 11 9 7 4 1 3 3 5 9 4 9 6 8 3 9 13 10 3 1 3 2 5 8 8 4 4 7 8 7 10 14 11 9 15 10
30 25 22 21 18 18 18 17 17 13 9 8 5 2 1 4 4 6 3 7 7 12 5 12 4 6 5 4 2 5 6 9 9 13 10 9 10 6 8 11 15 11 5 17 12
31 26 24 21 18 17 16 15 15 12 8 6 4 3 3 6 9 3 2 1 6 8 2 2 2 7 4 5 2 6 8 11 14 19 13 11 9 12 13 11 15 10 7 10 13
31 27 24 21 19 17 15 13 13 12 10 8 9 8 13 8 7 8 4 6 5 1 3 3 3 2 6 8 7 11 11 16 18 12 12 18 11 18 17 14 17 16 13 9 8
30 27 24 21 20 16 14 11 19 18 12 11 12 18 18 14 10 11 11 5 3 2 2 5 10 1 8 7 11 17 17 22 6 13 12 7 17 17 17 20 20 18 10 16 12
28 28 25 23 20 16 13 9 15 14 16 10 14 19 12 7 13 14 16 6 8 1 5 9 7 7 5 10 17 15 5 13 2 2 10 7 8 21 17 17 19 19 13 17 17
27 28 26 25 20 16 11 11 12 11 8 9 13 18 18 5 10 16 18 15 12 10 8 15 9 11 11 12 7 11 11 5 3 5 4 8 2 10 14 19 18 18 18 23 22
30 29 27 27 20 18 15 14 11 6 3 1 13 3 19 15 9 15 9 16 8 11 9 3 17 13 16 14 7 8 10 7 14 10 11 9 5 11 21 24 21 24 25 23 25
34 30 32 28 21 18 16 15 14 6 7 9 11 15 13 13 14 12 14 10 6 13 8 5 3 7 16 8 9 4 5 7 10 7 5 15 15 7 17 24 28 29 28 26 24
37 33 33 30 23 24 22 19 12 7 7 12 19 17 16 18 14 17 23 21 14 9 19 15 15 10 4 9 5 8 12 4 3 5 4 17 9 21 15 19 27 14 20 29 33
39 37 35 31 31 26 25 25 13 10 15 7 17 14 16 18 15 17 27 21 20 19 9 10 5 4 10 13 8 10 11 2 4 2 6 17 6 6 5 16 15 13 16 27 29
42 41 41 34 33 30 32 32 22 18 22 12 14 19 19 16 16 21 22 21 23 20 20 12 5 12 12 3 5 8 10 8 5 5 3 8 15 10 10 12 12 18 21 28 28
47 44 41 35 36 35 41 36 27 23 15 14 16 20 18 19 21 22 23 24 23 22 21 16 6 12 19 11 11 14 11 4 4 4 4 5 6 9 5 4 8 14 18 20 21
49 44 41 39 39 41 51 39 33 31 16 9 19 19 20 20 23 15 22 24 19 13 13 5 6 3 21 14 12 13 12 9 10 4 4 1 1 2 2 2 2 13 18 18 19
51 48 42 46 47 52 56 51 41 31 21 13 15 24 22 19 23 18 21 25 17 20 15 15 5 12 19 8 11 10 7 6 13 6 3 2 8 17 13 4 6 4 11 17 21
54 45 30 44 53 57 52 50 45 34 25 12 21 20 22 12 12 21 18 15 20 21 13 15 6 7 11 12 12 14 14 19 14 10 13 5 5 4 18 15 12 9 5 12 16
54 40 47 43 54 56 52 52 50 40 24 16 18 21 21 12 21 24 17 15 17 16 18 17 11 10 10 9 10 8 11 12 15 13 11 15 18 22 11 18 10 10 7 6 10
61 48 53 55 58 53 48 49 50 44 34 21 20 28 19 15 18 13 18 15 11 9 11 13 17 17 15 16 15 9 11 8 13 15 19 18 15 10 14 4 10 5 5 5 8
63 56 57 39 56 53 43 56 54 44 31 27 21 23 22 17 19 20 15 15 14 15 15 14 14 14 14 17 19 16 15 18 17 14 15 12 16 11 16 11 11 9 11 9 8
62 54 49 50 26 55 59 55 46 43 29 25 19 21 22 23 20 18 21 15 15 13 18 17 16 15 13 14 14 14 21 18 15 18 17 16 14 15 17 11 9 9 11 15 21

GFSSW_700_spd_030.txt.gz
Wind_Speed
21 21 20 20 19 20 22 22 23 24 24 25 26 24 18 15 9 7 8 9 13 11 8 7 7 7 7 8 10 7 8 7 7 14 13 11 10 11 13 25 13 7 8 7 7
21 21 20 19 20 20 21 21 23 23 24 25 24 21 16 12 7 7 7 10 9 7 6 6 8 8 4 4 9 10 13 8 5 9 17 18 11 8 18 12 17 12 11 10 10
22 21 21 20 20 20 21 21 22 23 23 24 23 18 13 9 6 5 6 11 7 4 3 6 9 8 5 9 9 7 8 3 4 9 16 17 8 6 10 17 14 6 12 21 9
25 24 22 21 20 20 21 20 21 22 22 22 18 14 9 7 2 5 9 8 5 2 4 8 9 5 7 8 2 10 9 7 12 13 7 7 3 5 3 7 8 10 7 9 18
28 26 24 22 20 20 20 20 20 21 21 19 14 11 7 5 5 6 6 5 2 2 6 9 10 5 7 16 17 17 2 8 4 7 6 1 7 5 5 7 9 7 10 12 15
29 28 25 23 21 20 20 20 19 19 19 15 11 9 6 5 2 4 4 4 1 5 14 11 2 2 11 10 9 12 7 2 5 8 4 6 7 3 10 11 8 9 12 15 13
30 28 25 23 21 19 19 19 19 18 18 13 9 7 5 5 3 4 9 14 9 16 12 3 4 5 8 6 1 7 9 7 9 9 3 9 6 9 8 10 10 11 15 13 8
31 29 26 23 22 20 18 18 18 17 17 11 7 5 5 7 2 7 8 12 11 10 8 5 7 8 8 4 6 1 5 7 12 10 2 3 8 8 4 11 12 12 12 12 5
30 30 27 24 22 20 18 18 18 17 15 10 6 3 2 3 2 10 5 5 5 4 6 8 6 6 5 3 2 4 3 8 16 10 6 11 9 9 8 8 12 12 12 11 7
26 29 27 25 23 20 19 18 17 18 15 9 6 5 5 9 10 5 6 3 4 8 3 5 6 7 7 3 10 6 6 3 7 7 18 17 11 12 11 7 10 12 17 10 6
22 25 25 25 23 20 18 18 16 19 14 11 8 12 16 14 12 8 7 2 3 2 5 5 5 4 6 7 7 3 2 18 20 13 22 15 13 14 14 13 16 16 12 10 4
22 19 23 25 23 20 18 16 17 18 16 13 13 18 18 15 13 11 8 5 5 3 1 2 0 3 4 11 3 8 15 16 15 11 13 23 16 18 18 18 15 14 12 8 7
23 19 21 23 24 21 16 15 22 16 17 10 12 17 18 14 11 19 14 9 5 3 3 9 2 6 10 11 13 16 17 12 8 4 10 5 18 23 21 20 20 18 14 13 9
27 21 19 24 24 20 17 18 15 13 11 9 13 17 24 13 13 20 18 15 12 9 11 11 7 9 12 10 9 12 7 9 7 2 1 3 4 23 22 23 24 24 21 22 18
31 25 20 25 23 20 19 16 14 8 4 3 12 9 23 20 9 22 15 19 18 14 16 7 9 13 11 11 9 9 11 11 6 3 4 4 4 11 23 24 27 22 26 28 25
34 30 26 24 23 22 19 17 14 7 9 11 14 14 25 21 15 19 13 16 14 10 8 6 6 1 4 9 6 6 7 8 7 7 2 6 5 7 16 22 30 30 27 26 31
39 34 29 24 26 25 22 18 12 8 8 14 18 17 17 18 22 19 18 16 15 12 17 11 9 4 4 7 7 6 7 4 3 1 4 5 5 11 12 16 22 27 28 28 24
43 39 33 27 31 28 26 22 14 11 16 7 21 18 19 18 18 21 18 18 18 16 6 13 3 11 8 7 8 8 11 5 4 2 4 10 7 6 15 14 14 19 20 23 31
45 44 41 29 35 32 32 34 19 18 24 17 24 24 20 20 18 22 24 19 24 24 23 9 9 10 15 12 4 2 4 6 5 3 1 5 3 15 8 8 15 21 18 23 25
50 48 46 34 39 35 40 43 29 25 13 21 22 23 21 21 24 23 24 13 23 18 18 22 13 15 14 19 16 15 7 3 4 3 3 4 5 5 5 2 6 15 20 21 20
51 50 49 41 41 41 53 43 41 34 21 9 17 17 24 21 25 27 21 23 21 19 20 25 22 12 14 19 24 14 14 12 12 4 4 1 3 5 5 6 4 2 5 12 14
53 50 51 48 46 51 57 49 46 41 34 21 14 11 23 21 25 26 20 21 15 21 21 20 13 10 16 10 9 11 13 14 9 6 6 3 9 10 7 6 9 5 5 6 13
55 43 35 51 55 59 55 52 47 45 40 33 22 11 13 27 22 21 25 21 18 21 28 23 13 11 16 17 16 17 15 13 14 13 14 8 7 9 9 15 15 11 5 6 7
54 43 38 48 60 59 60 56 52 46 46 35 25 20 14 17 11 18 25 18 23 19 26 21 18 19 19 13 10 8 11 11 13 10 14 18 16 16 21 15 16 16 10 9 13
52 50 58 61 68 65 56 56 56 55 47 39 30 26 17 14 11 17 18 23 25 24 23 21 20 18 17 17 17 12 9 11 13 11 9 15 21 13 12 9 5 10 13 11 13
53 48 54 47 63 65 61 60 56 51 47 43 32 24 19 22 14 24 18 23 23 21 19 17 19 22 23 21 21 21 19 16 18 17 18 12 9 9 13 9 8 9 15 17 15
49 52 45 49 53 64 72 63 56 51 47 44 32 21 20 22 16 18 16 19 17 13 15 17 18 16 18 16 15 16 26 26 24 26 22 21 12 8 13 14 13 11 12 11 13

GFSSW_700_spd_033.txt.gz
Wind_Speed
24 23 20 20 20 20 21 22 23 24 25 24 23 22 19 15 12 7 9 9 10 8 7 7 8 7 5 5 4 9 10 5 3 8 10 12 10 10 12 17 15 11 15 10 8
24 22 20 20 20 20 21 22 23 23 24 23 22 19 16 13 9 6 6 9 9 7 4 5 7 6 4 4 7 11 8 4 6 8 13 16 13 13 16 16 17 15 10 10 4
24 22 21 21 21 21 21 21 22 23 23 22 20 15 13 10 8 5 6 9 7 5 1 3 4 3 6 8 7 8 8 5 3 9 11 14 8 7 7 9 9 7 7 13 15
25 25 24 23 22 22 22 22 22 22 22 21 18 12 9 9 3 9 10 7 4 2 3 5 5 6 6 6 5 13 10 11 8 5 7 10 3 5 2 4 5 2 9 8 14
29 28 27 26 25 23 23 22 21 21 21 20 16 11 8 8 7 6 6 2 2 5 8 9 6 5 4 5 7 7 12 3 7 4 5 4 1 2 4 5 7 4 17 23 20
32 30 29 27 26 24 23 22 21 20 20 18 14 9 8 6 4 2 2 6 6 9 12 8 2 1 3 3 6 12 3 7 6 6 3 2 2 3 2 8 10 13 16 15 16
32 30 29 27 27 25 23 22 20 20 19 17 13 9 7 5 4 2 0 11 12 10 7 8 2 3 4 3 3 6 8 6 0 9 8 3 1 1 6 8 8 9 12 13 16
28 30 29 27 27 25 23 22 20 20 18 17 12 8 5 2 4 7 7 12 12 10 4 6 5 6 5 2 4 1 10 3 5 9 6 6 5 6 5 5 8 11 12 11 12
20 24 27 26 27 25 23 22 21 20 17 15 11 8 5 5 7 10 8 8 8 6 8 13 9 5 4 3 4 4 4 6 12 7 5 3 7 11 7 5 7 10 10 8 9
17 17 21 26 25 25 24 22 22 19 18 14 11 8 9 10 15 15 10 8 5 3 0 4 6 7 9 4 7 3 1 4 2 8 11 16 13 10 11 8 6 10 10 11 11
25 24 24 24 25 24 23 23 21 20 20 14 9 14 12 13 15 13 10 6 5 5 0 6 3 3 7 6 3 2 4 5 1 7 20 16 17 16 11 13 10 6 10 11 14
25 23 25 24 24 25 22 23 23 23 20 16 15 17 17 18 17 14 13 10 6 7 3 4 2 3 6 6 5 2 11 5 11 12 14 15 18 22 15 15 13 7 6 8 9
24 20 19 20 19 22 23 24 21 19 21 15 17 17 22 18 17 19 15 11 7 8 5 1 4 3 6 8 9 11 14 5 10 9 10 8 16 21 20 19 19 19 13 8 7
28 24 21 21 20 20 24 21 17 16 12 12 16 16 28 22 19 17 20 15 12 10 7 7 7 9 13 11 9 14 9 7 8 5 3 7 4 23 26 23 26 25 24 22 13
33 28 25 23 17 20 22 17 15 12 3 4 14 12 27 24 9 24 23 19 18 14 9 11 9 16 17 15 10 13 8 6 6 4 5 3 3 5 23 26 26 26 28 27 24
38 32 29 25 20 21 19 16 13 8 8 8 15 17 28 28 12 25 22 18 16 16 13 8 3 8 8 9 11 6 8 6 7 7 1 2 2 6 15 24 21 22 27 29 30
42 36 33 27 20 22 21 19 13 10 9 14 21 18 23 30 22 22 26 22 22 16 16 9 9 11 7 7 8 5 5 3 3 2 4 4 6 14 14 15 21 21 23 24 27
47 42 37 32 25 27 26 23 16 9 18 11 20 17 19 28 24 24 23 22 20 18 9 9 4 12 7 4 5 5 4 2 3 3 4 4 6 12 11 13 15 15 20 26 28
53 48 44 38 31 32 34 37 18 19 25 11 23 24 23 24 21 24 25 24 22 19 14 7 5 6 10 9 9 8 2 6 3 2 1 4 8 10 11 9 9 10 11 14 16
58 53 51 40 35 36 41 43 29 29 13 22 20 26 28 25 25 27 26 25 24 23 24 19 13 13 12 13 14 10 10 4 4 2 3 4 5 8 4 4 4 9 13 16 17
60 56 57 45 41 41 55 52 28 32 20 13 17 23 28 26 27 26 25 24 18 25 28 22 19 14 13 19 23 26 20 14 11 6 4 1 5 8 8 4 3 4 2 6 10
62 60 59 53 47 53 59 49 40 39 35 21 19 17 25 28 27 27 29 27 21 23 22 22 15 20 22 15 9 19 13 12 11 7 9 7 13 10 12 14 10 8 8 7 4
61 52 35 52 54 62 56 56 51 46 46 39 21 17 16 23 32 27 27 26 26 19 26 24 16 14 11 14 11 13 15 18 18 19 14 8 10 7 11 12 18 18 12 11 7
54 42 41 44 64 60 61 53 55 49 48 45 39 22 15 15 23 29 28 26 28 26 18 24 24 19 18 18 19 16 14 17 19 16 18 23 24 18 18 21 18 16 13 13 10
55 46 53 57 70 66 57 57 53 53 50 48 46 40 23 16 17 19 23 26 27 23 24 30 23 23 19 15 18 19 20 15 17 19 21 21 20 16 20 16 10 10 12 15 15
58 49 48 50 63 70 54 61 56 55 39 47 49 42 28 22 16 18 17 22 30 23 25 31 17 18 16 18 22 26 26 25 22 21 22 20 18 13 14 19 14 12 14 18 19
61 45 47 55 47 54 79 67 64 53 55 43 41 42 32 25 15 13 20 20 26 27 31 27 24 20 21 21 21 23 27 30 33 31 26 27 25 22 22 18 17 15 15 18 19

GFSSW_700_spd_036.txt.gz
Wind_Speed
25 24 23 21 21 21 21 22 22 23 23 24 22 21 17 13 10 7 7 8 12 11 8 6 7 5 3 3 6 8 6 6 2 4 7 10 8 10 10 11 10 9 8 9 9
23 22 22 21 20 20 22 22 23 22 22 23 21 20 15 11 8 7 6 9 10 8 5 4 3 2 4 5 6 6 4 5 5 8 11 11 8 10 13 15 14 11 8 7 9
23 22 21 21 21 21 22 22 23 22 22 21 19 17 13 9 9 5 7 9 8 5 2 1 4 3 3 1 2 4 8 12 5 8 8 9 5 8 7 7 4 5 7 9 12
26 25 24 23 23 23 23 23 23 23 22 21 18 16 12 9 4 7 6 6 5 2 3 5 6 6 6 5 4 8 6 6 4 2 4 4 4 3 5 5 1 3 6 12 15
31 30 28 27 26 26 25 24 24 23 21 20 17 14 11 9 6 5 4 5 3 4 9 7 3 8 7 4 2 8 7 4 2 5 4 5 6 6 6 4 2 5 6 13 12
32 31 30 29 29 28 26 26 26 23 21 18 17 13 11 8 6 3 3 4 6 9 9 5 2 1 4 4 3 5 1 6 4 4 1 4 3 4 8 10 5 7 16 14 8
31 30 30 31 30 29 27 27 25 22 21 18 16 12 10 8 4 3 1 4 9 13 6 2 1 1 4 1 1 2 6 5 4 2 3 3 4 5 7 7 11 7 5 17 19
26 28 29 30 30 29 27 26 25 22 21 18 15 11 9 5 8 6 5 7 9 9 4 7 7 6 5 2 3 2 9 4 6 7 3 3 6 5 5 1 5 5 10 13 16
21 22 24 27 28 27 27 25 25 22 21 20 15 12 9 10 11 11 10 8 8 9 8 12 13 10 8 3 5 3 3 7 9 11 4 5 6 0 5 3 4 5 8 10 11
21 20 20 19 20 22 26 25 25 23 22 21 17 13 12 13 17 16 14 12 10 7 4 7 8 9 9 3 4 6 5 4 2 4 10 6 10 7 4 4 6 7 8 9 11
25 22 22 24 23 16 25 26 23 24 24 22 16 11 10 16 15 16 14 13 9 8 3 1 1 3 8 6 7 4 4 4 3 3 13 13 6 13 10 7 6 10 13 14 15
32 31 27 25 21 28 23 27 23 24 26 21 19 18 19 19 21 21 18 15 11 9 5 3 2 5 7 5 5 3 8 6 5 9 13 13 9 10 14 8 3 8 12 12 9
32 29 28 26 30 28 33 25 19 23 25 24 23 21 23 22 23 22 21 16 10 12 8 6 3 5 8 11 8 4 8 8 9 10 5 7 12 17 18 19 13 12 10 11 5
36 31 27 26 24 22 21 22 16 21 17 24 19 23 28 27 27 23 22 18 14 13 10 8 8 10 8 11 9 9 6 9 7 7 0 5 2 12 20 23 21 16 17 16 15
40 36 31 29 25 19 18 15 11 10 3 7 16 15 27 31 16 27 24 21 18 15 12 8 8 12 14 13 8 11 5 5 2 5 5 3 2 4 14 25 25 25 21 19 19
44 40 36 32 28 19 16 15 13 10 8 6 12 19 27 33 17 23 26 23 18 18 17 16 12 11 18 12 10 8 8 7 4 5 1 6 3 7 11 12 15 22 21 22 22
49 44 40 35 28 23 17 15 12 13 12 12 15 19 25 34 25 20 31 28 22 16 20 19 11 8 9 7 6 7 4 3 1 2 4 5 6 13 16 17 13 14 21 20 21
55 50 45 40 31 28 26 26 17 10 26 8 18 20 26 30 28 23 30 28 23 22 10 14 11 13 9 6 6 4 3 3 2 2 3 3 6 13 11 11 14 14 12 18 18
59 55 51 45 35 32 32 35 20 13 20 20 17 22 25 30 29 28 26 32 27 24 21 9 11 8 10 9 5 5 5 4 3 3 1 4 9 12 10 9 7 4 3 7 9
62 60 57 48 40 39 41 46 30 23 13 30 17 20 27 27 29 33 29 32 27 23 23 14 8 10 8 9 10 10 7 4 3 2 3 4 5 7 12 4 9 8 5 5 4
63 62 61 51 45 42 54 50 43 27 26 16 26 17 25 29 31 26 28 17 31 25 23 23 21 19 13 13 11 14 17 13 9 4 4 1 6 10 10 6 5 7 6 5 6
59 63 62 54 48 54 59 53 43 41 33 21 18 20 25 26 30 33 29 35 19 26 28 23 14 22 24 19 17 16 17 18 16 5 8 7 18 17 14 11 16 13 9 7 4
50 53 43 52 54 64 52 53 47 46 40 39 23 22 19 20 25 28 31 33 31 21 26 25 18 19 15 17 17 11 11 13 12 13 14 5 13 5 8 16 13 16 17 11 10
51 42 36 40 64 68 58 47 55 50 44 42 39 19 19 15 19 25 27 26 28 27 22 27 25 22 21 23 14 16 15 14 13 12 17 22 27 22 20 20 17 17 17 15 14
52 44 53 53 66 73 61 54 53 55 52 47 47 42 26 13 12 23 27 30 27 23 26 28 30 28 26 21 19 16 19 19 20 21 22 24 24 21 18 18 19 13 12 15 15
52 46 48 57 66 67 48 60 50 55 45 56 48 43 42 27 10 17 19 26 26 25 25 28 25 27 27 25 20 19 21 22 23 27 28 24 26 24 20 15 15 17 15 14 15
55 56 49 55 53 63 79 60 51 52 56 42 40 40 44 37 19 14 17 18 20 25 28 26 30 26 23 21 19 24 30 29 31 31 31 31 30 24 25 24 22 21 18 18 18

GFSSW_700_spd_039.txt.gz
Wind_Speed
25 24 23 22 21 20 19 18 17 18 19 19 19 19 17 13 10 7 6 6 8 9 8 5 5 2 3 5 5 3 4 5 5 3 8 9 8 7 5 5 6 8 11 10 12
25 24 23 22 22 21 20 18 18 18 19 18 19 18 16 11 10 7 6 6 7 6 4 2 2 1 4 4 3 3 4 4 6 10 13 13 9 9 7 9 11 13 12 12 12
26 24 24 22 21 21 21 20 19 19 19 19 17 17 15 11 10 5 7 6 5 4 2 1 4 3 3 5 4 3 6 7 2 7 9 10 7 3 5 5 3 5 8 12 12
29 27 25 24 22 22 22 22 22 19 20 20 17 16 14 10 7 7 6 4 3 0 3 4 5 5 5 2 3 4 5 4 4 6 5 4 7 6 6 6 4 6 8 11 10
31 30 29 28 27 26 25 25 24 22 21 20 17 16 14 10 9 7 4 3 3 4 6 6 6 6 4 1 1 6 6 1 6 1 5 3 4 5 3 2 2 3 6 8 11
31 31 31 30 30 29 28 27 26 23 22 20 17 17 14 10 8 6 3 2 7 8 8 6 7 6 4 2 1 2 2 3 6 4 4 7 7 6 6 9 4 9 11 10 8
28 29 31 31 31 30 30 29 27 24 22 20 17 16 14 11 9 7 4 5 10 12 9 8 7 3 5 3 2 3 6 5 6 2 3 5 7 4 5 7 7 6 7 14 12
27 25 26 28 30 31 30 30 28 24 22 20 17 16 13 10 11 9 6 8 11 11 9 10 8 5 5 6 5 3 4 3 7 4 2 4 6 5 5 3 4 7 10 10 23
26 25 23 24 25 26 28 29 27 24 22 21 17 16 13 12 13 13 11 12 11 11 10 10 11 7 8 9 5 1 2 7 5 8 5 4 4 5 5 2 2 6 11 12 17
29 26 23 22 21 21 22 25 26 24 22 22 18 17 15 13 18 18 16 14 12 11 9 8 9 9 10 10 6 6 3 1 1 5 12 8 8 3 2 2 3 6 7 12 14
31 29 26 22 19 15 17 17 22 24 20 23 16 10 12 16 20 21 18 16 14 11 8 3 4 7 8 8 9 8 6 6 2 4 7 11 11 3 3 2 4 7 11 13 17
35 32 28 26 24 24 20 19 18 23 28 28 24 21 19 18 22 23 22 21 18 14 9 5 4 3 9 9 8 5 4 2 5 3 7 11 11 7 5 1 7 8 13 15 16
40 36 33 33 32 27 24 25 26 25 25 32 26 26 20 25 24 28 25 21 18 16 11 9 5 4 9 12 9 6 4 3 3 4 4 5 9 10 9 8 10 11 13 15 15
44 39 35 32 29 26 25 25 24 17 17 29 26 27 23 28 28 29 27 22 20 17 13 9 7 6 8 11 12 10 3 5 3 2 2 3 2 6 9 15 15 15 16 15 13
48 43 39 36 28 25 22 22 16 10 5 8 17 25 21 33 25 33 28 26 23 18 17 10 3 8 14 13 13 7 8 4 3 3 2 3 2 5 6 9 9 15 18 18 18
53 48 43 40 31 26 22 19 15 10 8 6 9 18 25 33 26 31 31 29 24 20 16 14 11 10 13 14 14 12 8 6 4 4 2 6 5 4 6 9 10 10 15 18 21
55 52 48 42 35 29 24 18 14 11 9 10 13 18 25 36 33 25 36 35 29 23 22 17 16 12 7 14 12 12 8 2 2 2 3 5 4 5 8 11 14 14 12 13 17
58 55 53 47 38 32 29 24 17 11 21 5 16 18 25 32 32 23 35 36 32 23 18 17 7 10 10 13 10 10 10 5 3 3 1 4 5 2 8 10 10 11 13 14 16
59 59 58 51 42 36 34 36 21 22 15 24 7 17 22 29 30 30 28 38 35 31 17 11 9 12 11 12 12 11 9 8 4 2 1 3 5 8 6 3 2 3 6 8 11
45 60 63 54 46 41 42 46 36 31 17 19 19 15 22 28 27 32 25 31 34 29 24 15 7 12 14 14 12 10 6 4 4 3 3 3 4 5 7 1 5 7 5 0 3
37 44 66 56 50 46 54 53 45 33 29 18 16 14 17 26 32 31 23 14 35 32 25 23 15 10 10 10 12 12 13 10 8 5 3 2 5 7 10 10 8 6 8 6 4
45 50 55 52 51 58 65 53 41 42 31 33 19 22 16 21 27 34 35 29 15 32 30 23 11 20 22 17 17 15 14 17 12 7 8 6 13 15 7 7 9 8 6 8 7
50 46 39 38 53 63 65 55 48 37 43 34 31 19 21 15 20 27 31 31 20 28 28 25 22 16 12 13 18 18 18 14 17 17 14 7 8 5 5 10 16 18 13 13 12
51 42 34 36 62 71 58 50 47 47 41 46 33 22 18 13 17 16 27 28 26 30 19 21 28 24 23 21 14 15 14 17 18 15 17 22 24 15 15 15 17 18 16 15 15
59 36 52 52 60 71 66 63 60 53 52 44 44 40 27 16 11 21 21 25 27 33 32 31 27 25 26 22 22 21 22 18 22 21 21 23 24 21 20 17 15 15 16 13 12
50 46 57 31 63 65 46 54 56 56 50 56 49 42 37 29 11 14 20 20 24 26 30 33 30 25 27 25 26 27 23 21 21 23 26 27 32 25 24 19 17 14 12 16 16
68 55 52 64 40 53 72 53 45 47 57 42 50 41 41 38 25 19 11 11 14 18 24 30 29 28 23 25 24 27 30 26 26 28 33 36 36 27 24 22 21 20 19 19 20

GFSSW_700_spd_042.txt.gz
Wind_Speed
25 24 24 23 22 21 20 18 17 15 14 15 15 15 16 14 10 8 6 6 7 7 6 2 2 1 1 5 7 5 3 3 1 2 6 13 11 8 7 8 9 10 11 8 9
25 25 24 24 24 23 21 20 17 16 14 16 15 15 15 14 11 9 7 7 6 4 2 0 3 2 2 4 2 2 2 1 3 6 8 10 11 9 8 8 11 15 15 15 15
28 25 24 24 24 24 22 21 19 17 16 16 16 15 15 13 11 10 8 8 4 2 2 3 5 3 3 3 1 2 2 5 6 7 5 11 13 7 5 6 10 13 10 14 14
30 29 28 26 26 23 24 23 21 19 18 17 17 15 15 13 5 6 8 6 4 3 3 5 6 5 4 2 2 4 6 9 9 8 4 1 6 8 7 8 8 9 10 11 14
31 30 30 30 30 28 27 25 24 21 20 19 18 16 15 13 12 12 8 7 5 5 6 7 6 7 3 3 5 4 8 5 7 2 6 5 3 7 5 2 4 7 11 11 13
28 30 31 31 31 32 30 29 27 25 22 21 19 17 16 14 12 11 9 7 6 8 8 8 8 8 7 6 5 8 4 2 4 7 3 3 5 4 2 4 6 6 5 6 5
27 27 28 30 31 32 32 31 30 28 25 22 20 18 16 14 13 11 10 9 9 12 10 8 8 8 9 6 8 6 1 2 2 4 4 2 4 3 2 4 5 5 2 6 8
28 27 27 27 29 30 31 31 31 28 26 23 20 18 16 14 12 13 12 11 12 12 11 9 8 6 7 10 7 5 5 3 5 7 2 4 6 6 3 3 4 5 6 11 20
30 28 27 26 26 27 26 28 30 29 26 23 21 18 17 16 14 16 14 14 15 14 11 9 8 8 9 8 9 8 6 8 6 7 5 2 5 7 5 3 3 4 7 10 22
33 31 29 28 26 24 22 22 24 25 24 23 22 17 17 12 15 18 17 17 17 14 11 10 9 8 10 10 14 9 7 4 3 5 8 8 6 7 2 3 6 5 5 10 15
37 34 32 29 27 24 19 14 17 21 23 23 13 16 11 12 17 22 21 19 17 15 10 10 8 10 10 12 11 8 8 7 4 5 8 9 9 7 4 2 0 9 8 10 14
40 37 34 31 28 25 20 19 19 21 21 20 22 25 20 18 19 26 25 23 21 15 13 10 9 8 11 12 10 8 8 7 7 9 7 8 9 7 5 2 3 5 13 15 15
44 41 38 35 31 27 24 23 21 25 29 33 32 33 26 25 24 29 30 26 22 17 15 12 7 7 9 12 10 9 7 6 5 7 9 12 9 7 8 8 8 9 11 15 17
49 45 41 38 35 30 28 25 22 21 21 34 39 29 32 29 29 26 31 27 24 21 16 13 14 9 8 11 12 12 7 5 7 6 7 6 6 7 10 9 13 15 14 12 16
53 50 45 41 38 31 28 23 19 15 8 8 15 21 28 35 26 31 32 33 23 22 22 16 14 13 11 12 11 12 8 8 5 8 5 6 8 6 6 7 10 16 19 19 16
56 53 49 45 39 32 28 21 15 8 10 5 9 14 25 30 27 24 36 35 24 21 21 16 16 11 10 14 13 12 8 8 5 7 8 6 7 5 6 6 6 8 12 23 22
52 57 54 48 39 35 30 22 13 17 7 8 11 14 19 28 26 27 39 39 30 25 24 20 18 13 11 11 15 12 9 10 8 7 7 5 7 12 6 8 9 12 16 15 25
45 54 56 52 42 38 33 26 20 17 28 5 10 11 17 21 23 24 32 35 32 26 20 23 17 19 14 15 16 16 14 9 4 5 4 5 7 2 6 9 9 9 11 13 18
34 42 57 53 45 41 36 34 31 27 16 26 5 10 16 21 21 21 30 37 33 30 22 22 18 12 13 14 14 12 13 11 5 5 5 7 8 11 1 3 4 5 8 12 16
31 38 54 55 45 43 44 51 35 25 27 17 19 11 17 22 23 26 26 29 31 30 24 12 15 15 18 17 15 11 11 7 9 5 6 5 7 3 4 3 0 4 3 3 8
30 35 48 53 41 44 45 62 46 29 30 20 21 16 12 19 27 26 22 16 34 31 30 18 14 11 18 18 16 15 11 10 7 6 5 5 7 8 8 7 7 6 4 4 3
37 42 43 43 46 54 57 58 29 37 32 31 22 14 16 17 25 26 31 25 13 29 36 26 15 14 18 15 15 14 14 13 11 8 8 8 16 14 16 14 9 4 6 6 4
46 46 38 34 55 50 68 47 39 29 36 30 26 25 20 17 16 24 23 28 19 21 31 30 19 19 15 15 17 15 16 16 15 17 16 10 9 4 6 6 10 13 14 13 11
50 47 31 32 47 65 62 41 46 36 34 31 27 29 22 23 19 13 25 26 30 22 28 29 24 27 21 20 14 15 18 18 17 13 15 17 16 14 15 16 15 16 16 17 17
61 47 51 53 48 63 57 44 41 43 42 31 32 31 25 21 19 24 20 25 24 31 27 33 27 26 24 21 21 21 21 18 19 18 19 18 20 19 18 19 19 19 16 17 18
65 49 52 44 47 60 69 55 44 50 36 43 34 36 30 23 14 10 19 20 22 29 30 32 23 19 19 20 24 24 23 22 22 21 21 22 26 21 22 24 24 22 20 17 18
65 57 41 52 46 54 59 73 45 39 46 33 36 29 43 37 18 14 18 15 9 10 30 32 30 23 24 21 19 25 29 25 23 24 24 25 25 23 23 25 24 23 22 23 18

GFSSW_700_spd_045.txt.gz
Wind_Speed
25 24 24 25 25 24 23 21 20 20 18 17 15 14 14 14 14 11 11 9 9 8 8 4 2 3 1 4 5 5 7 8 2 5 3 8 7 10 12 12 12 13 17 12 10
27 26 23 23 24 24 24 23 22 21 20 18 16 15 14 15 15 12 11 10 10 6 6 2 2 2 2 3 4 5 11 3 4 7 8 9 9 7 11 11 13 17 15 17 17
28 29 26 25 23 23 23 24 22 21 21 19 18 16 15 15 15 12 9 10 10 6 5 4 5 4 4 3 3 2 7 6 7 9 9 8 8 10 8 16 19 15 13 17 21
29 30 28 28 26 27 24 23 23 22 21 20 20 19 16 13 2 11 9 10 9 7 5 5 6 5 4 4 2 5 7 8 11 10 5 8 7 10 5 8 10 13 13 12 16
27 29 28 29 29 28 28 27 25 25 23 23 22 22 18 15 13 14 14 12 10 8 7 7 6 5 7 6 5 7 7 8 8 6 5 6 5 12 10 8 9 8 9 13 13
28 28 27 28 30 29 29 28 28 27 27 26 25 24 21 17 18 14 13 12 11 10 9 9 6 9 7 9 8 6 8 5 4 5 4 6 5 3 8 10 9 12 12 9 7
29 28 28 27 28 29 28 28 29 29 29 28 27 26 24 17 17 15 12 13 12 12 10 10 9 6 7 6 10 8 10 10 3 8 9 7 15 2 4 6 5 5 7 3 4
31 30 29 27 27 27 26 27 29 29 28 27 26 27 26 21 18 14 14 14 14 14 13 13 11 11 10 9 8 9 11 8 7 9 7 7 20 8 5 3 4 3 4 9 5
34 32 30 28 26 25 24 25 27 26 26 26 27 24 26 22 18 15 15 15 14 16 14 11 10 10 10 10 12 14 9 10 11 8 5 6 12 10 6 5 3 4 6 9 13
37 35 33 30 28 24 24 23 24 24 23 23 25 22 22 15 14 16 16 19 17 17 15 12 10 11 12 15 19 11 14 10 6 13 7 9 8 1 6 5 5 6 8 9 7
40 37 35 32 30 27 24 22 21 19 23 20 14 21 22 16 19 17 19 20 18 16 15 12 13 16 13 16 17 10 10 10 6 4 4 10 9 5 6 7 8 9 10 8 7
44 41 38 35 31 29 25 22 23 23 27 21 19 27 19 19 16 20 22 23 21 20 16 14 16 12 11 12 12 10 11 12 6 7 7 9 12 4 7 8 10 11 12 13 13
48 44 41 38 34 30 28 24 22 24 30 32 26 25 24 25 23 20 24 24 21 20 19 18 5 10 8 10 12 12 13 5 9 7 11 13 14 11 9 10 11 12 13 15 17
48 48 45 40 35 33 29 26 22 22 21 25 32 33 34 33 36 26 26 26 23 23 20 19 15 9 10 13 13 14 12 9 9 13 10 9 2 14 14 13 13 14 15 16 18
40 48 48 43 43 32 32 25 19 15 8 7 19 21 20 37 22 34 30 30 28 23 23 21 17 15 14 14 13 13 6 8 10 14 16 13 12 12 14 14 15 17 17 17 19
35 39 48 48 43 35 31 24 15 9 16 10 12 11 19 23 24 14 33 31 26 23 22 21 15 16 15 14 14 12 9 10 10 13 13 15 14 18 12 11 12 14 17 20 21
36 35 40 49 43 32 28 22 14 23 11 21 13 12 15 17 29 25 34 35 35 32 31 24 21 19 15 13 14 14 14 14 11 8 10 9 8 7 7 4 7 7 10 17 23
36 35 35 42 40 41 27 30 25 27 38 4 12 15 16 18 28 29 31 38 36 31 23 26 25 24 19 19 18 19 19 11 5 7 7 7 7 7 3 4 7 9 11 15 19
37 38 37 37 40 40 36 36 54 44 16 36 8 13 17 19 21 30 35 37 38 36 31 24 26 13 24 18 21 21 26 18 9 10 7 11 8 11 7 5 4 5 6 7 13
36 39 40 34 34 42 45 38 45 38 33 20 36 14 17 20 25 32 34 35 36 36 28 19 16 18 16 17 21 18 19 17 16 6 9 14 13 2 6 3 3 1 2 3 4
32 37 41 36 32 41 47 55 51 34 25 34 25 32 19 20 27 28 27 18 34 33 32 26 18 19 17 22 22 23 15 18 12 16 6 7 6 5 3 6 7 7 7 4 2
37 45 34 36 39 45 49 65 51 33 34 32 27 28 27 18 24 28 30 30 22 32 33 30 19 18 22 21 23 21 25 23 20 17 13 12 20 13 12 13 13 11 9 7 6
47 44 43 35 48 49 52 66 50 41 38 34 31 24 23 22 18 25 25 27 15 31 33 30 28 21 20 18 20 21 19 19 20 16 18 12 13 8 9 8 8 10 11 12 13
53 47 32 41 45 40 54 61 57 42 36 37 36 27 23 22 20 10 25 21 25 18 32 32 27 31 25 27 22 25 23 23 23 18 19 22 22 14 13 12 13 14 14 12 13
64 44 54 54 54 54 51 51 53 57 45 32 38 36 34 27 21 22 12 21 25 29 27 30 36 30 30 25 19 24 25 26 29 26 26 22 20 17 15 16 14 14 12 17 19
64 49 55 39 53 47 44 52 48 51 51 47 36 35 33 30 24 23 18 16 15 26 33 26 29 32 34 27 25 24 25 26 26 25 26 25 25 20 18 18 20 19 21 21 22
71 65 40 52 40 46 48 49 58 45 49 49 42 33 34 28 19 15 21 26 20 11 21 28 27 29 27 26 26 30 28 27 25 26 24 27 24 19 20 20 20 20 20 20 24

GFSSW_700_spd_048.txt.gz
Wind_Speed
26 27 25 23 23 23 23 22 21 21 20 19 19 18 18 17 17 16 14 12 11 10 8 6 2 1 1 5 7 10 15 15 12 1 6 6 9 12 7 13 15 13 13 11 6
27 28 27 26 25 23 23 21 21 21 21 19 19 18 18 18 17 17 15 12 11 9 7 4 1 4 7 6 7 11 15 10 12 11 11 12 11 22 19 10 22 21 9 8 12
28 28 27 27 27 26 24 22 21 21 20 19 19 18 17 18 17 19 7 8 10 8 7 6 6 9 9 9 11 10 15 12 14 13 12 14 14 18 12 16 19 19 23 10 15
27 26 27 28 27 27 25 26 23 22 20 20 19 19 19 17 6 19 11 10 11 8 7 6 6 8 9 12 9 11 12 13 14 16 13 14 15 12 9 16 12 12 9 15 16
28 27 26 27 26 26 26 27 26 26 23 23 21 21 19 21 17 23 14 15 14 10 8 7 7 8 12 13 12 13 14 13 13 12 10 12 15 4 12 7 10 10 9 10 15
30 28 27 26 25 25 25 27 27 28 27 26 26 24 24 24 20 22 17 15 14 11 10 9 9 10 17 12 14 14 14 15 13 11 7 12 18 5 8 15 11 5 10 10 6
33 31 29 27 25 25 23 25 26 27 28 27 28 28 28 20 21 20 17 15 14 11 10 9 10 12 8 14 13 16 17 16 14 12 11 14 22 23 2 8 11 6 9 12 8
35 34 32 30 27 25 24 23 24 25 26 26 28 31 32 22 20 19 16 15 14 13 14 13 16 14 14 13 15 16 17 21 12 10 12 21 12 7 6 5 5 9 7 14 8
35 34 33 31 29 26 25 24 24 24 25 23 26 28 31 24 20 17 19 15 13 14 16 15 14 13 11 16 18 18 20 15 16 13 8 15 9 10 12 8 6 2 3 9 20
38 37 34 32 30 28 24 23 24 25 25 24 24 23 18 17 12 17 18 16 13 16 16 15 13 13 15 15 24 17 16 14 4 11 14 13 11 5 8 11 8 9 1 9 14
41 39 37 34 32 29 25 22 22 22 26 24 13 20 7 9 16 15 16 19 18 18 19 16 15 18 19 20 19 17 17 12 9 4 7 10 11 8 8 15 11 11 5 4 2
41 42 41 37 33 30 27 23 18 25 32 31 25 30 22 14 18 18 20 23 23 23 18 17 26 18 19 17 14 14 16 16 9 4 8 11 11 10 1 16 13 10 4 2 7
38 40 42 39 33 31 29 24 22 23 33 38 33 30 23 27 23 17 23 24 23 22 23 23 18 17 16 13 13 13 16 11 11 11 11 13 15 6 5 13 11 10 9 8 3
33 36 39 39 34 33 26 24 22 20 23 31 28 30 31 26 29 22 25 24 23 24 23 25 21 16 15 15 14 17 12 13 9 10 15 4 14 12 13 13 11 14 17 12 10
33 31 34 35 36 28 20 18 15 11 8 7 12 20 17 36 21 31 28 29 30 25 22 28 23 21 17 15 15 15 8 10 10 13 15 9 14 4 11 17 19 17 17 18 14
36 32 32 31 32 24 27 24 17 8 12 7 13 16 19 23 35 15 22 35 30 27 27 25 22 21 21 16 16 12 13 12 15 14 14 18 14 10 14 12 17 19 18 20 20
35 35 34 30 23 26 23 23 14 21 11 18 15 12 15 17 27 29 29 39 40 37 35 28 27 23 18 20 16 16 12 14 9 10 9 12 10 6 8 9 4 18 14 20 22
29 36 35 32 21 31 29 28 21 26 33 2 10 16 17 16 19 27 31 38 40 33 30 30 23 28 22 21 19 19 18 14 6 3 7 4 6 8 8 6 7 10 11 11 21
25 32 37 33 24 32 35 37 52 39 16 34 8 13 18 17 19 25 33 36 39 40 32 29 32 22 27 21 23 20 23 22 7 10 11 8 8 17 10 6 4 5 8 10 15
27 29 34 32 27 29 37 43 56 38 30 26 32 22 14 19 21 22 34 29 37 37 36 33 23 25 26 26 23 25 19 17 20 4 4 10 15 7 11 8 7 5 5 6 9
26 33 35 25 29 34 42 56 53 40 34 32 29 24 31 26 21 27 29 30 30 34 36 35 27 18 21 25 24 22 27 17 23 19 6 4 2 8 3 5 6 6 7 6 3
33 41 35 28 39 42 50 52 54 51 38 37 32 30 31 30 30 23 31 30 23 35 36 39 19 22 23 23 21 25 25 21 20 11 13 8 12 2 5 9 8 10 11 11 10
44 44 33 34 46 51 50 48 51 44 43 36 39 30 25 28 29 20 27 27 27 26 37 35 35 24 23 20 24 26 24 24 24 22 22 12 12 5 9 11 12 13 14 11 12
49 46 46 40 45 49 53 57 52 48 42 42 33 32 29 32 26 22 17 27 23 27 38 27 36 30 20 26 26 27 25 23 25 22 20 23 18 18 17 11 11 12 14 15 15
59 47 54 53 59 54 43 43 36 36 43 38 40 35 30 29 28 26 21 20 29 27 26 35 28 36 31 26 26 27 28 29 28 25 25 19 21 21 18 11 13 6 16 12 15
66 56 58 42 45 49 43 46 41 27 37 49 43 39 33 35 31 27 25 21 21 23 30 35 23 32 33 30 32 24 27 28 27 30 29 29 28 23 20 12 13 15 16 14 17
72 65 40 59 37 43 55 56 46 37 31 44 49 38 34 29 31 14 29 27 18 14 31 23 21 30 28 31 31 36 32 30 26 26 24 26 25 22 21 19 17 17 19 22 25

GFSSW_700_spd_051.txt.gz
Wind_Speed
28 28 28 26 24 20 20 21 21 21 21 21 21 20 18 16 14 16 14 13 13 10 8 6 5 3 2 5 5 0 13 21 21 15 8 8 15 15 19 18 24 23 26 23 14
28 28 28 27 26 24 22 23 21 20 21 20 20 19 19 17 15 14 14 14 11 9 8 7 8 5 6 2 4 11 16 19 15 18 16 16 17 13 19 16 16 17 18 15 20
27 27 27 27 26 26 24 24 23 22 20 20 20 19 18 17 15 14 9 7 8 9 8 8 10 6 8 7 3 10 20 19 16 16 17 18 16 12 14 16 16 15 13 17 21
27 26 26 25 25 26 25 24 24 24 24 21 21 20 18 18 10 12 8 11 13 10 9 10 9 8 5 10 8 19 15 17 15 18 23 19 12 17 33 13 12 12 10 8 14
29 28 26 25 25 24 24 24 25 25 25 25 24 24 21 22 13 21 14 13 14 12 10 10 13 5 6 18 24 14 15 18 13 16 15 11 17 18 20 10 13 14 11 8 8
32 30 29 27 26 25 24 23 24 25 27 26 26 27 27 27 18 20 14 13 14 13 12 13 13 5 20 25 18 15 17 18 16 15 15 13 14 24 12 8 12 12 11 9 8
33 32 31 29 28 26 25 24 24 25 26 27 26 29 28 23 19 22 17 13 15 12 13 14 8 12 20 16 12 14 15 21 18 19 18 10 16 12 11 9 13 15 13 11 3
36 34 32 31 28 27 26 25 24 24 25 26 26 28 31 20 23 22 19 14 15 13 15 14 13 21 22 18 13 15 15 21 15 19 15 13 13 15 8 6 11 16 11 9 13
36 36 34 31 30 28 27 25 24 25 26 26 26 27 28 23 21 18 20 18 14 14 14 18 20 20 17 15 17 14 26 22 24 14 9 14 11 5 1 12 11 14 5 9 13
37 38 36 34 31 29 27 24 23 27 27 28 27 26 18 14 12 14 20 18 16 15 17 17 19 19 17 15 21 14 19 21 7 8 11 14 19 8 11 11 10 16 5 7 8
36 37 38 36 34 30 27 22 24 27 29 29 22 22 13 16 11 14 13 19 19 18 21 17 18 22 16 15 15 19 24 27 20 17 8 11 15 10 4 8 11 19 7 7 5
33 34 35 36 33 31 29 23 21 28 38 32 32 32 23 16 23 16 17 24 27 25 22 16 26 18 10 14 21 26 17 14 3 6 10 10 9 10 5 8 7 10 2 7 6
30 30 30 30 30 30 30 23 21 25 36 39 32 37 26 27 28 22 21 22 28 28 27 25 22 13 12 18 19 17 15 15 13 11 10 14 11 12 7 23 11 19 7 4 3
29 29 28 25 25 25 26 24 24 23 24 40 32 34 30 30 35 23 26 25 27 29 26 29 24 18 25 17 16 19 13 18 10 10 11 8 2 16 15 18 8 19 16 4 5
30 30 28 24 19 15 23 24 22 19 6 5 8 5 8 33 27 25 28 30 31 28 22 32 23 24 26 20 15 19 19 15 10 13 14 18 6 4 10 24 14 21 19 8 5
28 28 31 25 12 12 16 17 14 10 11 6 12 14 13 13 22 13 32 33 28 27 28 30 22 22 20 21 17 16 18 14 11 16 13 21 19 11 16 18 19 17 27 18 10
26 26 28 26 11 21 22 20 14 15 8 16 12 15 14 16 16 25 25 37 37 30 35 31 33 29 25 23 17 18 13 3 5 3 7 10 14 15 9 9 18 20 30 23 18
25 24 25 22 21 20 29 27 18 25 29 8 6 19 16 14 19 20 32 31 39 34 19 32 26 30 23 25 20 26 22 9 5 2 5 12 6 5 7 10 3 11 18 23 18
19 20 24 17 25 25 32 36 29 34 13 30 5 6 20 15 11 21 25 43 32 45 37 24 35 20 23 21 25 18 21 23 9 2 5 8 14 4 8 8 12 10 15 14 22
23 24 27 16 28 31 34 51 43 29 25 18 18 13 6 13 18 18 21 20 29 33 43 31 19 29 26 26 28 30 22 22 13 5 4 9 19 11 24 12 7 10 11 12 13
24 28 28 17 26 36 46 55 50 45 29 29 26 23 18 19 16 19 23 24 18 31 36 39 26 30 25 23 35 29 26 25 16 9 6 2 4 10 18 13 9 12 13 14 13
31 36 29 25 32 42 52 54 47 36 37 36 41 27 24 22 26 16 21 19 15 22 39 41 29 34 41 18 32 34 30 24 22 11 7 4 5 10 1 8 10 14 16 14 18
38 40 31 29 42 48 51 54 47 31 21 31 45 38 28 26 23 21 22 20 25 22 37 35 33 29 22 24 21 34 30 27 29 26 23 10 12 19 10 10 17 10 17 17 18
44 42 44 37 44 47 47 52 50 38 42 30 40 37 31 30 31 30 26 17 15 23 31 36 39 31 28 17 23 21 26 28 26 28 22 21 18 17 19 14 18 15 16 17 20
53 52 52 50 60 48 46 44 41 44 37 32 39 41 38 29 32 29 25 24 20 10 28 28 41 46 29 26 28 29 29 29 32 33 27 27 26 29 20 22 23 19 18 14 24
62 63 53 53 45 49 48 55 50 38 18 39 38 37 38 34 28 27 28 27 27 15 14 33 29 36 42 32 30 30 28 26 29 29 26 25 29 23 17 20 18 19 23 20 22
64 67 43 48 40 41 59 58 53 37 29 22 26 31 46 44 29 29 32 34 27 27 21 20 35 25 32 34 31 36 36 29 34 27 30 32 27 25 23 30 15 14 17 21 24

GFSSW_700_spd_057.txt.gz
Wind_Speed
30 30 28 27 27 26 25 24 24 23 24 22 20 21 22 23 20 22 18 16 15 14 14 12 11 10 7 6 9 8 7 5 9 15 17 21 15 20 24 19 22 22 30 17 16
32 29 29 27 26 26 24 25 24 24 26 25 24 20 20 21 19 18 18 16 16 15 14 13 14 11 11 12 12 11 9 6 17 23 24 15 16 21 24 23 26 25 21 15 15
31 31 29 27 26 26 24 22 24 24 26 25 25 23 21 20 18 16 17 16 13 12 13 13 14 12 13 15 13 12 13 13 10 20 14 14 18 23 28 26 29 19 14 18 16
35 32 30 29 26 25 25 22 24 23 25 26 26 23 22 21 12 9 14 16 13 9 12 13 15 15 16 16 17 14 13 13 14 13 13 14 20 27 29 27 25 17 17 17 18
36 36 33 29 28 26 25 25 23 24 24 26 25 25 23 25 18 19 16 15 16 15 15 16 16 14 16 16 15 15 15 12 14 12 15 16 23 27 28 28 23 22 19 19 21
45 38 38 28 27 27 26 26 25 25 25 27 26 26 25 26 18 22 25 21 19 18 18 17 13 14 16 20 20 19 18 17 13 14 16 22 23 29 28 28 19 18 14 17 20
23 42 37 32 24 26 26 27 26 27 27 29 27 27 28 19 19 22 22 25 22 18 18 15 16 15 19 21 23 19 21 20 18 19 21 23 27 28 23 25 19 13 11 12 17
31 25 23 35 22 26 27 28 27 28 29 30 29 30 31 20 19 20 24 23 20 19 15 17 20 21 23 21 19 17 18 17 8 11 15 23 25 17 24 22 17 11 11 9 12
28 31 24 25 27 23 26 28 27 28 30 32 31 30 30 26 21 24 26 24 22 22 17 19 24 25 22 20 18 16 18 17 14 12 14 13 18 17 21 19 16 10 9 9 9
30 29 27 24 30 27 28 28 29 33 32 33 34 28 27 16 12 19 25 26 27 23 20 26 29 27 26 23 21 12 17 13 13 12 15 18 15 17 17 17 15 11 8 8 9
31 29 29 24 29 28 25 30 33 35 37 33 28 27 26 26 19 25 20 22 29 28 26 28 33 38 31 22 21 16 14 12 8 10 18 15 21 18 15 14 14 6 5 6 7
29 28 27 26 26 22 27 24 30 36 37 35 35 36 28 28 22 20 25 23 28 34 28 30 39 35 28 22 21 20 17 15 12 7 11 10 16 18 17 14 10 8 5 4 6
28 28 25 23 21 19 20 23 26 28 34 35 35 35 28 34 36 28 25 27 26 31 34 37 29 31 29 24 23 21 20 14 15 13 17 16 21 23 20 15 13 3 8 8 4
28 27 25 22 20 17 18 18 19 20 19 36 36 31 32 32 40 30 32 29 28 31 33 32 35 10 12 25 23 21 15 14 18 19 11 13 7 16 18 16 19 15 9 6 5
29 27 23 21 19 15 18 16 9 10 6 7 11 15 13 16 25 34 37 35 32 30 33 35 28 34 31 24 21 20 10 16 13 19 14 13 9 13 15 17 18 15 14 8 6
30 26 22 19 17 17 17 14 10 8 10 6 6 10 14 9 17 16 33 39 31 30 24 32 18 13 21 23 21 15 19 21 19 15 8 14 13 20 27 28 23 19 15 14 11
29 24 20 19 16 18 18 17 13 12 4 5 4 12 10 8 16 16 23 44 38 28 34 31 30 29 20 20 25 16 19 5 4 2 6 9 8 13 14 13 21 19 15 16 15
26 20 19 18 19 20 23 26 19 8 23 4 2 11 15 9 10 21 15 40 43 25 13 30 17 34 35 32 25 22 22 14 6 4 6 8 6 6 5 13 17 15 16 16 15
21 22 20 18 18 25 30 36 16 21 2 19 6 2 15 14 7 19 19 23 42 41 18 13 20 14 27 30 29 27 28 20 24 3 2 8 15 21 16 12 12 12 13 16 18
22 25 23 20 22 28 35 38 28 12 20 9 3 2 1 10 10 8 11 15 23 36 35 18 6 13 20 16 29 28 17 13 10 5 4 5 7 13 6 12 16 14 12 11 15
24 31 29 25 27 32 42 35 34 17 11 14 7 7 3 1 3 8 5 3 7 23 31 37 30 23 15 17 25 26 29 27 20 19 6 1 7 18 7 11 15 14 11 9 11
31 35 38 30 35 39 43 41 37 30 24 22 19 15 8 8 6 5 10 5 4 7 12 26 18 34 43 33 17 25 26 27 25 7 12 17 25 13 4 8 18 20 12 15 13
36 36 37 35 43 45 31 37 41 40 35 35 21 15 22 26 10 7 15 10 6 4 6 1 12 28 27 25 28 36 24 22 21 26 32 15 18 20 20 13 16 19 18 16 16
37 35 37 40 44 44 38 30 25 36 39 32 30 27 26 28 28 18 11 10 3 9 8 10 10 20 23 18 11 21 26 31 28 32 27 36 34 32 23 20 21 16 16 20 21
45 36 42 41 50 44 36 39 34 30 30 33 34 31 33 27 19 22 27 35 26 13 15 12 9 12 20 31 30 29 21 24 26 32 35 35 39 35 29 28 29 26 21 22 23
48 50 34 51 33 44 44 42 32 25 31 30 34 30 26 33 30 31 13 12 29 23 13 14 18 17 16 20 27 32 37 42 38 32 32 40 38 27 24 26 28 29 25 24 26
54 52 44 32 42 47 48 44 33 31 31 27 19 17 19 25 23 20 19 21 24 23 22 16 13 19 8 8 10 28 41 40 41 38 30 29 29 27 33 30 29 25 31 31 27

GFSSW_700_spd_060.txt.gz
Wind_Speed
35 34 33 32 32 31 29 28 28 28 27 26 25 23 20 19 19 21 19 18 17 17 14 14 16 13 13 11 12 14 13 11 8 9 18 14 15 16 20 22 22 23 27 22 17
36 37 35 35 32 31 31 30 27 28 27 26 26 24 22 21 18 16 19 18 17 17 16 15 17 14 15 14 15 17 16 12 8 13 17 12 15 17 21 22 23 27 24 17 17
37 38 38 37 37 34 31 31 32 26 29 27 26 25 22 21 20 18 16 16 17 16 15 17 17 15 16 17 17 18 18 11 11 13 14 14 16 18 21 23 25 30 22 22 20
33 36 38 40 39 37 34 31 32 30 26 29 27 24 23 21 11 8 9 14 15 15 12 15 16 16 17 19 19 21 18 18 14 15 13 15 16 21 22 25 29 29 24 19 18
26 24 33 38 37 39 39 35 32 31 28 28 28 24 23 23 17 16 12 11 14 14 12 14 17 16 19 18 19 21 24 20 17 15 16 18 20 22 25 26 28 26 20 17 21
31 32 30 26 40 41 40 41 36 30 29 30 30 26 25 23 19 17 25 22 18 17 18 17 18 15 19 18 20 20 22 24 22 21 18 21 24 26 25 27 25 22 17 17 18
32 30 31 32 27 37 44 44 44 31 30 31 32 30 30 18 18 17 21 23 24 22 21 19 20 21 20 21 20 22 24 26 25 27 22 24 29 25 23 20 23 19 16 15 14
35 34 33 31 33 29 40 41 40 35 31 30 33 34 34 24 16 19 24 23 20 20 20 20 22 23 25 20 20 18 19 23 10 11 16 17 26 16 15 18 18 16 14 14 15
34 33 33 30 26 28 20 32 39 38 27 30 34 33 33 29 22 26 24 23 22 21 20 21 23 24 25 23 21 22 23 19 12 8 11 16 21 11 13 18 15 15 14 13 12
32 32 31 31 29 26 24 28 28 34 30 31 36 31 26 13 10 21 26 29 25 27 25 26 25 28 29 27 26 19 19 19 15 11 13 17 20 15 15 17 15 13 11 10 10
31 31 29 28 29 27 25 28 31 30 34 31 29 23 19 18 15 21 16 22 25 31 33 30 31 37 34 32 27 17 11 13 12 12 15 12 14 9 16 16 16 10 7 7 8
31 31 29 27 27 26 26 25 31 30 35 34 38 40 25 28 30 19 22 26 22 33 34 32 41 33 29 28 25 23 21 19 15 10 15 16 17 17 18 18 20 12 10 7 6
30 29 29 28 24 23 25 24 25 28 33 32 32 36 30 33 35 27 24 26 27 29 36 39 26 33 33 31 29 26 23 19 14 13 18 19 21 18 16 20 18 11 8 7 5
30 29 27 27 25 21 23 21 20 18 21 31 30 28 31 35 40 27 34 29 29 27 31 35 38 22 18 35 32 30 21 17 15 18 16 19 9 19 17 20 20 15 11 9 6
31 28 26 27 24 21 20 18 11 10 6 10 6 12 17 21 20 23 31 39 35 29 29 27 29 34 20 22 29 32 19 18 15 19 22 21 11 17 17 23 21 14 6 9 8
30 28 27 25 22 20 19 14 7 6 9 4 6 7 12 11 15 18 30 44 39 29 22 28 16 15 32 30 22 18 18 14 17 17 5 18 18 15 15 23 23 22 15 9 11
29 28 27 25 21 20 17 15 9 11 5 2 1 8 12 12 15 14 20 44 41 31 29 28 28 19 18 15 20 23 17 2 2 3 6 10 15 28 23 18 11 10 12 9 14
28 28 26 25 22 21 19 21 15 4 23 10 11 9 11 11 9 13 9 34 37 26 23 27 9 32 30 25 17 25 24 9 6 3 4 11 8 13 8 9 12 10 10 14 12
25 26 27 24 22 20 23 26 12 19 7 11 14 10 4 5 3 15 7 17 40 31 17 20 17 15 20 32 29 22 19 23 17 3 2 7 12 22 26 18 12 9 9 12 16
23 23 24 24 22 22 27 30 26 11 18 16 6 5 6 2 5 6 11 6 17 40 33 16 4 6 17 15 28 32 20 14 11 5 4 4 8 13 10 10 15 13 9 8 10
24 27 23 26 24 30 37 32 29 23 7 14 10 7 2 3 4 6 7 14 9 6 33 28 16 7 12 15 19 26 29 23 12 9 5 3 8 16 14 10 11 13 12 9 8
27 30 26 25 30 34 40 33 33 26 23 25 20 16 11 6 3 3 7 8 11 8 12 23 12 24 32 20 13 9 24 32 23 7 9 14 20 15 19 10 10 15 16 11 11
30 32 30 31 35 40 32 36 34 33 31 30 17 12 12 12 6 6 3 7 5 12 9 3 8 19 9 17 17 20 29 19 19 24 28 14 7 10 18 20 17 14 21 21 16
34 31 38 45 40 32 38 36 35 33 37 35 33 24 21 22 20 15 10 8 10 1 7 4 6 8 5 7 11 11 18 29 29 26 19 27 27 26 26 26 24 20 18 21 21
44 37 35 37 40 35 36 36 33 31 25 26 40 37 30 26 17 14 18 19 19 14 12 7 10 8 3 8 17 24 26 19 32 33 31 27 28 27 25 30 29 24 25 25 20
46 48 46 41 36 39 35 39 36 29 27 23 26 25 15 22 24 20 14 15 13 13 13 10 6 10 16 13 11 18 23 28 30 34 36 33 32 22 23 22 24 21 24 26 30
47 51 42 38 39 34 40 39 36 31 27 23 17 14 15 11 18 26 23 21 18 16 14 11 7 6 3 11 16 11 3 12 24 33 38 41 37 26 21 19 23 24 26 28 25

GFSSW_700_spd_063.txt.gz
Wind_Speed
31 32 32 31 32 33 34 34 31 29 29 30 31 30 29 24 22 18 17 19 18 21 19 17 17 15 14 15 15 14 17 17 17 11 10 9 13 14 14 18 21 23 22 25 21
30 32 33 32 32 33 33 34 35 33 30 29 31 29 30 26 24 20 17 17 18 21 19 17 18 16 18 17 18 19 19 18 15 10 10 11 14 15 18 20 21 22 21 24 23
20 23 28 32 35 36 35 34 35 35 34 30 31 29 28 27 22 23 19 16 17 20 20 20 21 19 19 19 21 21 18 15 15 13 13 13 14 16 17 21 21 23 21 23 17
25 24 24 24 24 28 36 38 36 35 34 35 32 29 29 25 13 12 10 13 17 18 19 20 22 21 20 21 21 24 17 19 20 17 17 17 17 19 22 22 23 22 22 20 17
29 29 27 26 25 27 26 32 39 37 35 36 35 31 29 26 19 18 11 9 14 17 17 18 20 19 19 20 22 25 20 23 22 21 20 20 19 22 20 25 24 23 21 19 19
30 31 31 31 27 28 31 32 28 40 37 39 38 34 32 28 21 18 21 20 15 17 17 17 18 18 18 21 22 21 23 23 27 25 24 24 24 26 19 24 21 19 15 17 19
30 30 31 31 33 32 30 30 32 31 42 39 42 40 38 27 22 16 23 27 27 23 22 19 20 21 21 20 20 20 25 24 26 24 26 27 31 26 19 13 15 17 11 15 15
31 31 30 31 33 34 34 30 30 32 30 37 38 46 46 29 28 21 26 22 25 31 30 26 24 24 24 23 18 18 20 22 20 16 14 13 23 16 14 11 14 14 11 13 13
31 31 30 31 32 32 32 31 31 30 27 26 37 38 44 29 28 25 25 24 27 24 27 29 29 26 27 25 20 21 19 20 17 11 10 12 19 15 16 14 15 17 13 13 11
31 31 29 29 31 30 31 31 29 30 28 24 29 37 32 13 22 20 25 30 28 28 27 29 30 29 31 31 25 23 21 21 20 9 10 13 16 12 13 13 14 16 12 13 9
31 30 28 28 28 29 30 30 28 30 30 24 26 27 24 18 29 20 17 20 26 31 34 34 33 40 35 31 28 16 13 12 12 12 15 13 16 10 10 12 14 15 11 13 8
30 30 28 27 25 25 27 29 30 33 36 27 26 30 25 27 27 25 20 24 22 30 36 34 43 36 28 28 30 25 22 21 18 17 15 12 17 16 14 13 13 17 13 13 9
30 31 29 27 24 23 25 25 27 29 34 32 31 32 24 34 36 29 24 19 23 27 35 42 33 28 32 31 30 28 25 22 18 15 17 17 18 19 20 18 13 11 12 11 7
31 29 29 28 23 21 22 23 22 21 21 21 12 8 17 31 38 26 36 29 26 28 27 34 39 19 27 36 30 30 23 20 19 16 8 13 10 22 21 17 16 14 14 11 9
29 28 29 29 23 18 20 19 17 13 6 11 8 9 8 12 14 18 29 37 38 29 25 24 30 33 19 22 27 29 25 18 18 17 14 15 9 16 16 18 17 17 16 11 11
28 27 29 28 24 19 17 15 10 3 7 4 7 8 10 10 12 11 26 37 38 31 30 24 21 20 36 36 25 18 19 9 11 12 7 14 11 12 5 6 14 12 14 13 11
28 28 29 28 23 19 16 11 6 7 5 5 4 13 15 12 9 15 13 39 27 29 26 25 23 16 20 25 20 19 12 4 5 5 6 12 12 24 21 19 13 9 7 14 12
27 31 29 27 21 18 14 11 11 5 12 18 20 20 13 7 7 13 8 23 34 27 25 22 14 28 22 25 31 37 28 10 8 6 4 13 8 11 8 13 8 15 6 12 16
26 29 31 22 21 15 15 18 10 17 10 11 11 11 4 1 6 11 6 11 31 27 17 23 19 13 30 27 18 21 24 28 8 4 1 6 12 15 18 16 12 12 4 8 18
24 27 27 18 18 20 24 28 21 14 12 23 11 7 8 4 1 7 7 8 13 30 24 14 5 18 17 28 30 17 22 14 13 7 8 4 8 12 13 11 9 12 7 4 13
21 22 23 18 22 27 30 26 25 26 11 13 10 10 6 8 9 4 6 7 6 13 30 18 9 6 18 20 25 27 26 17 15 19 8 6 8 16 13 7 5 5 7 9 8
21 24 22 18 25 30 33 30 28 25 29 21 18 13 12 10 7 2 3 10 11 6 16 27 6 13 12 10 12 22 26 31 17 7 10 11 16 10 10 13 16 12 8 11 9
24 25 21 22 28 31 29 23 27 27 25 23 20 12 8 6 3 5 2 3 6 13 8 8 14 8 6 22 20 18 21 16 22 25 24 12 8 7 10 14 16 16 10 10 13
25 26 25 29 31 32 27 30 23 27 27 27 24 17 17 16 15 10 13 10 6 9 6 3 6 11 9 3 7 10 18 20 23 20 17 21 18 20 23 22 22 22 17 13 13
32 33 29 16 32 37 33 30 30 29 26 25 28 34 23 22 19 26 25 21 14 16 6 2 0 7 9 4 5 7 15 16 17 23 26 23 22 22 20 20 22 22 23 19 19
37 39 34 38 19 24 39 29 32 27 23 20 19 9 16 24 28 20 17 16 10 7 14 8 2 3 6 8 11 12 8 14 19 18 21 21 25 23 21 19 20 26 23 22 20
42 41 37 38 40 27 33 31 24 25 25 23 18 14 16 15 17 20 19 19 16 13 11 11 10 4 4 4 10 6 5 5 3 6 8 12 17 19 23 26 20 22 22 21 22

GFSSW_700_spd_066.txt.gz
Wind_Speed
22 25 27 28 29 31 32 33 32 33 32 31 29 29 29 25 23 24 21 21 22 25 23 22 20 19 19 21 19 18 15 16 14 18 15 11 12 13 15 15 17 18 18 23 22
18 16 16 18 22 25 29 33 35 35 35 34 32 29 30 28 24 24 23 21 20 24 26 22 20 19 22 22 22 21 18 16 14 16 14 13 14 13 17 16 17 21 21 23 22
22 21 20 20 20 21 21 23 26 31 36 37 35 31 29 30 25 25 23 23 22 22 26 24 22 20 23 22 23 21 25 15 13 17 15 13 13 16 17 19 18 22 23 22 22
25 25 25 25 24 23 23 23 22 24 27 34 38 35 30 27 17 14 16 18 22 23 26 26 27 25 24 25 22 24 22 20 13 17 21 17 17 19 21 24 21 22 21 20 20
24 24 25 26 27 28 28 27 27 27 25 27 31 38 33 32 28 22 13 14 15 21 25 25 26 23 22 19 20 27 22 18 19 21 25 23 22 21 24 25 22 20 18 15 17
24 24 25 26 27 28 28 29 30 31 27 26 32 33 38 40 25 25 23 19 16 18 22 24 23 20 16 21 22 15 22 21 20 22 22 26 21 27 18 22 19 13 15 12 15
25 26 26 26 27 27 27 28 29 32 31 30 31 32 39 42 29 27 22 30 24 23 23 23 23 21 18 17 23 23 21 19 21 21 20 24 27 28 15 17 13 11 13 11 13
25 25 26 28 29 29 28 29 31 30 27 29 30 31 41 34 37 35 27 25 30 31 27 25 24 24 23 18 17 18 19 21 16 16 19 19 23 8 15 12 11 13 13 12 12
25 25 26 28 29 29 29 29 31 30 28 28 28 28 37 23 33 36 40 29 27 32 37 35 32 29 23 20 18 18 23 18 16 12 12 15 13 10 13 13 12 10 12 13 12
25 25 26 27 27 28 30 29 31 32 27 26 26 25 21 18 11 21 40 23 29 28 31 32 35 28 27 27 31 23 20 20 17 12 14 16 18 13 14 9 12 12 13 12 12
26 25 25 25 26 27 28 28 29 34 25 24 26 30 23 18 16 26 36 20 19 28 30 34 29 37 35 32 26 20 18 17 13 13 16 18 19 15 13 12 11 11 13 12 12
27 25 25 25 24 26 27 28 28 31 37 24 26 31 28 24 23 23 31 25 19 24 26 25 38 32 23 25 26 25 20 18 13 13 16 19 21 19 16 14 13 13 11 10 11
27 26 26 24 22 24 25 25 25 27 32 21 13 12 19 31 27 24 33 30 14 19 26 36 21 30 25 24 24 29 25 21 17 8 13 14 23 23 19 20 20 16 12 12 10
27 25 26 23 22 20 22 22 21 21 18 9 12 9 12 8 29 30 35 34 22 16 21 26 32 16 24 31 26 28 24 23 18 12 15 8 18 19 18 20 19 16 15 10 8
26 24 25 24 21 18 19 19 15 14 6 8 8 8 13 6 7 16 29 36 31 20 13 19 17 32 28 28 25 28 17 17 18 16 15 18 14 19 11 15 12 13 15 16 13
25 24 25 24 22 20 18 15 9 3 6 3 5 6 15 18 7 9 11 26 25 33 27 19 15 17 26 23 22 9 13 10 13 15 16 18 16 13 5 2 3 7 8 13 14
25 25 25 23 21 20 15 11 3 7 5 3 5 9 17 11 9 16 11 27 24 27 32 26 24 16 19 27 20 19 16 8 10 10 12 10 13 22 9 12 11 6 5 11 16
25 25 25 22 20 19 16 10 11 5 10 11 16 20 12 9 6 12 12 17 35 25 15 26 21 26 21 22 21 33 31 12 10 10 9 12 9 7 5 6 10 9 10 10 17
25 24 24 19 18 17 12 14 8 12 10 11 12 9 4 4 5 5 11 10 19 30 26 25 27 13 23 21 21 23 31 21 9 2 5 13 11 14 12 11 7 9 8 7 16
23 24 21 17 15 15 19 23 17 15 9 14 10 6 5 7 4 7 6 6 6 24 22 11 16 25 25 22 22 18 16 18 19 13 10 9 13 10 10 5 6 3 5 6 9
20 21 16 14 17 22 29 21 22 21 14 12 7 8 9 8 7 4 6 2 5 10 26 15 13 5 21 28 27 24 16 16 16 22 11 7 7 8 10 7 5 6 6 6 6
15 20 14 14 23 27 31 24 21 19 19 22 17 11 10 9 7 5 4 2 3 11 20 21 12 10 19 12 24 25 28 26 17 13 16 17 15 6 5 5 10 13 5 3 8
23 20 18 16 23 28 26 24 30 16 17 16 20 13 10 8 5 6 10 4 4 9 8 14 13 17 14 9 9 16 20 19 27 22 18 12 5 9 17 13 8 11 13 7 5
21 16 18 25 28 23 21 24 20 25 21 20 19 20 17 16 12 8 9 11 19 15 7 4 13 20 13 13 14 12 14 17 17 21 21 26 23 19 17 17 23 17 15 12 7
29 25 18 13 30 29 25 18 18 23 19 17 19 23 22 19 18 20 21 18 15 15 10 3 5 5 10 6 5 6 7 13 19 20 19 15 15 16 16 16 15 21 21 19 18
34 31 26 21 23 15 27 34 27 25 20 20 19 16 16 25 26 21 14 11 9 9 9 8 3 1 4 6 7 8 7 8 13 13 10 11 13 13 14 17 17 15 21 20 23
35 30 26 23 26 25 20 18 26 23 21 19 16 20 16 13 16 17 19 19 17 13 10 9 8 2 2 1 2 8 17 9 7 6 7 7 5 8 11 17 21 19 21 26 24

GFSSW_700_spd_069.txt.gz
Wind_Speed
17 17 17 17 18 19 20 22 24 26 30 32 32 31 30 29 24 24 24 24 22 21 23 24 25 24 22 21 21 17 22 25 22 19 17 14 14 11 13 13 15 16 15 17 21
22 20 19 18 19 18 17 16 16 19 20 22 26 31 31 32 28 23 27 25 24 21 23 25 24 24 24 22 22 23 23 24 18 18 16 17 16 13 15 12 14 17 21 25 21
23 25 25 24 24 23 21 20 21 22 22 21 22 22 26 31 28 21 25 25 25 24 22 22 21 22 23 22 25 24 31 21 18 19 15 18 17 15 15 16 15 16 16 22 22
22 24 25 25 24 23 23 24 26 27 27 27 25 22 20 22 13 23 22 25 24 24 26 25 25 26 26 27 24 29 27 24 24 19 17 20 17 19 18 19 19 17 21 22 21
23 24 26 27 26 24 23 24 25 27 27 28 28 29 26 25 28 30 25 19 19 22 25 28 27 27 29 24 25 27 27 25 21 24 23 21 22 22 22 19 17 23 19 18 18
26 26 27 27 26 25 24 24 26 26 28 29 29 30 32 32 25 21 32 29 23 19 20 21 23 23 23 26 25 25 26 27 25 25 22 24 23 22 22 16 16 18 16 17 16
25 26 27 26 26 25 25 24 26 26 27 28 28 31 35 26 27 25 32 31 31 27 18 17 21 20 24 24 22 26 28 26 22 26 27 23 26 25 23 18 16 14 14 15 15
25 25 26 26 25 24 23 23 25 26 26 26 27 31 38 28 23 25 33 30 28 35 29 23 20 25 24 18 21 18 26 27 23 23 23 20 26 17 9 16 13 13 12 14 16
26 26 26 24 24 25 22 22 23 24 24 23 27 27 33 22 21 21 24 36 35 37 31 28 21 23 22 24 22 24 25 26 21 19 17 21 17 9 10 13 13 15 13 13 14
27 26 26 25 24 24 22 22 23 26 23 21 23 20 11 12 16 14 13 25 28 39 29 29 26 25 28 29 32 26 25 24 23 16 18 21 21 17 17 14 13 13 15 13 14
27 28 26 24 23 24 23 21 24 26 19 20 20 31 18 21 26 19 19 19 27 35 36 26 31 38 33 32 28 25 20 20 16 16 18 19 20 19 16 17 14 14 14 14 13
26 26 26 23 23 23 22 22 19 24 33 19 18 22 21 24 29 18 21 19 26 38 22 27 40 34 29 29 29 30 29 24 19 15 14 18 20 20 19 19 16 15 14 14 11
26 25 25 22 22 21 19 18 20 23 29 8 8 5 9 13 18 22 20 15 22 29 27 33 30 28 28 29 31 31 31 27 22 13 16 18 22 21 23 21 19 18 16 16 15
25 25 25 21 22 17 17 15 15 18 15 5 6 5 10 11 10 10 22 21 23 22 20 27 32 16 27 33 29 31 27 24 22 20 21 15 19 17 18 21 19 18 18 18 17
24 24 25 20 20 15 16 12 9 12 7 4 4 6 7 8 9 9 21 23 20 24 12 14 20 27 31 29 30 31 20 21 22 23 21 23 17 18 14 19 18 18 19 18 18
24 25 24 22 18 16 13 8 3 3 8 2 3 4 8 14 12 8 12 17 17 23 32 25 22 18 24 30 25 19 24 21 19 20 20 24 21 17 14 11 6 11 13 14 18
25 25 23 21 16 14 9 6 4 10 4 4 3 7 11 15 11 15 11 21 19 13 27 25 26 22 18 25 29 25 20 13 14 17 15 19 17 22 8 7 7 10 12 11 17
25 25 23 20 17 14 9 6 13 10 13 6 11 14 19 14 9 12 13 17 21 14 10 16 21 22 15 24 25 30 31 20 11 11 14 21 9 14 12 13 8 7 10 12 15
25 23 24 17 15 12 14 18 12 14 17 13 12 15 15 8 8 8 15 13 14 22 15 11 15 21 21 18 25 29 36 29 18 8 11 14 15 9 9 8 7 6 9 10 14
23 22 24 17 14 16 21 23 17 15 8 9 12 10 12 7 8 8 10 7 4 11 22 26 24 19 17 19 29 26 24 32 32 9 8 11 19 8 8 9 7 5 2 6 10
18 16 12 15 17 24 31 24 15 17 12 11 12 15 14 13 9 9 6 7 13 17 11 29 23 12 24 27 30 30 26 28 25 23 8 7 7 7 14 9 6 3 1 1 4
17 17 14 12 26 29 34 23 19 15 17 22 19 17 17 15 14 11 8 1 6 7 5 19 13 21 17 26 27 29 27 23 22 21 30 17 7 5 13 8 7 2 1 4 2
20 18 18 19 26 26 21 20 21 20 18 18 22 23 19 19 13 14 9 11 11 9 4 5 16 23 12 9 24 30 30 29 24 16 12 11 11 14 12 8 5 4 5 3 3
19 15 19 25 29 21 22 21 22 19 22 19 20 18 22 22 17 13 7 10 19 23 3 7 13 21 18 8 16 21 26 26 26 24 25 22 14 14 9 9 10 10 10 7 6
29 24 12 16 26 25 21 13 22 21 16 17 22 23 22 21 23 24 21 17 15 21 18 5 12 16 21 11 7 13 17 20 22 22 21 20 21 19 15 11 10 13 15 10 11
34 31 22 20 16 22 25 27 19 18 21 18 20 22 22 27 24 24 15 12 12 8 13 9 7 12 20 13 6 10 15 17 17 15 16 17 14 10 9 9 10 12 13 15 14
34 29 26 17 19 19 18 24 24 21 22 23 19 20 24 20 20 22 23 14 14 11 7 12 8 11 4 6 6 12 17 14 16 18 15 16 6 5 5 4 6 9 12 19 24

GFSSW_700_spd_072.txt.gz
Wind_Speed
21 20 21 20 17 16 15 15 15 14 13 14 13 16 21 26 26 25 27 24 23 20 24 20 22 23 23 23 23 21 26 32 27 24 22 17 14 13 13 16 16 16 20 20 25
23 25 24 23 22 21 21 20 20 19 20 18 18 18 20 20 20 24 26 23 26 24 23 23 21 22 26 26 25 28 33 32 24 24 25 16 16 12 13 15 15 13 14 20 23
21 23 23 24 24 23 22 23 24 25 26 24 22 21 22 21 20 19 23 27 26 26 25 25 21 20 24 24 26 30 40 28 25 23 19 18 19 17 17 19 16 16 17 13 19
22 21 20 23 22 24 23 23 24 25 26 24 24 22 22 23 8 15 21 25 22 26 26 26 26 25 27 29 27 31 33 31 26 26 25 21 20 20 19 21 19 19 24 22 25
24 23 22 21 22 22 23 24 24 26 25 25 24 24 22 25 18 20 20 21 24 24 23 24 27 23 30 28 27 33 30 30 29 27 26 25 23 23 24 22 19 18 24 22 21
25 26 25 23 23 23 24 25 25 25 25 26 26 25 27 25 19 18 22 23 21 23 22 21 25 21 28 28 31 28 29 32 28 28 28 26 27 24 27 23 21 18 22 23 17
26 26 27 25 24 24 25 25 25 25 23 24 25 27 30 19 21 23 24 22 23 33 28 14 15 18 22 29 27 29 34 30 30 28 27 26 31 28 25 24 24 22 20 21 17
25 26 26 26 25 24 24 24 24 23 21 21 22 25 32 24 22 17 18 22 24 31 31 29 25 25 28 25 27 32 28 35 32 28 28 23 36 25 22 25 24 20 19 18 17
27 27 27 27 27 26 23 22 23 21 20 19 20 22 24 19 12 15 19 19 17 19 23 28 26 30 18 23 25 26 35 30 29 26 26 31 32 22 21 14 14 17 19 19 19
29 29 29 27 27 26 24 21 21 22 19 13 16 17 12 7 8 14 16 14 14 20 22 26 18 28 23 25 32 28 29 31 29 24 29 24 24 20 18 16 17 17 17 20 21
30 30 30 27 25 25 23 19 18 24 16 14 16 25 16 19 24 17 11 14 11 14 19 26 25 35 30 28 29 27 28 32 27 19 21 25 22 21 23 19 23 17 17 19 20
30 30 29 26 24 22 20 20 17 17 22 17 18 20 19 18 27 23 16 14 12 16 16 25 44 46 25 25 28 30 31 33 28 18 15 17 20 20 21 23 21 20 15 17 21
29 28 27 23 22 20 17 16 14 17 22 10 10 8 5 8 13 12 18 15 14 18 20 27 26 35 27 32 32 33 34 33 31 22 20 16 23 23 23 24 24 22 17 15 22
30 28 25 21 21 16 7 15 10 11 13 5 3 4 6 7 6 11 11 16 19 14 16 22 28 27 33 30 33 37 33 32 30 27 25 21 18 22 24 23 26 26 20 20 17
30 28 26 20 20 13 18 15 6 6 5 10 7 5 5 2 6 7 6 16 16 12 12 12 9 29 30 25 33 36 29 32 28 28 28 27 20 21 13 18 22 27 25 22 21
31 29 26 20 20 15 16 11 6 2 8 8 7 1 3 8 10 10 9 16 17 16 21 22 24 23 32 17 23 29 29 26 24 27 23 28 26 25 22 20 20 19 15 21 18
31 29 27 23 17 14 12 10 5 9 4 10 8 6 7 10 11 12 8 16 12 5 14 21 29 35 17 18 16 25 24 11 11 18 13 22 20 27 17 9 8 9 11 14 17
31 29 27 25 18 20 14 12 13 9 14 5 6 8 15 15 13 10 13 14 18 16 14 9 7 33 26 23 16 20 33 15 7 8 14 26 14 31 19 13 13 9 11 13 16
29 28 26 24 19 17 15 20 12 17 18 17 15 12 15 12 10 11 17 19 14 20 11 6 8 8 34 23 20 18 38 39 21 12 8 15 27 7 13 12 8 8 11 12 14
27 21 29 20 20 22 23 31 22 13 10 5 10 9 13 11 3 5 6 6 6 9 19 9 14 12 16 23 30 23 32 27 26 7 6 6 25 15 19 16 13 11 9 9 10
24 21 17 10 17 27 37 31 18 20 11 11 12 15 15 14 13 11 7 6 13 11 15 10 14 11 6 16 31 24 28 27 20 26 6 4 9 1 11 13 14 12 4 5 10
23 24 10 12 27 34 38 28 21 16 12 16 15 15 15 14 13 14 13 15 10 11 9 13 8 17 25 21 23 27 29 27 20 26 25 13 2 8 12 10 14 10 5 2 4
27 25 16 21 26 31 23 24 25 22 19 17 17 18 17 19 18 14 17 13 10 14 6 7 8 10 12 13 17 29 35 32 23 16 19 6 8 10 13 10 11 7 5 1 2
16 18 22 23 29 21 23 22 21 20 22 19 18 18 18 21 19 16 10 6 11 16 20 10 12 12 14 14 16 25 29 32 28 10 10 15 9 15 14 7 5 7 6 3 8
25 25 12 17 26 27 23 13 20 19 20 17 19 22 20 19 21 21 24 19 17 13 14 15 9 12 25 27 23 16 23 28 30 31 26 18 19 17 9 5 7 9 8 7 2
27 26 18 14 12 21 23 25 21 14 20 22 19 18 21 24 20 19 17 19 18 8 7 13 9 15 25 23 18 18 13 14 17 24 25 18 16 10 9 6 5 6 7 11 6
29 26 22 20 16 18 16 23 22 20 21 13 15 17 18 17 24 17 13 21 16 14 7 7 12 8 9 7 10 10 11 12 11 11 9 11 10 13 6 1 5 11 13 17 19

GFSSW_700_spd_075.txt.gz
Wind_Speed
23 21 20 20 22 19 18 17 17 16 14 12 12 15 16 13 12 19 22 23 23 21 21 22 20 17 22 24 23 21 28 34 31 25 22 13 20 18 19 10 15 15 21 25 27
23 24 22 21 22 21 22 21 20 19 18 18 19 20 22 19 18 16 13 16 21 22 21 21 20 19 23 24 26 28 37 40 31 24 27 25 18 16 18 14 11 13 16 21 24
21 22 23 22 21 20 19 20 20 20 18 20 21 20 21 19 18 14 9 5 9 17 21 22 20 23 24 24 26 29 42 35 35 27 31 34 26 20 13 13 10 13 17 18 22
23 22 21 23 23 23 21 21 21 21 20 20 21 20 21 18 12 12 16 16 15 14 17 20 20 26 29 25 24 31 31 31 30 28 32 29 26 25 24 20 15 19 21 24 27
24 24 23 23 24 24 24 22 22 22 22 22 23 23 21 21 11 23 18 18 13 16 18 18 20 23 30 29 24 29 29 29 31 32 34 31 31 28 24 26 23 21 23 26 26
26 25 25 24 23 23 25 23 23 21 23 24 23 24 23 19 19 19 24 17 14 19 20 21 18 19 26 24 27 27 27 31 33 35 36 36 33 32 27 29 30 27 27 28 30
27 26 25 25 25 23 23 22 23 22 22 24 24 25 24 14 21 20 20 22 21 19 18 23 18 21 24 27 27 30 34 34 38 36 36 36 41 39 33 28 24 26 26 28 29
27 27 27 25 25 24 24 23 22 22 22 22 23 26 24 19 21 20 19 18 18 18 20 22 25 28 30 30 27 29 31 36 35 34 34 28 42 32 29 29 31 29 29 31 27
29 28 28 27 26 25 25 24 24 23 23 23 22 25 23 12 14 13 13 15 16 17 16 17 29 32 33 27 27 30 29 31 33 30 30 33 40 37 27 20 21 19 24 28 28
30 30 29 27 26 27 26 24 23 23 25 22 23 21 12 10 13 15 13 17 12 13 11 18 21 33 33 28 25 21 24 25 28 26 31 35 41 37 35 28 21 26 24 24 29
32 31 30 27 26 26 25 24 23 25 25 21 19 22 18 14 19 20 15 11 13 10 12 14 20 28 31 36 32 29 22 30 33 31 29 36 41 37 21 25 26 29 25 22 25
32 32 29 26 25 25 23 20 22 24 29 19 20 26 17 18 26 24 24 21 15 13 8 12 27 25 23 25 25 25 26 38 39 38 26 28 29 30 28 24 27 31 31 23 23
32 32 30 26 24 23 18 16 15 22 27 20 21 19 16 16 12 6 9 19 14 13 14 19 18 10 21 29 30 30 31 35 33 36 28 26 32 26 23 27 30 26 28 28 26
32 31 30 25 24 19 20 20 16 13 15 20 19 14 11 6 9 4 5 11 16 14 17 19 25 26 30 31 36 34 27 24 28 27 24 26 20 24 24 24 23 30 28 28 27
33 31 29 24 24 16 18 18 11 7 5 5 12 7 9 8 3 7 7 5 17 14 15 15 17 16 22 31 34 35 28 19 25 23 27 40 25 28 26 28 20 28 31 31 28
34 34 30 23 24 20 23 16 11 4 9 15 13 12 13 9 3 10 6 4 8 17 20 25 19 24 21 24 23 21 28 17 23 19 11 40 27 21 31 28 14 21 34 36 29
31 33 32 25 19 20 17 13 7 9 5 15 18 13 5 6 6 20 12 9 12 12 16 16 21 21 26 25 29 17 7 2 3 5 6 19 24 30 21 23 21 18 28 31 30
26 31 31 27 17 17 15 15 12 10 19 8 12 15 10 10 14 17 13 10 13 15 14 8 7 10 14 29 17 20 21 6 5 3 4 25 11 28 28 21 19 12 17 18 26
23 24 28 25 18 23 20 22 15 20 5 13 14 15 11 9 15 10 10 13 9 15 12 4 5 7 13 19 22 18 23 19 13 12 5 7 20 33 19 22 23 21 14 14 20
25 27 28 21 19 24 27 35 33 19 11 7 7 3 6 8 2 7 9 9 14 14 20 13 11 8 9 13 19 18 14 8 9 3 3 8 13 18 15 24 20 15 15 18 17
23 30 21 15 16 23 34 41 31 33 11 7 8 9 9 15 13 7 3 5 8 10 15 14 14 10 10 10 17 22 23 13 8 9 3 3 4 12 15 16 16 18 20 17 13
26 28 14 15 25 32 41 43 39 21 13 13 15 15 10 11 13 7 8 7 5 5 9 13 8 14 19 16 17 19 28 22 10 5 15 11 11 9 17 16 18 13 12 7 12
23 29 25 21 32 34 35 31 34 28 20 13 11 12 11 16 9 5 10 4 8 5 4 5 7 9 9 6 16 18 22 28 23 16 14 2 5 8 10 16 13 13 14 13 10
22 26 20 29 31 23 31 30 23 17 21 21 16 14 16 17 17 13 9 8 9 8 12 11 13 16 10 15 12 9 8 30 36 10 15 21 13 19 13 15 14 9 16 17 16
23 22 16 11 26 23 20 13 19 21 18 14 15 19 16 16 13 17 16 14 15 22 17 9 13 15 21 23 20 21 23 21 37 42 11 11 17 13 15 7 6 9 15 20 17
26 23 17 20 12 10 20 22 23 12 16 15 20 15 17 19 16 17 16 18 9 10 9 10 7 15 23 18 24 27 25 27 23 40 34 28 21 17 11 12 6 10 15 15 15
24 27 22 20 18 10 8 18 16 11 17 15 13 21 21 15 19 22 17 19 20 12 15 7 7 12 6 15 18 16 15 13 21 20 30 20 12 12 10 11 10 10 12 15 14

GFSSW_700_spd_078.txt.gz
Wind_Speed
18 20 20 20 20 19 18 19 20 19 18 16 16 16 16 15 14 15 12 14 23 24 23 20 16 18 21 22 25 26 35 39 35 33 34 18 18 8 14 22 24 21 24 17 18
19 18 19 19 20 20 19 18 19 19 20 21 20 21 20 19 17 16 16 14 17 21 21 21 18 21 24 19 27 31 41 43 36 33 30 26 24 22 23 19 22 22 19 20 17
20 20 20 20 19 20 21 20 19 20 21 21 22 20 20 18 17 18 12 8 9 15 20 20 19 24 26 24 27 33 44 39 37 33 29 31 28 20 27 24 22 26 24 20 16
21 21 21 21 21 22 22 22 21 22 22 22 22 20 19 16 11 8 14 15 15 13 14 17 18 24 28 30 24 35 35 37 36 32 31 33 27 30 26 23 21 23 18 18 18
23 22 23 22 22 23 23 24 23 22 24 24 22 22 19 18 14 23 21 19 17 17 17 18 18 19 25 27 24 33 32 32 33 30 28 26 30 31 29 22 21 27 25 21 20
23 24 23 23 23 23 23 23 24 23 23 24 23 23 21 17 16 21 19 15 17 20 20 19 19 20 23 25 30 31 31 32 27 27 28 32 34 34 32 24 27 28 30 31 30
26 25 24 25 24 24 24 23 22 24 25 25 24 24 21 13 19 22 22 18 19 22 22 18 21 22 24 25 29 30 33 34 35 32 35 34 43 43 32 31 31 32 28 28 26
27 27 26 26 25 25 26 24 23 25 24 27 25 27 22 20 20 22 24 23 25 26 22 17 21 26 27 28 26 28 31 37 39 34 35 35 43 41 31 29 33 36 32 31 33
30 30 28 26 25 27 27 25 24 24 26 26 26 26 22 19 20 20 19 19 18 17 18 17 28 30 28 30 31 30 36 37 39 32 32 29 42 40 34 33 33 32 32 32 34
31 32 31 29 27 29 28 26 24 26 27 25 27 25 21 19 22 20 18 18 17 17 17 14 22 33 33 31 30 22 27 28 34 33 25 31 38 36 35 36 39 34 31 28 25
34 33 31 30 28 29 27 26 25 26 29 26 25 23 19 20 21 20 17 17 17 14 11 13 19 25 24 30 34 35 29 31 31 27 20 30 33 33 34 33 38 31 35 31 28
35 35 33 29 26 27 26 27 26 25 33 26 27 31 23 24 26 22 20 22 20 16 13 14 21 15 14 18 23 28 33 38 36 29 25 29 38 38 31 31 30 26 30 29 32
35 35 33 29 26 25 24 24 26 26 34 33 28 33 24 28 30 16 24 24 30 22 16 16 11 4 12 21 25 28 28 31 28 29 33 29 42 37 29 23 26 26 25 26 36
30 32 32 28 25 23 24 22 22 21 21 30 23 19 24 24 23 18 12 13 22 21 19 17 19 21 22 25 22 33 28 26 27 23 23 14 13 31 28 27 23 29 30 34 28
27 28 29 28 25 20 24 21 16 10 5 7 12 10 17 19 12 13 8 10 13 17 14 8 10 13 17 20 17 34 28 26 26 24 24 30 11 42 29 29 23 22 19 28 28
25 26 27 25 23 20 21 20 14 7 9 7 9 14 16 17 11 11 10 9 9 15 18 18 16 17 16 17 15 21 26 28 23 19 12 30 10 31 34 30 29 29 26 19 34
25 26 26 25 14 19 19 16 9 9 6 7 14 17 13 17 17 17 14 15 12 15 18 17 14 11 13 16 14 18 10 6 6 7 9 16 16 34 26 25 30 24 16 23 34
27 26 27 22 12 14 15 11 11 12 28 20 12 19 19 15 16 14 22 20 17 16 9 6 2 4 7 11 9 26 22 6 5 4 8 23 13 27 30 36 33 19 16 21 31
29 26 27 14 11 12 17 18 17 19 9 14 11 9 21 17 14 8 25 26 15 15 8 5 6 5 17 14 10 13 20 24 6 5 4 7 11 29 34 27 25 23 19 13 32
28 27 22 12 15 13 26 32 34 26 17 12 8 6 8 5 5 2 23 19 17 15 16 7 7 8 10 8 10 24 8 12 8 3 3 5 7 11 16 21 25 19 24 21 23
23 27 12 12 14 17 33 41 36 36 24 14 11 17 15 14 6 4 7 8 13 11 15 16 15 7 9 9 11 13 26 10 7 7 2 3 2 17 8 11 16 27 22 19 23
22 21 9 12 20 24 33 33 30 31 18 19 25 11 7 11 7 5 5 1 6 4 3 6 5 8 19 19 18 15 19 19 9 5 11 3 8 14 10 4 17 19 20 19 22
20 21 14 17 16 28 24 30 30 33 24 26 23 11 4 10 6 3 6 6 5 3 3 1 2 4 9 3 13 14 15 15 20 16 14 7 6 6 12 13 13 16 19 20 20
18 19 18 16 29 30 23 30 31 24 21 21 27 17 10 7 5 4 8 5 7 8 5 9 6 7 8 12 14 22 19 17 18 13 21 22 12 19 9 14 20 17 17 19 23
16 19 18 14 12 24 24 31 21 22 22 15 12 18 8 9 11 9 10 11 9 12 12 13 9 12 12 17 20 26 27 25 29 26 14 20 20 13 20 2 13 17 17 19 20
21 20 19 21 7 10 13 14 10 12 18 14 14 16 14 11 13 15 14 10 11 12 9 10 9 10 14 8 11 20 28 31 31 29 29 34 20 16 11 21 5 11 13 15 19
16 17 18 22 24 20 15 14 4 9 9 5 11 14 16 16 16 12 16 15 14 16 13 12 7 6 7 18 25 20 13 18 26 26 26 36 38 30 14 21 18 11 17 16 17

GFSSW_700_spd_081.txt.gz
Wind_Speed
21 20 20 21 22 21 20 20 22 24 24 23 22 22 22 19 17 18 19 18 17 24 26 25 21 23 25 25 27 29 36 43 41 36 33 24 28 18 13 9 5 13 24 24 24
21 21 21 21 20 20 21 20 20 21 23 23 22 23 23 24 23 19 23 22 20 19 25 24 24 27 27 25 30 32 41 45 38 34 34 28 32 23 23 15 12 11 15 24 23
21 21 21 21 21 21 21 21 21 22 22 24 24 22 24 22 23 24 22 21 19 18 23 25 25 28 29 29 32 35 46 35 35 28 31 30 33 26 29 28 9 12 13 20 29
21 22 21 22 23 23 23 23 23 23 24 25 25 23 24 20 15 14 10 16 16 13 17 25 27 29 31 32 29 39 39 34 33 29 32 31 30 35 31 27 22 17 19 22 23
22 23 24 23 23 24 23 24 25 25 25 26 26 24 23 23 19 24 21 22 22 22 21 23 24 25 26 29 28 37 37 35 33 31 31 30 35 35 37 27 26 22 25 22 29
25 25 24 25 25 24 25 25 25 26 27 28 27 25 25 23 22 20 23 22 24 24 22 23 22 25 26 26 30 34 34 37 36 33 31 32 37 30 38 28 30 28 24 23 26
26 27 27 25 26 28 27 26 26 26 29 29 29 28 28 15 23 23 22 21 23 23 21 23 21 25 25 26 27 30 36 37 36 33 33 26 45 39 36 32 33 28 26 26 26
28 29 29 28 28 29 31 28 26 29 29 30 31 31 31 22 23 23 24 21 23 26 26 21 21 24 27 28 22 22 29 37 31 27 32 28 53 38 36 33 34 28 26 28 29
28 30 30 30 31 32 31 31 29 31 31 31 31 31 31 27 25 27 26 24 24 26 26 21 25 28 28 27 28 27 36 34 32 29 28 27 44 42 35 28 30 31 30 30 28
31 32 31 30 31 34 34 31 29 33 34 32 34 30 24 23 20 21 21 21 19 18 18 20 24 30 32 30 24 13 25 32 31 19 20 24 38 45 41 39 36 36 33 33 33
31 32 33 32 31 33 34 33 30 33 36 32 32 31 16 16 18 23 22 22 20 20 18 18 24 30 31 31 30 31 33 39 36 27 27 29 39 42 39 38 40 35 35 32 28
29 31 31 32 30 31 32 32 31 32 43 30 33 39 31 26 31 25 24 23 22 20 15 18 26 21 20 22 23 26 29 35 39 31 29 33 45 42 40 39 35 29 28 31 31
29 30 29 28 28 27 28 26 25 28 38 48 35 40 33 33 38 30 30 26 25 22 19 19 13 10 17 16 19 24 29 33 30 26 31 34 48 46 44 41 36 30 28 29 30
30 30 29 25 24 24 25 23 21 23 26 42 30 31 28 34 40 30 34 32 31 30 24 18 19 21 18 20 19 26 24 28 29 20 18 10 18 38 34 42 38 30 21 30 27
28 28 28 25 19 21 21 18 18 12 6 10 9 12 12 16 22 22 28 29 24 22 20 10 8 7 13 15 16 26 22 18 20 20 23 27 17 21 26 38 34 28 19 25 20
26 26 26 23 20 20 17 14 11 6 10 8 7 11 11 16 13 22 25 21 13 16 18 15 15 15 12 11 15 20 20 18 18 13 11 24 20 19 24 34 28 27 23 20 20
27 27 27 24 21 22 16 11 7 9 8 8 5 7 15 17 14 20 23 23 16 14 18 15 16 16 14 12 12 14 10 3 3 5 7 3 19 32 9 12 22 22 28 26 26
30 30 28 22 23 21 14 12 12 13 20 33 27 19 17 20 21 18 21 23 22 15 7 9 3 9 8 6 7 10 19 5 5 3 3 15 11 18 28 28 26 27 25 26 25
31 30 24 16 23 20 14 17 12 14 16 20 17 12 8 7 8 24 25 24 22 21 9 8 5 9 10 10 7 5 17 22 10 12 5 6 15 22 22 21 27 33 33 26 22
26 25 13 20 19 20 20 25 13 15 15 13 13 5 11 11 10 8 17 19 27 18 21 7 5 8 11 9 10 11 9 6 10 4 3 6 8 6 11 4 14 30 25 24 18
20 22 14 15 16 18 23 23 22 26 18 13 10 15 11 16 11 7 16 9 20 16 18 16 9 5 7 7 9 8 7 11 7 7 2 4 1 8 11 14 12 22 25 24 17
19 18 9 8 14 19 25 26 17 24 20 20 22 22 23 13 10 5 4 7 16 14 11 10 5 8 14 11 11 12 14 12 9 4 11 7 10 7 12 11 11 13 24 23 22
19 19 12 14 17 18 26 22 21 18 20 23 13 10 13 18 10 4 5 9 9 7 6 5 2 4 6 2 0 7 9 13 15 20 11 5 10 12 11 10 4 7 18 24 26
17 14 14 14 16 21 22 27 21 23 25 22 21 19 23 22 3 5 4 5 1 1 1 3 3 6 6 11 15 24 25 21 17 10 9 19 26 19 23 11 8 8 9 27 28
16 17 14 14 15 13 16 23 26 25 23 15 21 10 13 17 9 4 6 2 2 4 6 5 4 7 13 14 16 17 21 23 23 27 17 30 20 23 31 35 8 5 9 21 30
17 18 17 19 17 18 23 6 13 13 16 13 15 13 11 16 9 5 6 1 4 4 6 8 7 12 17 10 15 27 29 28 26 32 30 32 28 8 23 22 5 5 13 19 25
16 15 14 19 14 18 17 15 19 13 14 12 17 13 15 13 10 9 7 8 7 8 9 9 9 9 9 22 26 19 3 16 22 24 25 32 24 27 15 10 28 8 17 20 19

GFSSW_700_spd_087.txt.gz
Wind_Speed
23 23 23 23 25 26 26 26 26 27 27 28 28 28 28 27 26 26 26 23 20 20 20 22 25 29 30 31 30 28 34 33 34 28 30 25 27 25 26 23 24 20 11 18 20
22 22 22 23 24 25 26 27 27 29 29 29 29 29 28 29 27 27 26 26 23 22 22 22 22 28 31 31 31 31 38 40 36 32 29 27 30 27 31 30 27 23 14 15 21
21 21 22 23 24 24 25 26 27 29 29 29 30 29 28 30 29 29 26 24 23 23 22 23 27 28 32 32 34 35 43 38 36 30 30 29 32 28 33 34 23 24 25 25 20
21 22 23 24 25 25 25 26 27 28 29 30 30 30 28 27 20 19 18 12 15 16 19 20 26 31 34 35 34 38 39 36 34 30 33 33 30 36 36 35 23 25 29 31 25
22 23 25 26 26 26 26 27 28 30 29 29 30 31 30 30 23 27 27 25 22 16 13 16 20 24 31 33 33 37 37 35 35 34 36 35 36 34 42 32 26 26 29 35 32
23 24 25 26 27 28 27 28 31 32 33 33 32 32 34 32 23 26 16 19 25 28 23 21 18 21 26 28 31 34 33 33 34 34 34 39 38 39 38 32 31 28 29 34 35
20 19 20 23 25 26 26 27 29 30 32 33 36 37 39 33 29 29 30 24 26 24 28 32 28 28 27 27 30 31 32 33 35 31 34 32 44 43 31 27 33 32 30 30 34
18 18 20 23 26 26 27 28 31 32 33 34 35 38 41 36 33 32 36 27 23 26 25 23 27 27 27 26 22 21 25 23 21 24 25 27 36 22 18 25 25 25 28 31 31
18 19 21 24 27 28 29 29 31 33 34 35 37 38 40 28 22 19 30 23 28 30 22 22 25 27 26 25 25 25 23 24 19 14 18 22 30 19 28 29 31 31 28 27 28
20 21 23 25 27 29 29 30 32 35 37 39 39 31 15 12 16 25 25 23 20 24 22 26 27 30 30 24 21 21 26 25 20 17 23 33 46 38 33 34 36 36 32 31 29
22 23 24 26 28 31 32 31 35 39 35 35 37 42 39 27 32 21 18 15 18 18 22 30 32 40 37 35 34 21 20 19 25 27 32 37 47 39 33 35 38 36 34 36 38
24 25 25 27 29 31 33 35 37 36 48 30 31 33 33 28 39 33 32 24 22 24 19 23 33 29 23 23 24 25 28 27 25 20 19 27 44 37 33 34 34 32 33 37 34
25 26 26 29 29 31 31 30 29 29 35 40 14 9 16 15 23 27 31 35 30 28 28 29 18 8 22 25 24 25 25 23 21 22 26 27 43 26 18 22 24 26 27 33 34
26 27 28 28 29 28 27 26 25 24 22 19 14 12 18 22 16 12 20 34 38 35 29 22 25 25 16 19 22 25 21 16 15 12 7 9 14 19 18 22 22 20 22 23 28
27 28 29 30 31 29 24 21 20 19 6 11 6 11 17 19 27 17 21 17 35 35 30 21 13 16 28 26 17 14 15 14 13 12 10 7 9 10 20 9 9 13 10 11 16
28 29 29 29 32 30 24 19 16 5 7 5 14 20 22 22 24 25 21 12 32 23 28 30 18 12 10 15 20 15 11 10 11 6 6 10 13 8 10 17 17 9 5 9 13
29 29 30 30 28 26 22 17 6 7 5 8 13 21 31 33 22 19 17 16 10 25 25 20 22 18 12 11 12 12 7 3 2 5 5 4 12 18 19 17 19 18 8 8 15
29 28 30 30 28 24 20 13 9 7 11 19 26 29 22 23 16 19 11 17 13 19 20 19 10 24 22 21 8 12 11 4 3 3 2 7 9 4 8 17 21 25 19 13 17
29 28 28 26 25 22 18 9 7 7 12 14 20 15 8 11 17 15 20 22 19 19 5 20 6 14 12 14 12 8 8 7 3 7 5 6 10 12 10 12 14 16 18 16 19
29 26 24 24 21 16 13 11 11 12 17 17 13 8 9 17 24 20 15 5 19 21 10 9 9 12 16 10 8 8 5 4 6 2 3 5 9 9 10 16 19 15 13 15 24
26 24 22 20 17 14 10 10 14 11 13 12 13 19 24 26 20 17 11 13 15 16 20 11 7 9 11 9 9 10 5 7 3 4 2 2 2 4 9 18 24 24 28 20 22
22 19 17 14 11 9 10 12 16 14 13 16 16 16 18 15 15 12 15 20 1 10 22 19 10 8 6 8 8 8 4 5 3 2 5 5 9 10 6 22 27 29 30 31 15
18 13 8 11 7 11 11 13 12 18 15 13 13 12 13 16 13 9 13 24 15 14 20 21 10 8 6 8 7 6 4 7 7 6 7 5 5 5 22 26 26 27 25 27 12
12 9 10 5 11 12 15 10 19 19 12 13 18 18 14 23 17 15 21 24 6 16 20 18 15 5 4 8 6 3 4 5 3 4 9 18 26 23 25 25 24 21 21 22 19
7 8 8 9 8 12 10 13 18 18 14 19 18 14 13 10 11 14 17 19 5 15 14 14 12 9 6 2 2 4 7 7 15 21 12 29 23 27 23 20 20 16 21 15 12
6 9 11 9 8 11 11 16 16 19 26 18 21 13 12 15 11 7 11 10 12 10 11 7 8 5 3 3 5 11 14 14 9 7 17 20 30 18 20 23 17 17 20 14 11
4 8 10 9 9 14 17 18 20 23 15 29 21 13 15 11 14 9 3 4 4 4 2 1 4 2 4 3 9 7 4 4 12 16 18 25 26 28 26 18 16 18 19 18 14

GFSSW_700_spd_090.txt.gz
Wind_Speed
25 23 23 22 23 24 25 26 26 27 27 27 27 28 29 29 27 27 26 24 22 23 21 19 18 22 30 33 33 29 28 33 29 25 22 21 26 20 20 20 22 25 21 20 22
23 23 23 22 22 23 25 26 26 28 28 27 27 27 28 29 30 29 28 26 24 23 25 22 23 21 28 34 35 35 32 35 27 23 19 21 21 18 21 20 20 21 20 24 23
20 21 21 21 22 23 24 26 26 27 27 27 27 27 27 28 28 30 25 19 18 20 24 26 26 26 26 27 32 34 42 27 26 27 25 28 26 25 24 26 24 23 24 29 27
19 20 22 22 23 23 24 26 26 26 27 28 29 27 26 26 20 20 23 25 21 14 14 22 26 29 28 27 26 34 32 31 28 25 29 32 31 32 28 31 28 25 25 30 32
21 21 21 22 22 22 22 24 25 25 25 28 29 30 30 28 26 29 27 26 27 23 21 16 18 22 24 21 25 30 29 27 31 32 34 32 36 35 35 25 29 27 28 29 33
19 20 19 18 17 17 20 23 23 24 26 27 29 29 30 30 29 27 26 24 20 22 23 20 16 17 19 20 24 19 20 25 25 32 35 36 36 33 34 33 34 32 31 29 31
15 14 16 17 17 18 20 23 25 25 26 27 30 32 33 28 29 30 30 28 26 27 24 25 24 24 16 18 22 29 26 24 26 27 32 28 33 36 30 30 32 32 31 31 31
11 13 16 18 20 21 23 25 26 26 26 27 29 33 36 35 29 28 29 29 30 28 28 29 27 33 27 22 20 19 20 22 17 18 22 23 32 17 12 16 19 22 23 30 31
11 14 17 20 22 23 25 26 27 27 27 29 30 30 30 25 15 17 21 22 25 25 27 26 29 27 19 23 23 22 25 19 17 16 14 18 17 11 15 25 26 23 26 27 30
12 16 20 23 26 27 27 28 29 29 29 26 25 28 20 26 35 33 21 18 22 23 21 28 28 28 24 23 27 21 26 19 19 12 15 23 29 26 25 28 32 32 34 34 33
14 18 21 23 25 27 26 26 30 33 27 23 23 31 31 32 35 35 25 26 19 19 21 27 28 32 29 27 24 21 18 20 16 14 24 29 29 26 24 27 29 27 29 32 35
15 18 21 23 24 27 28 28 29 30 39 19 21 10 18 23 22 21 24 33 22 23 19 21 36 30 24 24 25 25 27 27 24 21 21 26 30 28 28 27 23 25 29 34 32
16 18 20 22 24 26 28 29 29 31 31 22 10 7 9 11 14 11 12 25 34 26 27 27 14 20 27 24 23 23 24 20 19 18 24 26 31 14 5 4 11 16 22 27 27
17 19 20 23 24 25 27 28 28 28 19 12 8 9 11 14 9 16 12 15 16 34 29 28 27 15 15 19 19 22 17 17 16 13 11 5 7 15 9 7 8 6 12 17 24
18 20 22 24 25 25 24 26 24 21 7 10 6 12 12 12 18 13 19 19 17 27 26 27 16 25 22 18 18 17 10 11 11 13 17 18 12 6 7 6 8 12 13 19 18
19 22 24 25 27 27 26 24 18 5 8 5 8 11 17 13 17 13 13 23 13 19 28 27 14 12 15 17 16 10 9 9 10 10 12 22 18 5 3 8 12 12 12 13 15
21 24 25 26 26 27 25 18 5 9 6 5 8 14 17 21 16 12 12 12 11 18 28 25 21 12 10 11 13 18 14 7 8 6 6 6 12 13 11 6 10 14 12 10 11
22 25 27 28 28 27 22 9 9 8 10 16 18 23 21 14 9 12 9 13 15 18 19 27 21 24 21 15 10 19 18 8 8 6 3 9 8 4 3 6 9 11 14 17 12
23 25 26 28 26 23 16 6 9 9 10 14 22 17 10 8 14 14 11 16 14 17 19 27 25 13 17 21 16 14 15 12 7 6 7 10 9 6 3 5 11 13 11 12 12
23 25 26 23 21 16 9 5 6 8 13 14 15 10 14 16 20 14 13 9 10 12 16 11 17 14 18 16 18 13 14 6 8 5 6 6 9 3 3 9 13 18 17 15 13
21 23 19 16 14 10 2 5 8 7 10 8 10 16 20 22 17 18 12 12 11 9 18 12 13 17 20 15 21 15 11 7 6 4 3 2 4 3 6 12 18 21 23 23 18
20 14 12 13 11 9 5 8 11 10 11 12 10 13 13 14 16 13 15 12 23 18 14 16 6 17 16 11 13 11 11 13 9 6 4 3 6 5 6 15 20 22 24 23 16
13 8 10 9 4 6 8 10 8 14 11 7 11 12 12 15 11 11 13 17 20 18 8 15 9 13 9 8 10 10 11 12 10 1 8 4 2 1 15 21 21 21 23 19 15
8 6 7 5 5 7 12 6 10 13 9 8 14 15 15 14 11 14 20 13 16 5 14 15 8 9 9 11 13 10 11 9 9 7 6 12 18 18 20 23 18 21 20 17 15
5 4 5 4 4 8 10 10 12 13 12 16 10 9 12 12 12 15 13 20 13 16 12 14 12 11 11 10 8 8 8 9 10 8 8 12 17 19 20 18 23 24 19 17 16
3 5 5 3 4 7 10 13 11 16 22 15 18 22 21 16 14 19 14 16 14 21 20 16 12 11 6 4 4 4 5 8 10 10 10 16 15 15 17 23 21 20 17 19 15
4 4 5 4 6 8 9 14 20 22 16 22 18 14 11 11 11 2 7 4 8 11 14 10 4 5 4 2 5 4 2 0 2 6 11 18 17 22 20 20 19 20 19 18 16

GFSSW_700_spd_093.txt.gz
Wind_Speed
28 27 25 23 23 23 22 24 22 22 22 23 23 22 24 23 24 25 25 24 23 20 22 21 20 18 21 28 25 20 32 43 38 33 32 26 23 23 24 22 22 22 25 18 24
27 25 24 23 22 22 23 24 24 23 23 22 22 22 23 25 25 25 26 25 24 20 20 21 22 21 23 23 26 31 33 40 30 28 26 25 26 20 21 22 23 22 23 25 24
23 22 21 21 22 23 24 23 22 23 24 23 21 19 21 22 23 18 17 17 16 15 14 20 22 19 22 23 25 33 43 31 29 27 31 28 27 26 28 30 25 24 24 21 22
23 22 20 21 22 21 22 22 21 21 21 21 20 18 19 19 12 23 26 27 24 24 22 16 17 22 26 28 27 34 36 30 29 32 26 32 30 33 31 31 27 28 27 25 25
22 21 20 19 20 20 19 19 18 19 22 22 21 22 21 21 23 27 26 24 23 21 20 19 16 16 26 26 27 34 30 32 28 28 31 30 33 34 36 29 28 29 30 28 28
19 18 18 17 15 16 16 18 19 20 21 23 23 22 21 22 21 24 25 26 24 23 21 19 18 17 21 23 30 27 29 29 31 33 31 32 35 33 36 31 31 33 29 28 28
18 17 15 14 13 15 18 20 22 21 22 22 22 23 23 20 26 27 26 26 27 25 23 20 18 21 14 20 25 26 29 29 30 26 28 26 37 37 33 32 32 31 30 29 29
15 14 13 12 14 17 20 22 23 24 23 23 24 26 27 26 22 21 23 20 24 26 28 28 22 26 26 25 25 20 24 30 26 25 28 27 45 26 20 21 27 27 29 28 28
14 13 13 13 16 20 21 23 23 22 21 22 26 25 21 20 22 26 26 23 26 26 23 27 32 28 23 27 30 31 34 29 26 20 21 22 27 10 13 18 17 17 19 22 23
12 11 14 16 18 20 21 22 22 23 22 21 20 17 15 13 31 30 33 33 29 18 24 25 26 26 29 31 38 30 30 28 28 24 23 22 28 25 22 22 25 25 25 25 26
10 12 14 16 18 18 19 22 25 30 22 24 21 27 22 27 23 21 24 24 25 21 21 18 27 39 34 32 35 30 27 24 24 19 20 25 30 30 28 28 30 29 27 27 27
10 11 12 15 17 19 19 22 23 25 33 22 25 25 18 16 16 16 19 20 19 28 24 26 38 32 28 30 31 29 31 31 27 26 26 29 33 29 28 30 29 27 24 23 23
9 10 12 14 17 19 21 22 24 27 32 21 14 14 14 14 15 11 15 12 18 25 30 35 33 20 33 30 30 31 31 28 27 21 23 26 35 32 27 21 23 23 21 19 20
8 9 11 14 17 20 23 24 24 25 17 6 7 8 8 11 17 8 17 18 18 22 27 36 32 33 22 35 30 34 27 26 23 22 18 7 12 14 6 9 10 9 9 12 15
8 10 13 15 19 20 22 23 23 22 7 4 5 13 8 12 16 5 14 20 23 23 22 35 36 32 30 25 26 26 17 20 20 19 20 23 16 23 16 14 12 6 9 11 14
9 12 15 17 19 20 22 21 19 4 4 1 4 7 15 16 20 23 21 21 21 22 24 31 28 31 30 29 23 19 18 14 14 16 19 25 21 15 18 12 5 6 6 8 11
12 14 17 19 20 22 21 18 8 8 4 3 8 16 22 25 27 23 21 23 24 21 23 24 32 30 21 24 27 22 18 11 13 13 13 13 16 20 5 5 1 4 7 9 11
13 16 19 20 22 20 16 3 8 6 10 17 18 25 27 24 21 18 20 26 21 22 27 24 24 33 15 21 21 27 24 14 11 10 14 19 8 12 8 4 1 3 6 10 13
14 17 20 21 19 16 8 7 8 9 10 15 21 18 15 7 13 14 17 21 20 21 20 23 31 34 26 25 18 19 29 24 19 16 7 9 13 6 7 7 1 6 10 12 13
14 18 18 18 15 11 1 5 6 9 12 14 16 13 19 17 20 19 17 15 19 17 17 15 16 23 30 24 24 16 19 15 15 5 8 13 17 13 13 5 4 9 12 14 13
12 10 15 14 11 3 2 4 9 8 12 13 15 20 20 20 19 19 17 19 22 18 23 19 17 23 23 25 30 24 20 17 12 14 6 7 7 16 9 7 9 13 14 15 13
10 3 12 10 3 5 3 6 10 7 12 17 16 16 16 17 17 19 17 12 23 22 27 14 10 20 31 21 26 27 22 20 10 12 10 6 1 9 9 10 14 15 15 18 16
3 5 7 7 2 3 5 7 7 10 12 13 14 17 17 19 18 11 12 11 22 17 21 7 13 18 16 17 17 29 21 20 12 3 10 5 3 6 9 13 13 16 15 17 14
1 2 4 4 4 3 3 2 7 11 12 10 17 19 17 15 13 14 16 16 22 25 19 12 18 4 4 18 20 15 14 13 10 9 9 12 13 15 17 14 17 12 15 19 14
1 2 1 2 2 1 3 7 10 13 12 16 12 12 15 16 14 14 17 16 16 19 16 12 4 13 14 15 16 10 10 9 8 7 6 8 10 14 12 14 16 18 19 16 15
3 2 1 4 3 1 6 7 10 16 15 13 15 19 20 20 16 20 15 10 14 22 20 4 7 14 15 13 12 10 6 5 6 7 12 11 10 12 15 21 22 21 19 15 14
6 5 5 5 1 2 6 10 17 21 12 11 14 17 13 9 10 9 13 9 13 17 20 10 10 13 11 7 5 6 3 2 1 2 6 9 16 23 23 28 27 23 20 17 14

GFSSW_700_spd_096.txt.gz
Wind_Speed
29 27 27 24 23 22 22 22 21 20 19 18 18 19 20 19 20 21 20 21 21 17 17 19 19 17 17 21 23 22 32 43 38 33 33 27 29 24 21 22 24 25 26 22 27
29 27 25 24 23 23 23 21 22 20 18 15 14 15 16 17 18 19 19 13 13 15 16 15 19 18 20 20 24 29 38 44 30 29 29 26 27 29 24 29 26 25 22 28 24
27 24 24 24 24 23 22 22 20 18 16 15 14 13 13 15 15 14 13 14 16 18 17 15 13 18 19 20 22 26 47 34 31 26 27 28 31 29 27 30 25 25 25 27 38
25 23 24 24 22 22 20 18 18 16 14 14 14 14 13 13 5 17 17 18 18 18 18 17 17 17 23 25 24 33 34 35 35 30 31 32 28 30 32 34 30 25 29 25 27
24 24 23 22 20 19 17 15 14 16 16 16 15 15 15 15 16 18 18 18 17 17 16 13 14 15 22 23 25 31 32 33 32 34 35 32 34 31 37 36 32 32 31 34 36
24 22 20 19 17 15 14 15 16 17 18 18 17 16 17 18 18 22 20 23 21 20 18 15 16 16 21 22 24 26 31 31 33 35 34 35 38 32 42 35 36 34 37 34 37
22 19 18 16 14 14 14 15 17 19 20 21 20 20 20 18 22 23 23 20 20 19 21 17 17 20 18 20 22 28 30 32 34 32 33 29 41 42 37 35 40 39 36 38 39
20 18 15 14 13 14 16 18 19 20 21 22 21 21 24 23 21 18 19 21 23 22 21 19 24 24 25 25 28 24 25 31 33 30 33 30 55 36 34 32 38 32 32 37 36
18 16 14 13 13 16 18 19 20 19 20 19 20 20 22 15 17 20 21 23 21 24 27 24 24 30 25 26 28 33 38 36 37 28 31 30 45 31 27 24 22 32 24 29 29
17 15 13 12 14 16 17 18 18 18 19 16 19 12 13 10 19 28 22 23 22 23 17 20 20 27 30 28 38 35 31 34 36 30 31 30 34 29 29 25 22 24 23 21 23
16 13 12 12 13 13 13 16 17 22 16 18 20 29 23 23 31 27 18 16 18 20 21 19 20 38 32 32 36 35 35 35 33 23 29 30 36 32 26 31 32 28 30 31 31
15 12 11 11 10 10 11 14 15 19 24 20 27 27 27 23 22 10 18 16 13 23 20 23 38 34 26 31 34 36 36 40 33 29 27 28 33 29 32 39 38 31 35 32 27
14 12 10 9 8 11 13 14 19 23 28 25 15 11 10 15 17 13 15 13 15 20 22 30 38 31 32 32 35 38 39 34 30 25 26 31 36 33 36 39 37 37 34 24 22
13 11 9 9 10 13 16 17 20 22 18 6 7 5 9 6 11 7 12 17 23 27 26 29 28 34 37 36 32 39 34 28 26 24 29 24 21 35 24 13 19 16 19 19 20
13 10 8 9 11 14 17 18 20 17 5 3 5 10 6 10 17 15 12 22 28 30 28 37 31 32 38 42 36 30 29 26 26 28 26 28 23 27 23 22 16 15 12 11 10
12 10 8 10 13 14 17 18 14 3 6 2 3 5 11 15 21 26 24 23 28 32 33 35 35 34 35 37 32 26 25 21 23 24 20 29 30 27 27 19 19 16 6 4 6
11 9 10 11 14 17 15 12 4 6 2 2 7 15 19 26 28 22 23 26 27 31 33 34 35 33 34 32 33 26 20 10 10 14 13 24 26 24 27 3 13 9 6 4 7
11 10 10 11 14 13 9 4 6 5 7 14 16 21 24 20 16 11 15 19 18 20 24 29 31 26 25 33 29 37 28 12 7 7 14 30 11 16 25 22 11 11 4 2 12
10 10 9 11 12 8 5 6 6 8 10 16 20 16 13 14 15 15 15 18 17 15 9 16 24 21 24 35 32 26 37 33 18 20 9 8 22 15 26 14 13 8 2 6 14
9 10 8 10 9 6 2 5 5 8 12 13 16 12 22 21 22 20 19 16 21 17 22 17 22 21 18 24 23 18 26 22 16 4 4 2 9 11 17 14 9 6 3 11 10
7 7 6 9 8 3 4 4 7 9 10 10 18 21 21 22 20 19 12 18 18 15 21 20 15 27 13 20 27 23 19 13 14 18 2 2 5 13 9 13 9 7 7 11 11
5 4 6 5 3 1 2 6 9 6 9 13 12 14 16 18 21 21 21 16 19 17 25 18 15 15 20 21 20 27 20 21 8 6 15 1 3 18 16 10 9 12 9 12 10
4 9 5 1 5 1 3 3 4 8 11 14 15 13 16 18 22 15 17 17 22 27 14 20 7 8 10 24 24 31 26 20 18 9 9 7 5 15 14 13 10 5 6 15 13
6 6 7 6 1 7 1 1 5 11 14 13 17 18 15 16 15 11 17 16 18 29 17 19 21 19 18 11 24 28 26 21 15 9 5 8 16 13 13 11 11 13 14 17 14
4 5 7 5 6 5 1 5 10 14 14 14 10 13 17 22 20 19 19 23 13 8 19 12 10 15 31 33 20 21 15 7 8 5 3 5 13 18 19 16 18 19 24 21 14
6 7 2 9 11 0 6 6 9 16 15 11 13 16 18 20 17 22 21 12 21 18 27 11 3 5 25 18 24 17 9 8 6 4 4 7 3 20 16 21 23 27 25 21 18
7 8 8 5 4 2 5 8 14 21 11 10 16 17 15 13 11 15 13 6 15 24 22 11 2 6 17 19 26 22 13 10 14 10 10 14 19 25 29 29 25 24 21 17 12

GFSSW_700_spd_099.txt.gz
Wind_Speed
31 31 27 24 21 20 18 17 17 18 18 17 17 19 19 19 19 20 16 17 14 15 15 14 15 14 18 17 20 19 30 44 37 33 37 28 27 24 21 29 28 23 22 27 26
34 32 28 25 21 21 20 19 18 17 16 15 14 16 17 17 18 15 16 10 7 9 8 9 10 14 19 17 22 31 40 44 38 35 34 26 29 31 31 19 23 30 20 25 29
35 32 28 24 22 22 20 18 17 15 14 13 13 14 15 14 16 14 8 7 10 11 13 13 12 12 17 17 21 28 45 38 36 33 26 31 35 34 34 28 18 21 25 28 29
37 33 30 25 23 22 20 17 14 13 12 11 13 13 14 14 11 8 12 11 11 12 12 12 13 15 17 22 20 28 30 29 30 25 30 35 35 42 37 32 22 23 21 27 25
38 34 31 27 24 21 17 16 13 13 12 13 14 14 15 16 13 14 12 12 13 14 14 13 15 13 18 20 19 30 33 33 33 34 32 33 39 42 48 40 33 33 34 33 27
37 32 28 24 21 18 16 15 14 13 14 15 17 17 17 17 17 15 13 15 16 16 15 17 16 13 23 22 25 26 27 32 32 35 36 38 40 38 44 44 43 42 44 44 40
37 30 25 22 19 16 14 14 15 16 16 18 19 20 18 14 19 17 18 19 15 17 20 17 16 19 24 26 27 27 34 37 39 38 39 35 41 47 41 40 45 50 52 55 52
38 25 22 19 17 15 14 15 17 18 18 19 19 20 18 15 16 16 16 16 20 22 23 17 20 27 31 30 29 27 27 33 39 34 41 33 48 47 41 34 35 37 45 45 46
38 20 18 16 16 16 15 16 18 18 18 18 18 20 18 11 10 15 19 20 22 22 23 24 23 27 31 29 30 37 40 40 43 34 31 29 41 41 34 34 36 31 26 29 30
26 17 16 16 16 15 15 16 18 17 16 17 17 18 10 12 20 21 21 21 22 22 23 20 22 30 27 27 38 30 24 37 41 37 27 35 43 39 41 27 33 38 32 29 26
18 17 17 16 15 14 14 14 15 17 14 15 20 22 22 25 27 26 22 23 18 21 20 16 26 40 32 29 37 42 38 37 37 32 28 34 33 29 37 35 39 35 38 30 31
17 18 17 16 14 13 12 12 13 17 19 19 22 29 27 26 30 21 17 14 16 19 17 19 37 31 29 31 30 37 42 42 35 38 34 36 38 36 28 29 33 37 38 39 31
20 20 18 13 14 13 12 12 14 18 25 19 21 13 13 10 16 9 9 14 16 19 19 26 30 25 30 35 39 40 39 39 38 35 36 34 36 38 41 42 36 34 40 45 43
23 18 16 17 13 14 13 12 15 18 17 8 6 5 11 9 8 5 8 15 23 26 25 33 30 32 33 36 37 38 34 39 42 37 23 24 23 35 32 34 39 39 41 36 28
19 21 16 16 14 11 11 12 14 12 3 3 5 4 3 9 11 13 14 22 27 28 28 42 34 37 38 39 35 40 37 29 38 35 21 28 21 41 28 36 30 29 20 21 23
24 18 18 13 13 10 10 13 9 1 6 3 1 1 7 12 20 26 28 19 25 32 36 36 36 38 39 40 38 39 33 29 29 13 14 30 23 29 35 30 24 17 24 26 25
23 18 15 13 10 10 12 8 3 5 0 1 6 11 15 18 23 18 18 15 17 21 25 28 34 38 35 35 36 34 33 6 6 4 11 20 20 40 22 26 26 22 28 25 23
19 17 14 9 11 12 8 5 6 1 2 9 14 19 20 14 13 17 20 20 14 24 21 15 23 11 19 21 26 28 27 10 5 5 9 22 12 22 24 24 33 11 22 20 18
19 13 9 12 12 9 8 6 2 4 9 16 23 21 9 15 23 23 22 20 16 15 17 13 23 35 28 25 21 23 19 33 26 16 4 7 21 18 10 17 5 23 14 8 5
14 15 13 11 7 8 7 7 2 5 10 16 7 7 17 22 19 20 19 14 18 17 15 16 30 23 15 29 17 22 18 10 19 2 4 1 5 9 23 7 8 7 7 4 5
16 13 10 6 6 5 5 3 8 12 11 5 9 14 15 20 19 20 13 21 13 12 18 23 17 31 25 10 11 21 25 26 17 11 2 2 6 12 11 16 25 9 7 3 2
12 7 7 5 4 4 2 10 10 4 7 10 11 15 16 19 23 24 24 20 21 28 26 24 17 23 31 20 23 21 27 21 5 1 12 3 2 11 10 7 16 16 10 10 11
10 7 6 6 7 5 7 2 3 5 10 10 15 15 13 23 24 18 23 14 19 16 15 26 8 12 18 6 13 14 21 20 21 6 5 2 4 17 12 7 10 13 16 16 12
10 5 4 6 7 12 8 6 7 8 15 13 19 15 12 19 17 17 25 17 17 22 24 26 22 22 14 12 15 13 16 20 13 9 0 9 18 16 13 13 11 15 15 21 17
10 8 8 7 5 8 5 3 5 10 16 12 6 9 16 23 24 17 17 19 18 10 11 16 23 24 23 24 19 22 20 12 7 3 3 15 18 16 19 20 19 19 20 21 15
13 9 12 11 9 3 2 5 8 16 17 11 13 18 15 16 18 25 21 17 16 13 16 22 15 17 33 19 20 15 16 13 15 19 16 11 10 21 22 20 19 20 18 16 11
10 10 7 8 14 6 4 7 11 16 11 15 16 16 14 14 17 18 16 12 14 21 23 24 8 12 24 36 22 20 24 23 21 15 11 14 15 19 22 20 17 16 14 13 11

GFSSW_700_spd_105.txt.gz
Wind_Speed
33 32 31 27 26 25 23 23 24 24 24 25 25 24 25 23 22 21 19 19 18 18 18 18 21 23 23 24 26 27 35 42 40 37 39 30 29 21 27 32 28 17 15 13 14
38 38 35 34 31 28 25 25 25 26 27 26 25 25 24 21 19 19 19 17 18 17 17 16 20 22 24 25 28 29 38 40 36 34 36 32 29 25 30 31 31 24 17 11 14
38 39 37 35 34 32 29 27 27 27 27 27 26 24 23 20 17 18 17 15 12 12 13 17 20 20 21 25 26 32 40 32 36 33 34 34 29 25 30 33 29 28 27 12 16
38 40 40 35 36 37 31 28 27 25 27 28 26 24 22 17 10 9 10 15 14 15 16 17 21 22 22 23 22 33 33 34 36 32 35 34 34 34 30 31 29 28 30 28 20
36 37 38 35 35 36 31 30 29 25 24 27 25 23 22 18 15 19 18 17 19 18 18 17 18 20 23 23 25 31 31 32 34 34 33 33 36 37 36 29 31 32 34 35 30
36 34 33 27 30 29 30 30 29 27 25 26 25 23 22 20 18 18 21 19 18 19 21 20 19 22 24 24 27 29 31 33 34 32 33 34 39 38 35 29 31 35 36 37 40
32 33 28 25 27 31 29 27 29 27 27 25 25 25 24 18 21 22 20 20 22 24 23 20 19 20 23 25 26 31 36 35 34 36 36 35 45 41 37 35 36 38 39 41 43
32 32 28 26 27 26 21 24 28 27 26 26 25 25 24 24 23 20 24 25 25 24 21 19 20 23 25 26 29 30 32 37 26 17 8 14 43 35 34 38 42 42 44 44 46
29 28 28 31 32 27 26 26 24 26 27 27 25 24 24 25 23 24 24 25 26 20 19 20 23 22 22 23 26 27 33 38 39 29 29 16 39 46 37 39 42 41 42 44 48
30 33 37 36 34 28 26 23 24 26 27 25 25 22 20 20 16 16 19 23 19 20 22 22 25 27 25 21 19 18 21 31 38 31 34 39 38 50 46 39 43 46 45 45 44
32 33 33 32 30 30 23 22 23 26 27 23 20 13 12 17 20 21 24 25 21 23 23 23 22 25 19 18 20 23 28 34 38 36 37 37 41 40 46 43 44 42 39 36 37
35 28 30 26 31 29 24 23 24 26 25 21 22 23 23 26 28 25 26 26 26 27 22 19 24 21 15 11 14 19 26 32 41 34 31 39 47 48 44 41 40 49 46 41 39
35 27 30 25 30 29 23 22 21 20 22 19 24 27 23 22 20 22 25 32 27 17 17 19 19 13 21 24 25 26 24 30 34 43 44 41 50 49 46 46 40 43 41 38 42
29 28 28 28 29 26 21 21 17 17 13 14 17 9 7 5 7 9 14 17 17 18 20 19 11 10 14 19 18 33 27 30 36 33 33 37 32 44 48 51 49 40 40 44 47
34 30 29 27 28 24 20 18 15 10 4 4 10 11 10 9 10 11 15 15 16 18 19 20 30 34 35 33 29 38 31 31 33 35 39 40 34 55 43 44 47 38 37 38 42
38 33 33 30 27 22 21 16 12 6 7 11 10 13 11 12 12 15 16 18 20 25 29 29 25 21 19 22 21 26 28 30 33 33 22 40 27 58 25 32 28 25 31 32 30
45 35 31 28 26 25 20 16 11 8 5 9 13 15 15 12 15 19 22 22 19 20 22 32 29 27 25 27 25 21 10 7 5 10 14 27 22 36 33 29 24 26 26 28 26
30 32 31 30 26 23 20 17 11 7 16 9 8 12 13 15 15 18 21 22 18 19 20 15 13 8 10 14 23 27 24 10 7 5 7 13 7 5 12 7 19 16 22 24 19
33 33 32 30 26 22 21 17 9 13 13 10 10 6 8 8 9 13 13 5 1 5 10 14 9 11 19 24 21 19 22 24 24 27 13 14 27 22 17 12 2 15 19 20 23
34 33 30 26 23 22 22 17 12 16 15 10 6 8 6 8 8 8 5 6 11 11 7 10 28 24 21 12 17 25 21 9 13 3 4 5 9 18 13 13 16 8 10 13 6
31 31 31 25 21 22 19 15 16 15 12 10 10 8 7 10 9 11 5 13 7 8 15 21 17 23 25 22 15 10 13 17 18 11 2 1 4 12 14 17 17 17 14 9 11
36 26 26 23 22 19 18 16 15 10 13 10 8 10 11 13 14 12 12 12 8 13 16 16 13 21 31 22 19 24 25 18 8 5 11 6 4 10 13 13 15 14 12 10 7
32 27 27 21 21 21 17 14 14 13 12 8 8 12 15 17 10 10 17 14 16 19 5 12 6 11 17 1 10 7 7 13 20 17 11 4 3 9 11 13 14 14 13 10 3
30 22 24 25 21 20 21 18 14 11 8 8 8 9 11 13 12 12 21 16 16 15 19 17 21 21 17 24 21 27 25 22 15 9 9 7 5 10 14 16 16 15 15 12 6
28 24 27 25 24 22 18 17 14 8 5 3 3 5 9 9 13 11 10 12 15 17 15 13 21 21 28 30 20 24 12 7 13 13 6 10 14 15 15 17 15 15 14 13 9
33 24 25 16 21 22 20 18 13 8 6 1 2 1 5 6 9 13 13 14 9 3 6 13 23 23 33 18 2 17 9 19 21 19 16 9 13 11 12 12 9 13 16 16 16
27 17 17 20 22 23 21 17 12 9 5 1 1 2 4 7 12 13 13 12 13 16 19 26 16 13 9 26 10 19 20 19 18 13 8 7 10 9 9 11 12 14 15 16 17

GFSSW_700_spd_108.txt.gz
Wind_Speed
28 30 32 32 34 32 31 30 29 27 28 26 24 24 24 24 24 24 23 21 20 21 21 21 21 22 23 24 26 27 32 38 35 31 32 26 28 23 22 23 28 27 25 18 17
30 32 31 33 32 33 33 33 32 30 30 29 27 26 24 23 22 23 22 21 20 20 21 21 22 23 24 25 28 28 36 34 32 29 30 29 29 24 29 27 27 28 27 22 17
35 30 30 33 33 32 33 34 34 31 29 29 27 27 24 23 21 23 21 20 19 19 19 19 18 19 21 23 26 32 36 30 33 31 31 33 29 27 31 32 25 26 29 28 21
34 34 33 34 34 34 36 36 36 30 28 28 26 25 25 21 12 12 12 14 17 16 15 18 21 22 24 25 25 30 31 29 32 30 31 33 34 32 31 34 27 27 28 30 31
31 31 34 35 37 32 31 32 34 29 30 28 27 26 25 22 19 22 19 18 18 20 21 22 22 22 23 25 25 30 29 29 31 30 32 34 36 36 36 28 27 29 28 29 32
31 33 31 35 33 27 27 26 30 29 28 29 26 25 26 22 21 21 20 23 22 24 25 23 24 24 25 25 26 28 30 29 30 29 30 35 36 34 31 27 28 29 30 30 33
35 34 34 33 33 31 30 29 30 27 27 29 28 26 26 20 23 21 20 20 23 23 23 24 23 23 25 22 25 26 30 28 27 25 23 27 33 28 23 24 29 30 31 33 34
34 35 36 35 30 30 30 29 28 29 28 29 29 28 27 25 25 21 22 25 26 26 25 24 23 22 19 19 26 29 31 31 21 22 23 28 43 35 36 35 34 34 34 35 36
32 32 33 30 33 34 33 34 28 28 30 28 28 27 28 26 26 26 22 23 26 26 22 22 21 20 19 22 26 25 24 25 26 25 21 21 47 36 34 38 40 40 40 41 39
38 42 38 37 37 40 38 34 30 29 29 27 29 26 20 22 19 15 16 22 24 21 18 20 19 20 22 23 18 22 25 27 27 28 30 33 46 49 43 42 46 47 46 45 45
44 41 34 36 40 39 36 30 29 29 29 26 22 12 10 13 14 11 16 17 18 19 19 20 22 23 21 17 17 20 23 28 29 27 30 31 42 52 49 45 46 47 45 47 48
40 38 39 33 41 35 31 27 27 28 30 25 25 26 23 24 30 24 26 24 24 24 22 25 28 23 18 17 14 16 23 30 34 14 31 37 50 52 53 46 45 49 49 48 49
37 39 42 40 35 28 26 26 23 24 27 28 25 26 26 26 26 28 27 29 31 29 26 21 17 6 10 15 21 25 23 28 36 34 37 40 48 46 45 54 47 47 42 43 43
40 37 48 31 30 31 26 21 21 17 13 18 13 17 12 16 13 18 18 16 15 16 17 16 18 19 17 15 16 28 27 29 34 34 22 26 22 72 39 46 51 30 32 32 37
40 47 40 33 32 29 18 18 16 12 4 6 10 15 12 12 13 12 14 15 11 11 13 11 11 14 24 29 23 24 22 24 27 28 29 43 19 42 45 50 27 35 30 29 30
41 40 38 38 28 23 17 20 16 9 7 10 11 14 15 16 13 12 12 13 15 18 20 21 23 22 21 23 22 27 29 28 27 26 14 37 26 35 27 23 32 31 33 32 30
32 33 40 31 28 23 20 16 10 10 5 9 12 15 16 17 17 17 17 17 17 16 18 23 26 13 10 12 13 10 7 5 4 3 6 21 17 19 20 19 19 26 17 24 25
31 41 34 34 30 22 24 20 15 8 19 7 12 15 14 14 15 16 18 17 17 15 13 9 5 6 3 8 12 17 15 6 5 2 6 28 10 9 14 20 19 21 12 17 26
38 32 25 28 25 26 25 25 12 20 12 14 12 10 12 14 13 12 11 10 7 5 4 7 5 8 10 18 20 5 14 22 19 22 11 9 16 19 17 18 20 18 14 6 18
32 31 30 24 27 26 28 24 17 13 13 12 7 7 8 10 9 8 4 5 3 8 12 8 15 15 10 14 10 18 9 3 7 3 5 8 7 7 17 20 21 20 19 11 9
31 35 29 31 28 30 31 24 19 15 14 10 9 8 9 10 9 8 5 7 9 5 8 13 13 14 21 15 14 7 14 14 14 13 3 2 1 11 15 17 22 21 20 16 17
41 32 33 31 31 30 30 20 21 16 16 13 10 13 13 11 10 9 9 6 6 10 10 10 9 12 21 9 10 18 19 17 7 3 12 6 2 10 14 14 16 18 16 13 15
40 35 37 34 32 27 22 21 18 15 15 14 12 11 12 13 7 9 10 6 10 11 6 5 4 9 7 3 10 4 12 10 16 24 13 3 2 7 9 12 12 12 14 13 11
41 32 32 31 29 28 27 20 21 19 16 13 11 10 11 11 9 7 10 8 8 12 10 11 18 19 13 19 20 25 29 27 19 12 7 4 6 4 10 11 9 10 14 15 15
36 31 32 36 29 19 22 22 21 16 16 11 9 9 9 6 5 8 4 6 7 11 14 17 19 20 22 25 22 19 10 14 12 14 6 10 8 9 11 11 10 13 13 14 14
30 31 31 21 25 26 24 21 20 18 11 10 8 7 7 7 6 9 8 6 6 6 4 9 12 17 31 22 5 11 5 6 24 21 16 10 12 11 11 10 10 11 11 16 21
30 25 29 24 27 28 28 23 20 15 12 8 7 5 7 8 11 11 11 9 10 12 15 21 21 11 4 28 10 9 18 18 14 12 9 6 8 9 10 12 14 17 19 22 24

GFSSW_700_spd_114.txt.gz
Wind_Speed
21 22 23 23 23 26 28 25 28 26 24 22 23 24 23 24 23 23 22 22 20 22 22 22 19 17 18 20 21 20 17 20 20 17 17 17 22 20 27 26 22 22 24 25 25
25 26 26 27 27 25 25 28 27 27 29 26 24 23 24 24 23 23 24 21 21 21 20 21 20 18 19 21 22 21 19 19 20 17 19 18 22 21 23 19 20 24 26 29 27
27 29 29 28 28 27 28 30 28 28 25 22 21 23 23 21 20 22 21 20 18 16 16 19 20 18 18 20 24 22 24 18 23 24 24 21 23 23 25 25 22 24 26 28 29
27 32 29 31 27 30 30 28 27 28 25 23 23 25 24 20 11 12 13 13 14 12 12 15 16 16 16 17 21 25 23 25 23 24 25 26 23 26 25 26 26 25 28 28 29
31 32 32 32 33 31 29 27 28 29 30 26 25 23 23 22 18 22 21 21 20 20 19 18 19 18 17 18 21 24 23 25 25 24 27 26 27 26 26 23 23 27 26 27 27
34 34 33 36 32 31 29 28 28 26 26 26 24 26 28 25 20 19 19 20 20 21 22 23 24 23 23 23 23 23 26 26 27 26 27 28 28 24 25 24 24 25 28 26 25
33 35 33 33 29 30 32 33 30 26 31 28 29 29 27 25 24 21 22 22 20 19 20 21 22 20 22 21 23 24 26 23 24 20 20 26 25 21 17 19 21 22 22 23 23
30 32 31 31 31 30 30 31 29 33 35 34 35 36 35 31 29 24 22 23 22 22 24 25 24 23 21 23 23 22 20 17 17 17 14 16 19 15 17 20 21 24 29 28 26
33 30 28 35 31 31 28 32 35 37 39 39 37 36 36 24 19 15 18 22 24 24 26 25 23 20 22 15 16 14 20 17 14 13 21 17 17 12 16 20 29 30 30 29 32
35 33 39 36 37 33 33 34 41 41 39 37 37 27 18 19 19 20 20 17 16 21 23 23 19 17 14 15 20 17 15 16 17 14 18 25 29 25 20 23 28 30 30 29 28
49 45 35 31 39 29 29 34 34 37 39 36 36 37 35 29 24 17 14 14 15 16 15 16 16 20 18 18 18 17 19 21 21 20 24 24 29 26 27 28 29 28 21 24 31
45 48 45 48 40 42 38 40 41 40 40 37 38 41 36 29 29 27 22 21 21 18 15 18 23 20 19 18 18 18 20 22 21 10 18 28 42 30 30 22 14 17 25 35 32
41 42 44 42 46 43 38 37 35 37 35 45 41 42 37 30 28 23 24 23 21 20 22 24 18 18 16 14 14 17 19 19 20 21 23 28 41 18 11 14 15 26 22 33 42
36 37 39 37 34 35 31 34 31 34 26 35 30 24 22 25 26 28 28 26 20 22 21 21 22 24 17 19 17 20 17 14 15 18 20 16 23 31 23 12 12 22 31 26 26
36 38 33 30 34 34 32 30 25 29 5 11 15 15 15 15 17 17 18 19 16 12 15 14 12 10 13 14 12 14 14 16 18 22 23 27 17 36 12 17 20 21 23 21 24
36 34 35 30 31 29 30 32 24 9 9 9 10 13 15 16 14 12 14 14 13 11 13 15 17 15 13 13 18 17 20 23 19 18 15 31 25 27 11 14 19 24 22 28 29
34 32 28 25 31 25 28 25 15 12 6 10 12 15 14 15 17 15 14 12 9 9 14 13 17 15 20 19 17 15 11 8 10 10 10 3 10 22 16 20 24 23 27 30 32
30 29 25 32 28 31 32 33 16 11 11 13 15 16 15 18 19 18 17 14 19 19 15 15 12 11 14 14 12 12 13 10 10 9 10 7 10 5 12 19 17 23 28 30 30
32 30 30 31 28 32 28 23 13 16 15 16 14 14 14 19 16 13 19 15 13 17 11 6 8 9 14 16 13 7 15 16 21 23 19 18 16 14 19 15 20 24 27 28 26
33 28 37 34 37 27 29 28 13 20 15 19 21 15 14 16 17 16 13 9 11 14 13 6 7 10 10 15 16 20 7 7 13 5 8 9 14 2 13 16 21 24 23 23 24
30 39 36 34 30 33 38 35 21 19 20 16 17 15 13 13 13 11 7 10 15 14 12 6 7 5 8 9 11 9 19 15 11 13 4 5 1 10 15 18 22 20 22 23 24
36 37 35 34 34 38 38 22 23 23 22 20 19 20 17 16 13 11 11 12 15 16 8 9 7 11 11 11 14 17 14 15 17 8 12 9 12 16 18 17 17 19 20 22 23
36 39 33 41 43 43 27 29 18 22 22 20 17 17 15 12 8 14 19 17 15 14 8 10 8 5 6 7 3 5 14 16 15 16 20 12 4 11 12 12 13 15 16 18 17
49 37 33 40 45 30 30 25 20 25 23 21 21 19 15 20 21 11 13 12 13 17 16 13 14 14 11 5 2 8 8 11 15 14 18 17 10 12 10 6 8 10 12 13 16
57 35 46 51 48 37 27 24 24 26 25 22 19 17 21 18 16 18 15 14 14 16 16 13 11 14 18 16 14 16 17 14 18 17 16 12 13 6 1 4 6 9 11 16 23
60 42 51 29 43 38 31 25 27 26 23 23 23 21 21 20 13 9 16 15 12 14 16 15 11 9 14 12 16 18 17 13 11 4 11 12 9 4 5 7 8 10 14 20 24
61 50 32 39 34 36 38 29 28 27 25 25 21 22 16 13 14 13 13 13 10 11 14 12 11 6 4 3 9 6 6 9 12 8 12 4 8 9 8 7 8 10 15 19 22

GFSSW_700_spd_117.txt.gz
Wind_Speed
22 22 21 22 23 24 26 25 22 22 23 23 24 22 23 22 24 24 22 23 22 21 21 19 17 16 14 14 17 14 20 23 21 20 21 16 17 15 15 16 16 15 17 18 28
24 23 21 24 26 27 25 25 26 24 21 22 21 18 18 20 20 21 22 23 22 20 19 18 16 14 12 11 12 15 18 23 19 18 17 16 18 17 17 19 18 17 17 20 18
26 24 25 26 30 27 26 25 26 23 21 21 22 20 20 22 20 18 16 16 17 15 14 13 13 13 13 15 15 14 22 21 21 21 19 19 19 19 20 22 20 20 21 20 19
28 27 28 27 28 29 27 27 27 23 20 20 22 20 18 20 12 18 20 18 17 15 13 12 10 9 10 14 14 21 19 21 21 20 20 19 19 21 22 23 21 20 19 25 25
28 29 28 31 31 31 30 29 26 24 24 20 19 20 17 18 23 20 21 22 22 21 18 15 11 11 15 13 16 21 21 21 22 22 24 23 23 24 24 23 21 20 26 23 20
31 31 33 33 33 31 30 29 27 26 26 24 21 22 24 26 21 24 24 22 20 18 19 18 15 13 18 18 19 19 21 20 21 24 23 24 24 23 25 19 21 17 13 15 14
32 33 32 31 32 32 29 29 30 28 25 27 25 27 30 28 31 31 29 26 22 20 17 18 18 15 11 13 17 19 22 22 23 24 20 18 21 25 19 17 18 14 13 14 14
34 33 28 29 33 30 32 31 31 29 26 30 31 36 36 36 34 28 22 22 23 22 22 25 23 21 18 16 20 21 22 26 19 12 16 16 20 15 13 12 13 15 18 19 18
36 30 30 32 29 30 33 32 31 32 34 33 37 34 35 26 24 22 21 18 21 23 25 26 23 20 14 15 20 19 27 23 19 12 13 18 20 14 15 18 20 22 23 20 20
43 34 38 36 34 31 31 34 36 38 39 37 34 21 20 21 34 29 26 22 20 18 19 20 16 17 15 17 26 23 24 21 19 16 21 23 29 27 26 27 27 24 23 22 18
44 45 44 39 36 28 32 33 34 33 41 34 31 38 31 37 35 28 26 22 17 15 18 17 18 22 19 20 24 25 25 28 28 26 28 31 33 28 26 30 30 29 26 22 21
42 44 44 41 45 42 46 37 31 33 45 47 45 41 35 39 35 27 26 20 17 19 16 18 26 20 21 21 21 22 26 30 30 26 26 27 34 33 33 35 31 24 19 22 29
37 40 42 41 45 44 43 44 45 41 38 43 41 40 37 34 35 27 24 16 19 19 21 27 21 14 16 20 21 24 25 27 28 25 28 32 41 29 20 16 16 15 21 20 24
35 36 37 38 40 40 41 37 34 26 23 33 30 24 22 20 24 21 20 19 19 23 21 28 24 26 26 23 20 28 22 24 22 22 29 27 31 39 31 31 20 14 9 21 29
34 33 32 27 34 30 34 29 23 19 6 7 14 20 15 9 14 15 21 22 24 22 19 22 17 16 18 23 20 24 18 16 19 25 29 43 27 44 26 21 17 11 21 24 26
33 33 31 35 32 29 26 26 21 5 11 10 11 9 9 13 10 10 8 14 12 17 21 22 15 15 16 16 17 15 17 21 24 28 24 36 31 38 13 7 9 17 22 29 28
32 30 28 31 31 27 28 25 11 11 7 11 10 11 13 10 12 11 10 13 11 12 17 19 20 18 17 16 17 16 16 16 18 16 17 28 20 16 5 7 19 25 31 30 28
31 28 32 32 32 26 30 22 12 15 27 11 8 12 17 15 12 12 14 17 17 15 14 16 17 19 19 15 17 18 21 19 19 15 19 27 11 3 3 3 12 22 23 27 33
32 34 34 29 30 35 32 32 18 25 23 16 12 14 16 16 12 13 17 19 17 17 13 11 16 11 17 14 12 12 22 19 25 27 23 29 28 3 4 6 15 20 27 28 28
34 37 36 29 34 37 37 33 19 17 12 18 20 15 19 19 15 13 15 11 17 19 15 11 15 18 16 14 18 20 13 10 13 6 12 13 18 3 9 12 18 25 29 28 26
35 33 42 31 35 36 37 27 23 20 18 19 22 19 20 16 19 18 12 11 11 10 12 12 14 14 10 18 17 17 19 20 19 20 9 10 2 6 13 20 24 23 26 25 26
40 39 45 39 38 43 42 27 26 21 17 19 21 18 18 18 17 18 17 14 11 11 9 12 10 18 21 17 16 19 21 17 22 17 14 22 15 17 15 18 23 24 20 22 23
42 43 34 43 38 45 31 28 19 21 21 17 15 17 16 19 15 17 15 16 20 13 7 11 10 11 8 12 15 12 18 19 17 17 21 12 6 15 15 18 25 17 14 16 16
47 39 41 45 48 39 32 26 26 22 20 17 16 17 16 17 17 10 15 15 17 13 20 13 15 15 17 11 5 5 7 12 18 21 21 22 11 13 16 16 13 8 8 11 14
54 38 49 52 49 44 32 25 28 21 21 22 19 20 20 17 18 18 14 15 16 17 19 15 14 15 24 20 17 17 16 16 19 21 20 19 13 17 15 9 3 4 7 9 15
54 46 46 34 44 47 32 29 31 25 24 26 19 22 18 20 16 11 17 19 17 15 16 15 11 11 20 16 16 21 23 21 22 23 28 22 19 18 10 3 3 4 7 9 15
58 55 28 30 35 41 41 30 30 27 19 19 22 16 18 17 13 13 13 14 9 13 17 18 12 10 10 5 8 11 20 19 19 23 14 12 12 10 7 5 3 5 7 11 15

GFSSW_700_spd_120.txt.gz
Wind_Speed
22 21 20 19 19 19 22 24 22 23 22 21 19 18 17 17 17 22 20 21 22 19 18 19 17 14 10 9 10 13 14 18 17 16 17 10 11 14 17 19 20 15 15 22 24
25 23 22 21 20 21 25 23 22 20 20 18 18 17 16 17 17 16 14 16 17 18 17 16 10 11 8 8 9 14 14 16 13 17 18 20 16 18 15 16 17 17 15 18 23
28 26 24 23 22 24 24 22 23 22 20 18 15 15 16 16 17 14 19 16 17 16 11 9 8 10 13 10 14 17 21 18 19 18 18 17 18 19 21 21 21 19 22 25 26
31 29 27 25 24 23 25 25 25 24 20 19 18 14 13 12 9 19 19 19 18 19 19 15 10 8 12 12 12 21 20 21 20 19 22 18 19 21 21 25 25 24 24 25 29
35 32 29 27 24 25 28 27 26 25 23 20 21 17 12 14 19 18 21 22 20 19 18 16 12 10 15 14 15 18 20 21 23 21 23 20 22 25 29 26 25 20 19 28 28
32 36 29 30 28 27 29 26 25 24 24 22 22 19 19 25 21 25 25 25 23 22 17 15 14 12 19 18 19 20 22 24 22 23 23 25 25 24 26 22 20 20 22 16 14
32 29 23 29 29 28 28 28 28 26 24 23 24 23 23 27 31 27 19 18 19 17 16 12 15 16 14 15 13 17 22 24 23 25 24 21 22 21 23 18 14 23 15 12 12
39 30 27 20 30 25 25 29 33 30 26 24 25 29 31 34 26 17 16 18 17 18 18 18 22 21 20 20 23 21 25 30 21 20 18 20 24 17 11 8 12 16 9 16 19
41 39 36 33 27 28 25 29 31 33 25 28 30 32 32 23 16 20 30 26 25 26 22 19 21 21 17 16 21 17 26 24 22 19 12 16 18 16 16 15 17 18 22 20 19
41 41 40 37 36 31 29 31 32 33 34 35 33 25 12 21 36 33 31 28 22 25 23 22 20 16 14 14 25 22 24 26 23 12 14 22 26 22 19 23 26 27 25 27 20
37 39 40 32 39 37 37 33 35 35 31 26 22 34 32 30 42 37 33 28 22 23 20 14 17 19 17 18 23 26 28 29 27 25 25 32 33 32 27 27 26 28 30 29 24
37 38 39 39 33 44 41 38 36 36 40 43 44 43 43 32 35 32 20 19 17 19 15 18 27 22 19 21 24 26 27 29 30 27 25 30 29 32 25 31 35 32 30 24 24
34 35 37 39 43 44 42 38 32 37 43 48 45 45 30 25 28 29 20 20 16 18 18 25 19 17 19 17 21 26 26 28 30 28 27 27 35 35 29 30 20 22 23 29 35
33 33 34 33 37 37 39 35 33 33 24 36 23 21 22 25 27 14 18 22 17 22 20 26 22 23 26 30 24 31 22 27 29 25 27 25 25 30 35 29 30 16 20 35 41
31 32 30 29 34 35 30 25 21 15 5 9 14 22 16 13 14 10 10 18 22 20 19 25 15 16 21 24 19 30 22 21 21 23 24 41 25 33 37 28 8 17 22 23 28
31 29 28 29 31 30 25 17 15 7 10 12 15 14 12 13 9 10 12 15 11 18 22 29 23 21 17 17 18 17 16 19 22 24 20 36 28 32 15 6 16 15 25 25 25
32 29 26 26 27 26 19 20 12 10 7 16 13 12 13 11 15 12 9 12 11 9 14 17 22 23 22 19 16 17 13 12 12 14 15 29 27 11 4 3 7 9 16 25 31
32 26 25 26 27 26 27 25 10 22 28 5 14 12 16 15 13 14 14 16 17 17 18 15 16 13 14 20 17 18 17 14 16 14 19 31 20 0 6 6 8 16 19 22 27
30 31 31 30 26 26 29 23 25 27 19 19 17 16 17 17 17 13 16 19 18 17 20 12 19 5 11 9 10 15 18 19 27 25 21 23 26 11 8 12 14 16 21 28 32
35 33 33 31 30 32 32 37 37 26 15 17 25 16 16 20 18 12 15 11 17 19 14 10 18 17 21 18 19 18 18 17 11 8 13 12 8 1 6 11 18 21 26 34 34
35 35 35 32 38 45 41 47 35 26 21 17 21 21 18 20 20 21 15 9 13 13 17 10 14 22 18 19 22 20 22 19 19 21 10 13 5 8 7 15 17 23 29 39 33
40 39 41 37 41 38 46 44 35 19 29 24 20 23 24 23 22 20 19 16 14 11 9 9 11 18 22 20 19 20 23 22 22 14 23 20 13 19 12 15 19 26 33 31 26
43 41 39 41 37 48 45 39 33 20 22 21 21 18 17 19 18 20 18 18 16 14 6 6 8 11 10 12 12 21 19 21 24 19 23 15 7 15 16 19 24 27 27 19 16
45 36 40 40 45 46 48 34 30 26 25 24 17 16 16 18 17 13 17 19 22 21 19 18 15 14 16 8 12 14 12 11 17 20 22 22 10 14 15 20 24 28 15 9 11
49 34 47 44 49 48 42 28 27 29 23 22 23 19 18 15 19 21 16 16 13 21 19 18 14 15 19 21 22 21 20 16 17 18 18 19 16 20 24 27 26 12 6 6 7
52 41 46 42 32 47 43 38 29 29 23 26 24 20 21 21 19 15 20 20 21 15 15 14 12 10 23 21 19 24 24 23 24 25 30 31 22 26 28 20 8 4 4 5 6
54 49 36 47 29 35 52 45 31 26 27 23 24 17 21 18 17 15 17 12 19 13 17 14 16 9 9 9 5 15 25 29 27 26 20 18 17 18 15 8 4 2 2 4 6

GFSSW_700_spd_123.txt.gz
Wind_Speed
22 21 20 19 18 17 18 18 20 20 18 18 16 16 15 14 14 13 13 12 13 11 14 16 15 13 9 4 6 7 17 22 12 8 17 17 19 11 6 10 11 15 13 19 26
25 25 24 22 20 19 19 20 20 19 19 17 16 14 14 13 11 7 11 13 14 14 12 11 14 15 8 3 2 10 17 18 9 19 20 19 17 24 22 17 16 14 15 18 23
29 28 27 25 23 22 21 21 20 20 21 19 15 16 15 12 12 7 12 12 13 14 14 12 11 11 11 8 5 10 23 19 17 18 20 23 26 26 28 32 25 26 28 28 30
32 31 30 28 26 24 23 22 20 22 22 21 18 17 16 12 10 14 14 13 12 11 13 14 10 9 12 11 3 16 18 21 22 21 26 26 28 32 30 29 28 28 28 26 28
36 34 33 31 29 26 24 24 24 21 21 21 19 18 16 13 13 12 17 18 15 10 10 12 11 10 11 10 11 17 17 21 23 25 29 28 28 29 30 24 20 24 25 21 25
36 36 29 30 33 28 26 25 25 21 19 20 21 19 18 18 20 20 19 12 13 8 5 6 8 11 15 14 16 19 23 27 26 29 31 32 29 24 26 10 19 20 19 18 23
29 31 24 24 23 27 21 25 25 24 21 22 22 22 20 19 24 22 10 8 14 14 11 7 8 12 14 17 11 16 22 22 22 23 22 15 27 25 26 21 20 14 15 21 10
28 32 24 26 32 25 23 24 22 27 27 23 24 24 22 29 22 9 7 22 20 17 16 14 16 16 16 17 19 22 25 25 11 10 20 22 31 22 12 10 11 11 14 10 7
35 36 36 28 29 28 31 23 27 31 23 28 29 28 31 17 13 12 25 23 25 25 17 14 17 18 17 20 21 14 21 22 23 18 19 15 25 22 13 19 21 18 19 18 19
33 32 31 32 28 36 27 29 26 25 29 28 32 29 11 12 29 30 33 31 24 20 20 17 18 18 17 12 14 15 17 23 27 18 23 19 23 21 20 20 17 20 21 25 30
32 32 33 32 33 36 31 39 32 38 36 32 29 32 28 31 34 34 36 32 23 17 18 15 20 23 15 10 15 21 25 28 25 24 27 30 34 29 25 24 27 29 31 30 29
30 31 31 32 32 33 31 32 34 36 43 41 40 42 39 37 37 27 27 27 21 18 13 15 23 18 15 11 15 22 23 26 30 27 23 28 34 34 31 28 25 28 35 33 36
30 31 31 29 30 34 36 29 31 38 40 47 39 40 30 27 29 23 20 19 21 16 16 21 19 9 20 21 22 23 21 27 32 28 26 27 35 29 29 20 24 21 24 30 40
30 32 30 28 31 34 35 35 35 29 22 37 24 21 15 14 26 15 12 20 24 24 16 20 25 23 22 23 19 29 23 23 23 24 20 20 14 32 36 32 25 26 27 33 36
29 29 28 28 32 30 26 19 17 14 4 5 11 14 10 10 14 16 13 17 27 24 15 19 9 9 15 15 17 26 16 18 19 20 22 43 13 33 30 24 21 28 31 31 34
30 28 26 29 27 24 22 20 11 7 9 8 14 14 15 15 17 18 9 19 22 26 29 32 28 25 21 22 20 14 16 19 21 22 14 39 22 15 11 10 18 21 22 22 24
31 27 26 25 23 19 14 15 16 11 5 12 16 19 15 13 19 14 13 15 17 14 16 13 13 12 19 26 23 21 12 4 4 4 9 18 15 3 13 18 15 16 16 17 22
31 28 25 25 23 21 20 30 11 20 28 2 9 9 12 12 11 16 16 14 12 14 18 15 12 7 12 22 24 15 10 3 4 3 11 29 6 8 20 16 8 15 17 18 22
33 31 31 28 28 25 33 29 26 36 20 17 17 15 16 14 17 15 21 18 20 17 25 11 15 17 14 11 12 9 17 13 10 25 17 13 4 15 19 15 13 15 21 26 30
35 34 33 30 31 30 33 37 41 40 18 11 17 21 21 20 16 21 15 9 16 19 22 15 17 21 18 12 14 19 16 12 7 4 7 7 8 6 12 16 16 17 20 27 33
37 34 37 34 31 39 36 44 44 37 19 22 20 16 22 19 22 26 20 16 15 18 24 20 19 16 17 15 16 16 21 19 20 19 3 2 8 23 14 13 15 21 25 29 35
40 35 40 35 39 39 46 30 38 27 31 24 22 21 17 20 21 19 20 25 18 20 20 17 10 12 21 26 28 19 24 21 21 13 19 20 18 21 19 14 22 20 27 32 28
41 39 39 37 39 43 46 44 40 32 29 28 31 24 22 20 13 20 20 17 21 18 13 15 9 7 12 9 5 14 17 17 19 19 21 10 10 17 19 21 18 23 28 24 18
39 35 41 37 46 43 49 45 43 34 31 25 22 22 19 23 19 16 18 16 18 18 17 17 17 17 17 13 7 17 15 13 19 16 21 24 22 21 21 19 22 25 23 16 13
46 31 46 47 47 49 44 40 42 36 37 27 20 23 21 17 20 19 16 21 20 22 21 21 22 24 25 27 28 27 30 21 21 21 19 23 21 21 24 23 22 21 13 10 10
51 41 45 46 45 48 47 48 43 36 29 28 31 21 19 21 23 17 19 23 23 18 19 24 18 14 21 21 22 27 24 29 27 28 28 28 29 30 28 21 18 10 7 7 6
45 52 39 49 42 36 51 49 42 22 28 31 25 25 21 21 19 21 23 24 20 23 19 17 17 10 11 6 10 14 19 21 25 25 28 32 32 25 20 16 10 6 4 2 1

GFSSW_700_spd_126.txt.gz
Wind_Speed
22 21 21 19 19 19 18 17 17 17 18 16 16 14 11 10 8 7 7 8 7 7 6 3 6 9 8 10 10 13 12 13 9 5 9 14 19 14 9 9 11 9 12 16 18
25 25 24 23 22 22 20 19 19 19 19 18 16 15 12 9 7 5 6 7 8 8 6 4 4 3 5 8 10 14 16 12 9 11 14 16 22 23 20 16 14 14 12 18 23
29 28 27 26 26 24 23 22 21 21 19 18 16 15 14 11 9 2 8 7 8 8 7 5 3 4 3 6 9 14 18 10 10 11 14 21 25 26 27 28 25 25 24 21 25
32 31 30 28 28 28 26 24 24 22 20 19 17 15 14 11 7 8 9 11 10 9 9 9 6 4 4 5 11 15 15 14 13 15 21 23 29 31 31 32 30 27 27 27 29
35 34 33 32 31 31 30 27 25 25 22 19 15 15 14 12 11 11 14 15 10 7 6 7 9 7 7 7 10 16 16 19 20 20 23 28 29 28 29 23 18 14 15 22 28
38 37 36 34 35 33 34 30 30 27 23 20 17 17 16 13 12 10 14 10 3 5 6 8 9 10 11 10 13 16 18 19 19 20 27 31 32 30 28 14 15 18 16 17 20
38 38 31 30 30 23 22 25 23 21 22 20 19 21 17 17 17 16 12 8 9 10 5 11 13 12 13 10 15 16 22 17 10 8 11 14 23 18 14 15 16 10 9 10 16
28 23 25 20 26 20 20 13 14 22 25 24 22 23 19 17 19 18 9 8 19 17 14 12 14 14 14 16 17 20 22 21 3 6 9 17 28 16 11 14 10 12 7 9 24
42 34 28 30 25 26 23 24 26 27 27 25 23 22 24 15 15 7 11 21 21 20 16 13 15 16 15 18 19 16 15 14 8 4 15 11 13 9 4 10 17 17 13 20 27
42 56 33 37 27 22 25 28 27 25 31 26 27 23 16 16 15 13 23 26 24 22 20 14 16 18 17 15 12 11 11 13 19 16 21 23 22 18 14 16 14 18 17 26 32
30 30 28 29 28 29 32 22 27 28 31 32 30 31 29 30 30 26 30 31 26 19 16 15 19 21 12 12 10 12 18 22 20 23 25 29 30 27 21 19 18 22 26 31 36
29 28 27 28 29 30 34 33 31 28 33 34 35 36 31 27 35 27 25 26 25 21 13 18 23 11 9 7 12 15 24 27 24 21 22 26 34 27 25 19 24 27 30 33 34
29 28 28 28 29 33 33 29 31 28 34 39 31 37 29 27 31 19 21 20 23 22 19 20 17 11 11 14 17 19 23 27 18 21 24 27 36 32 23 27 31 34 34 32 32
30 30 29 28 31 31 29 24 27 27 22 34 29 27 19 20 21 11 14 14 22 20 19 18 18 19 18 20 19 22 20 22 23 25 17 11 13 38 26 23 24 28 31 33 34
30 28 25 28 29 25 17 21 24 20 4 8 11 11 11 12 11 12 9 16 21 25 19 15 9 8 16 19 14 18 13 16 17 18 23 14 7 38 26 26 24 25 28 31 33
28 25 24 25 25 20 19 13 14 10 11 9 11 15 16 14 14 15 14 17 21 26 27 26 25 23 21 19 20 21 23 20 22 21 11 25 10 20 17 21 24 23 20 20 22
28 26 25 23 18 15 19 22 18 11 8 10 16 17 17 14 22 19 17 17 15 15 22 25 24 13 15 21 20 24 22 5 4 1 6 5 7 11 17 23 24 19 18 20 22
29 28 26 24 21 18 22 30 13 17 26 4 15 10 18 19 19 24 20 16 17 20 15 9 7 12 14 17 20 21 21 11 6 3 5 23 7 11 22 24 23 18 17 22 27
31 31 32 29 25 26 27 35 23 24 12 27 7 9 16 15 14 17 21 19 15 16 14 6 9 11 17 16 9 8 12 12 10 14 9 14 14 18 22 22 21 23 26 22 25
35 34 34 32 31 29 31 41 42 36 13 15 14 12 22 21 20 16 19 15 22 17 20 18 21 22 21 17 16 13 11 9 8 4 8 7 12 13 11 14 17 16 19 25 28
38 37 37 35 35 34 36 39 43 37 31 22 18 14 12 17 21 23 21 17 14 17 24 25 26 19 17 18 18 16 15 15 15 19 4 3 6 10 17 16 18 17 24 24 30
40 40 41 40 38 38 43 46 40 36 42 26 31 20 18 20 21 22 27 25 16 21 21 24 16 15 21 23 22 21 27 20 21 12 19 23 22 26 24 28 20 24 22 28 31
35 41 37 42 38 45 43 45 42 39 33 27 34 28 26 16 13 15 18 18 22 25 23 27 15 10 12 13 14 18 18 18 17 13 17 15 11 22 26 29 26 23 26 30 25
38 32 36 34 46 43 47 45 47 42 29 28 28 28 27 24 21 8 14 14 16 22 22 19 21 21 18 18 20 20 20 18 16 12 21 25 30 35 34 27 19 24 29 24 15
42 32 38 48 47 50 43 47 46 46 42 32 34 34 29 32 23 25 15 21 25 22 18 15 19 19 23 24 28 30 31 33 37 35 24 30 25 23 25 21 22 24 22 13 11
41 41 40 46 43 46 50 47 48 42 45 35 38 28 23 21 25 19 25 22 21 19 19 20 18 22 28 29 25 26 27 27 31 32 37 34 34 32 27 24 20 19 15 9 8
51 34 34 47 44 47 52 47 49 42 36 32 31 25 20 21 22 23 26 23 22 20 19 21 21 21 17 17 12 18 23 20 24 22 32 35 35 30 27 23 20 16 10 7 4

GFSSW_700_spd_129.txt.gz
Wind_Speed
23 22 22 21 20 20 19 19 19 20 19 18 18 17 13 10 7 4 3 4 4 3 2 1 5 7 8 8 8 10 13 14 12 13 13 12 12 9 7 6 4 11 13 14 15
26 26 25 25 24 23 22 21 21 21 21 20 19 17 14 12 8 7 4 4 3 3 3 2 3 2 5 7 10 12 14 11 11 12 17 18 17 16 15 13 11 9 14 20 21
29 29 29 28 27 26 25 24 24 22 22 21 19 19 17 13 10 8 6 5 5 5 6 5 5 4 6 7 9 14 16 11 12 13 18 23 22 22 22 21 21 22 24 27 30
32 32 31 31 30 29 27 27 27 27 25 22 20 18 16 13 7 9 7 7 9 10 9 7 6 6 7 7 12 15 15 15 15 15 18 20 22 23 24 23 21 21 27 29 27
35 34 34 32 33 31 31 29 31 30 29 25 23 18 16 13 12 11 12 13 12 8 9 8 8 7 8 8 12 16 17 18 18 17 19 22 21 24 24 19 22 17 15 19 25
37 36 36 34 35 32 33 32 31 32 31 28 24 18 18 15 13 11 9 11 8 5 7 8 9 11 11 10 14 15 17 17 14 17 23 26 27 28 10 12 10 13 19 22 25
36 37 37 36 37 36 32 30 31 28 25 21 20 20 21 15 12 13 13 12 8 7 11 12 12 11 12 12 16 16 20 17 11 12 11 12 12 9 11 7 8 8 14 18 20
30 28 27 32 30 32 29 22 21 18 18 16 21 24 21 17 14 14 12 11 11 13 12 15 15 13 14 16 16 19 19 18 4 9 7 10 7 3 5 4 5 14 18 22 24
46 43 33 25 26 22 24 23 19 16 26 28 26 22 20 16 11 9 12 14 13 16 18 16 15 14 17 17 19 13 12 14 11 10 9 12 11 7 7 6 10 17 20 23 26
37 34 42 41 33 32 26 26 25 28 27 32 27 22 21 17 8 7 16 18 25 23 18 18 16 16 18 15 11 8 10 11 13 14 17 22 22 20 20 18 19 22 24 26 30
33 32 35 40 42 42 48 29 26 32 32 28 25 18 15 21 22 18 24 25 26 23 18 17 18 18 11 13 13 13 16 19 17 14 21 20 23 23 22 25 26 27 28 30 31
33 31 30 31 32 33 30 30 36 33 35 30 32 35 32 31 32 23 28 25 26 25 19 21 23 11 13 15 12 13 17 20 23 18 19 25 25 28 28 29 31 30 29 30 34
33 32 30 29 30 31 29 27 32 31 37 36 35 37 28 30 34 22 29 29 30 25 23 22 14 8 10 11 14 14 19 21 23 21 24 28 30 26 24 24 28 31 33 34 36
33 32 30 28 32 30 27 27 27 28 21 31 28 29 25 27 32 19 25 28 30 22 22 20 17 17 15 19 16 21 18 19 18 21 17 15 9 25 29 31 25 24 35 30 30
31 31 29 31 32 26 18 24 20 17 4 9 14 14 13 19 16 12 18 23 22 22 21 14 10 8 10 13 11 13 14 17 18 20 22 16 11 20 12 17 29 32 25 24 25
30 28 29 30 30 23 24 20 19 10 10 7 11 14 16 19 17 13 17 18 19 23 26 28 23 17 15 15 16 15 17 18 21 21 12 21 16 19 18 20 18 18 20 21 22
30 28 27 26 24 21 21 24 16 12 9 7 13 16 17 20 22 17 17 19 18 12 23 25 27 21 22 22 21 21 19 6 5 2 6 9 7 23 23 24 22 23 20 18 21
32 30 28 23 24 19 21 35 12 16 23 5 13 13 21 22 22 21 21 20 20 18 9 6 6 9 13 16 14 16 16 12 5 4 7 17 9 15 22 23 30 28 21 21 25
34 33 32 29 25 31 33 38 25 23 12 23 8 15 22 22 20 21 28 26 21 19 15 6 7 8 10 11 11 8 15 19 17 16 6 14 20 26 29 26 26 22 18 22 25
36 36 36 33 35 32 36 37 42 39 19 14 22 10 13 18 19 14 16 14 22 20 14 11 9 13 20 19 19 16 12 7 8 3 9 11 17 19 20 23 17 18 18 25 26
39 37 38 36 35 38 41 47 41 38 28 16 19 14 10 10 22 24 16 22 16 16 19 22 21 16 13 18 21 18 16 13 13 15 5 13 11 12 18 18 24 26 26 21 29
41 41 43 40 41 39 48 49 42 40 34 24 25 20 19 14 11 23 26 24 17 20 22 25 19 19 23 23 24 22 23 21 11 10 25 21 37 26 31 31 27 23 26 29 30
39 41 37 40 39 43 49 44 49 46 42 28 31 33 26 26 15 14 19 25 26 24 20 24 17 10 10 17 23 22 24 21 21 28 32 14 20 14 26 28 30 29 26 28 31
39 37 36 34 46 46 51 53 48 45 41 33 27 32 30 22 22 16 16 18 24 24 25 24 26 22 21 19 16 18 25 24 27 21 22 30 40 36 31 31 31 24 23 27 29
47 37 42 44 49 52 47 47 49 47 43 31 34 40 28 27 25 24 25 20 22 23 24 24 25 24 25 23 23 29 30 29 34 38 34 45 41 42 34 29 25 23 25 25 21
51 38 40 45 50 47 39 49 49 45 45 44 37 27 27 29 31 27 30 31 23 15 20 25 19 20 24 20 24 31 31 35 35 38 40 40 47 41 38 33 29 26 24 22 14
50 52 34 42 38 47 53 52 50 46 43 41 22 23 30 37 26 21 20 22 20 25 26 24 22 20 20 19 23 22 30 21 20 25 29 34 29 27 30 30 26 25 21 15 10